<?xml version='1.0' encoding='UTF-8'?><gpx version="1.1" creator="JPX - https://github.com/jenetics/jpx" xmlns="http://www.topografix.com/GPX/1/1"><trk><trkseg><trkpt lat="37.43902449674609" lon="13.265943304137572"><ele>25.000000000000004</ele><time>2026-04-26T10:02:03Z</time></trkpt><trkpt lat="37.4390979302151" lon="13.265888298611351"><ele>25.0</ele><time>2026-04-26T10:02:06Z</time></trkpt><trkpt lat="37.43917488260942" lon="13.265814084293268"><ele>25.0</ele><time>2026-04-26T10:02:08Z</time></trkpt><trkpt lat="37.439249927067635" lon="13.265791202951645"><ele>25.0</ele><time>2026-04-26T10:02:10Z</time></trkpt><trkpt lat="37.439326141972295" lon="13.265770288733764"><ele>25.000000000000004</ele><time>2026-04-26T10:02:12Z</time></trkpt><trkpt lat="37.43940484434435" lon="13.265756848089687"><ele>25.0</ele><time>2026-04-26T10:02:15Z</time></trkpt><trkpt lat="37.43944964627881" lon="13.265863325399026"><ele>25.0</ele><time>2026-04-26T10:02:17Z</time></trkpt><trkpt lat="37.43945264493373" lon="13.26596572614986"><ele>25.0</ele><time>2026-04-26T10:02:18Z</time></trkpt><trkpt lat="37.43944462105938" lon="13.266076193063737"><ele>25.0</ele><time>2026-04-26T10:02:19Z</time></trkpt><trkpt lat="37.439436816768286" lon="13.266191091331143"><ele>25.0</ele><time>2026-04-26T10:02:20Z</time></trkpt><trkpt lat="37.43943327015383" lon="13.26632351068901"><ele>25.0</ele><time>2026-04-26T10:02:21Z</time></trkpt><trkpt lat="37.43943513326044" lon="13.266466115810648"><ele>25.0</ele><time>2026-04-26T10:02:21.999Z</time></trkpt><trkpt lat="37.43943856429583" lon="13.266615748636182"><ele>25.0</ele><time>2026-04-26T10:02:23Z</time></trkpt><trkpt lat="37.439439688283315" lon="13.266765364617191"><ele>25.0</ele><time>2026-04-26T10:02:24Z</time></trkpt><trkpt lat="37.43943220974934" lon="13.266912858900694"><ele>25.0</ele><time>2026-04-26T10:02:25Z</time></trkpt><trkpt lat="37.43942749265634" lon="13.26707752441008"><ele>25.0</ele><time>2026-04-26T10:02:26Z</time></trkpt><trkpt lat="37.43942519652342" lon="13.267242975962299"><ele>25.0</ele><time>2026-04-26T10:02:27Z</time></trkpt><trkpt lat="37.43942291885455" lon="13.267422382733224"><ele>25.0</ele><time>2026-04-26T10:02:28Z</time></trkpt><trkpt lat="37.43942128889301" lon="13.267611023221232"><ele>25.0</ele><time>2026-04-26T10:02:29Z</time></trkpt><trkpt lat="37.43941765044419" lon="13.267789915985444"><ele>26.0</ele><time>2026-04-26T10:02:30Z</time></trkpt><trkpt lat="37.43941830982103" lon="13.26798117042625"><ele>27.0</ele><time>2026-04-26T10:02:31Z</time></trkpt><trkpt lat="37.43941278442771" lon="13.268178645582962"><ele>28.0</ele><time>2026-04-26T10:02:32Z</time></trkpt><trkpt lat="37.43941122417135" lon="13.268393100442445"><ele>28.0</ele><time>2026-04-26T10:02:33Z</time></trkpt><trkpt lat="37.4394076241083" lon="13.268597440476293"><ele>28.0</ele><time>2026-04-26T10:02:34Z</time></trkpt><trkpt lat="37.43940437567402" lon="13.268794932888866"><ele>28.0</ele><time>2026-04-26T10:02:35Z</time></trkpt><trkpt lat="37.43940349213381" lon="13.269008334629655"><ele>27.666666666666668</ele><time>2026-04-26T10:02:36Z</time></trkpt><trkpt lat="37.43940147171074" lon="13.26921709056333"><ele>27.333333333333336</ele><time>2026-04-26T10:02:37Z</time></trkpt><trkpt lat="37.43939826993945" lon="13.26943235708836"><ele>27.0</ele><time>2026-04-26T10:02:38Z</time></trkpt><trkpt lat="37.439396514211786" lon="13.269638204993976"><ele>27.666666666666664</ele><time>2026-04-26T10:02:39Z</time></trkpt><trkpt lat="37.43939539032154" lon="13.269848795211441"><ele>28.333333333333332</ele><time>2026-04-26T10:02:40Z</time></trkpt><trkpt lat="37.43939234067734" lon="13.270066820815455"><ele>29.0</ele><time>2026-04-26T10:02:41Z</time></trkpt><trkpt lat="37.43938990237478" lon="13.270285598423467"><ele>29.0</ele><time>2026-04-26T10:02:42Z</time></trkpt><trkpt lat="37.439389234103366" lon="13.27051156624928"><ele>29.0</ele><time>2026-04-26T10:02:43Z</time></trkpt><trkpt lat="37.439388107935535" lon="13.27073190434442"><ele>29.0</ele><time>2026-04-26T10:02:44Z</time></trkpt><trkpt lat="37.43938455907243" lon="13.270947195083757"><ele>29.0</ele><time>2026-04-26T10:02:45Z</time></trkpt><trkpt lat="37.43938170756957" lon="13.271155171754705"><ele>29.0</ele><time>2026-04-26T10:02:46Z</time></trkpt><trkpt lat="37.43937967013248" lon="13.271372323265675"><ele>29.0</ele><time>2026-04-26T10:02:47Z</time></trkpt><trkpt lat="37.43937551298352" lon="13.271578071834252"><ele>29.25</ele><time>2026-04-26T10:02:48Z</time></trkpt><trkpt lat="37.43937409157349" lon="13.271778155426048"><ele>29.5</ele><time>2026-04-26T10:02:49Z</time></trkpt><trkpt lat="37.4393705552543" lon="13.271956916657924"><ele>29.75</ele><time>2026-04-26T10:02:50Z</time></trkpt><trkpt lat="37.43936750101571" lon="13.272143169050734"><ele>30.0</ele><time>2026-04-26T10:02:51Z</time></trkpt><trkpt lat="37.439362465913824" lon="13.272322417927988"><ele>30.8</ele><time>2026-04-26T10:02:52Z</time></trkpt><trkpt lat="37.4393578904539" lon="13.272479644600281"><ele>31.6</ele><time>2026-04-26T10:02:53Z</time></trkpt><trkpt lat="37.439355853453286" lon="13.272616442300025"><ele>32.4</ele><time>2026-04-26T10:02:54Z</time></trkpt><trkpt lat="37.43933922530302" lon="13.272732117120396"><ele>33.2</ele><time>2026-04-26T10:02:55Z</time></trkpt><trkpt lat="37.43931603348327" lon="13.272830867677458"><ele>34.0</ele><time>2026-04-26T10:02:56Z</time></trkpt><trkpt lat="37.43927295277333" lon="13.272910752676564"><ele>34.0</ele><time>2026-04-26T10:02:57Z</time></trkpt><trkpt lat="37.43921367944608" lon="13.272969951720773"><ele>34.0</ele><time>2026-04-26T10:02:58Z</time></trkpt><trkpt lat="37.43914015537434" lon="13.273014559424102"><ele>34.0</ele><time>2026-04-26T10:02:59Z</time></trkpt><trkpt lat="37.439063764403045" lon="13.273029225354708"><ele>34.0</ele><time>2026-04-26T10:03:00Z</time></trkpt><trkpt lat="37.43898155881723" lon="13.273024222792415"><ele>34.0</ele><time>2026-04-26T10:03:01Z</time></trkpt><trkpt lat="37.43890711257833" lon="13.27299969179729"><ele>34.0</ele><time>2026-04-26T10:03:02Z</time></trkpt><trkpt lat="37.43884489070942" lon="13.272964167922698"><ele>34.0</ele><time>2026-04-26T10:03:03Z</time></trkpt><trkpt lat="37.43876325861655" lon="13.272846275300678"><ele>34.0</ele><time>2026-04-26T10:03:05Z</time></trkpt><trkpt lat="37.43870387656249" lon="13.272714890233306"><ele>34.0</ele><time>2026-04-26T10:03:07Z</time></trkpt><trkpt lat="37.43866865214515" lon="13.272646961589784"><ele>34.0</ele><time>2026-04-26T10:03:08Z</time></trkpt><trkpt lat="37.438604131907425" lon="13.272538889801655"><ele>34.0</ele><time>2026-04-26T10:03:10Z</time></trkpt><trkpt lat="37.43856792779214" lon="13.272459958890943"><ele>34.0</ele><time>2026-04-26T10:03:13Z</time></trkpt><trkpt lat="37.43866393068967" lon="13.27241676674806"><ele>34.0</ele><time>2026-04-26T10:03:16Z</time></trkpt><trkpt lat="37.438746274792265" lon="13.272432122141673"><ele>34.0</ele><time>2026-04-26T10:03:17Z</time></trkpt><trkpt lat="37.438833794100475" lon="13.27244050755514"><ele>34.0</ele><time>2026-04-26T10:03:18Z</time></trkpt><trkpt lat="37.43892788284194" lon="13.272437744319552"><ele>34.0</ele><time>2026-04-26T10:03:19Z</time></trkpt><trkpt lat="37.439025193168526" lon="13.27243822423862"><ele>34.0</ele><time>2026-04-26T10:03:20Z</time></trkpt><trkpt lat="37.439136837971205" lon="13.272436578073236"><ele>34.0</ele><time>2026-04-26T10:03:21Z</time></trkpt><trkpt lat="37.4392571399604" lon="13.272437812952434"><ele>34.0</ele><time>2026-04-26T10:03:22Z</time></trkpt><trkpt lat="37.439380767177944" lon="13.272438389130263"><ele>34.0</ele><time>2026-04-26T10:03:23Z</time></trkpt><trkpt lat="37.43950492047676" lon="13.272443215025492"><ele>34.0</ele><time>2026-04-26T10:03:24Z</time></trkpt><trkpt lat="37.439634589903264" lon="13.272447916409842"><ele>34.0</ele><time>2026-04-26T10:03:25Z</time></trkpt><trkpt lat="37.43976010864323" lon="13.272454245011282"><ele>34.0</ele><time>2026-04-26T10:03:26Z</time></trkpt><trkpt lat="37.43987278220512" lon="13.272461715573488"><ele>34.0</ele><time>2026-04-26T10:03:27Z</time></trkpt><trkpt lat="37.43997405946173" lon="13.272486509676236"><ele>34.0</ele><time>2026-04-26T10:03:28Z</time></trkpt><trkpt lat="37.44006889735153" lon="13.272533127472919"><ele>34.0</ele><time>2026-04-26T10:03:29Z</time></trkpt><trkpt lat="37.44016587965624" lon="13.272606316756026"><ele>34.0</ele><time>2026-04-26T10:03:30Z</time></trkpt><trkpt lat="37.44024552089202" lon="13.27270048790541"><ele>34.0</ele><time>2026-04-26T10:03:31Z</time></trkpt><trkpt lat="37.440316688346535" lon="13.272812921006203"><ele>34.0</ele><time>2026-04-26T10:03:32Z</time></trkpt><trkpt lat="37.44037741712012" lon="13.272937983368523"><ele>34.0</ele><time>2026-04-26T10:03:33Z</time></trkpt><trkpt lat="37.440430607942595" lon="13.273069573995338"><ele>34.0</ele><time>2026-04-26T10:03:34Z</time></trkpt><trkpt lat="37.44048742127215" lon="13.273198743402006"><ele>34.0</ele><time>2026-04-26T10:03:35Z</time></trkpt><trkpt lat="37.44054801319879" lon="13.273327040693738"><ele>34.0</ele><time>2026-04-26T10:03:36Z</time></trkpt><trkpt lat="37.440616032656116" lon="13.273468024914536"><ele>33.75</ele><time>2026-04-26T10:03:37Z</time></trkpt><trkpt lat="37.44068353156049" lon="13.273612238183654"><ele>33.5</ele><time>2026-04-26T10:03:38Z</time></trkpt><trkpt lat="37.440760431540966" lon="13.273768608961449"><ele>33.25</ele><time>2026-04-26T10:03:39Z</time></trkpt><trkpt lat="37.44083364600934" lon="13.273922502934122"><ele>33.0</ele><time>2026-04-26T10:03:40Z</time></trkpt><trkpt lat="37.440904138413124" lon="13.274070833061787"><ele>34.25</ele><time>2026-04-26T10:03:41Z</time></trkpt><trkpt lat="37.44097221204084" lon="13.274211423229884"><ele>35.5</ele><time>2026-04-26T10:03:42Z</time></trkpt><trkpt lat="37.441045369166325" lon="13.274356280989327"><ele>36.75</ele><time>2026-04-26T10:03:43Z</time></trkpt><trkpt lat="37.441124089364" lon="13.274514451811498"><ele>38.0</ele><time>2026-04-26T10:03:44Z</time></trkpt><trkpt lat="37.44120106803013" lon="13.274675976723486"><ele>38.0</ele><time>2026-04-26T10:03:45Z</time></trkpt><trkpt lat="37.44128355680993" lon="13.274842064659683"><ele>38.0</ele><time>2026-04-26T10:03:46Z</time></trkpt><trkpt lat="37.44135868612898" lon="13.274997663322935"><ele>38.0</ele><time>2026-04-26T10:03:47Z</time></trkpt><trkpt lat="37.44143291777012" lon="13.27515161437609"><ele>38.0</ele><time>2026-04-26T10:03:48Z</time></trkpt><trkpt lat="37.441512389879776" lon="13.275313563979077"><ele>38.0</ele><time>2026-04-26T10:03:49Z</time></trkpt><trkpt lat="37.4415860938173" lon="13.275469493025813"><ele>38.0</ele><time>2026-04-26T10:03:50Z</time></trkpt><trkpt lat="37.44165746579174" lon="13.275621473450054"><ele>38.0</ele><time>2026-04-26T10:03:51Z</time></trkpt><trkpt lat="37.441718083827496" lon="13.275749625756346"><ele>38.0</ele><time>2026-04-26T10:03:52Z</time></trkpt><trkpt lat="37.44176952733967" lon="13.275856329938645"><ele>38.33333333333333</ele><time>2026-04-26T10:03:53Z</time></trkpt><trkpt lat="37.441815762906586" lon="13.275953041964712"><ele>38.666666666666664</ele><time>2026-04-26T10:03:54Z</time></trkpt><trkpt lat="37.44185270428854" lon="13.276036588632488"><ele>39.0</ele><time>2026-04-26T10:03:55Z</time></trkpt><trkpt lat="37.441884016130466" lon="13.27611142573123"><ele>39.333333333333336</ele><time>2026-04-26T10:03:56Z</time></trkpt><trkpt lat="37.44190894655798" lon="13.27620406948994"><ele>39.66666666666667</ele><time>2026-04-26T10:03:59Z</time></trkpt><trkpt lat="37.44197089636579" lon="13.276267577329541"><ele>40.0</ele><time>2026-04-26T10:04:30.999Z</time></trkpt><trkpt lat="37.4420231918343" lon="13.276354180389669"><ele>40.4</ele><time>2026-04-26T10:04:31.999Z</time></trkpt><trkpt lat="37.44203775194082" lon="13.276439644232934"><ele>40.8</ele><time>2026-04-26T10:04:33.999Z</time></trkpt><trkpt lat="37.44193916864124" lon="13.276489397489202"><ele>41.2</ele><time>2026-04-26T10:04:36.999Z</time></trkpt><trkpt lat="37.441856540432674" lon="13.27658427278758"><ele>41.6</ele><time>2026-04-26T10:04:39Z</time></trkpt><trkpt lat="37.4417745088312" lon="13.276707364571383"><ele>42.0</ele><time>2026-04-26T10:04:41Z</time></trkpt><trkpt lat="37.44168925989982" lon="13.276804170166102"><ele>42.0</ele><time>2026-04-26T10:04:43Z</time></trkpt><trkpt lat="37.441643581055914" lon="13.276867193553336"><ele>42.0</ele><time>2026-04-26T10:04:44Z</time></trkpt><trkpt lat="37.441595376818384" lon="13.27692997954597"><ele>42.0</ele><time>2026-04-26T10:04:45Z</time></trkpt><trkpt lat="37.441541193273444" lon="13.276996975696854"><ele>42.0</ele><time>2026-04-26T10:04:46Z</time></trkpt><trkpt lat="37.44147430857851" lon="13.277053540950256"><ele>42.0</ele><time>2026-04-26T10:04:47Z</time></trkpt><trkpt lat="37.44142239374857" lon="13.277118870198034"><ele>42.0</ele><time>2026-04-26T10:04:48Z</time></trkpt><trkpt lat="37.44137266315246" lon="13.277201061878182"><ele>42.0</ele><time>2026-04-26T10:04:49Z</time></trkpt><trkpt lat="37.44132298112196" lon="13.277270665726096"><ele>42.5</ele><time>2026-04-26T10:04:50Z</time></trkpt><trkpt lat="37.441274897691834" lon="13.277331240693234"><ele>43.0</ele><time>2026-04-26T10:04:51Z</time></trkpt><trkpt lat="37.441207193949474" lon="13.27738672588487"><ele>43.5</ele><time>2026-04-26T10:04:52Z</time></trkpt><trkpt lat="37.44114762388008" lon="13.277460871793297"><ele>44.0</ele><time>2026-04-26T10:04:53Z</time></trkpt><trkpt lat="37.44109952724859" lon="13.277540932492903"><ele>44.5</ele><time>2026-04-26T10:04:54Z</time></trkpt><trkpt lat="37.4410465910092" lon="13.277617539420298"><ele>45.0</ele><time>2026-04-26T10:04:55Z</time></trkpt><trkpt lat="37.4409938591423" lon="13.277679887016767"><ele>45.0</ele><time>2026-04-26T10:04:56Z</time></trkpt><trkpt lat="37.440941860336146" lon="13.277748258344833"><ele>45.0</ele><time>2026-04-26T10:04:57Z</time></trkpt><trkpt lat="37.440852540377705" lon="13.2778627149256"><ele>45.0</ele><time>2026-04-26T10:04:59Z</time></trkpt><trkpt lat="37.44079743424041" lon="13.277938133787824"><ele>45.0</ele><time>2026-04-26T10:05:00Z</time></trkpt><trkpt lat="37.44074268204894" lon="13.278009589235163"><ele>45.0</ele><time>2026-04-26T10:05:01Z</time></trkpt><trkpt lat="37.44068853419339" lon="13.27807005719908"><ele>45.0</ele><time>2026-04-26T10:05:02Z</time></trkpt><trkpt lat="37.44062860078863" lon="13.278145114638248"><ele>45.14285714285714</ele><time>2026-04-26T10:05:03Z</time></trkpt><trkpt lat="37.4405837610447" lon="13.278202444330148"><ele>45.28571428571429</ele><time>2026-04-26T10:05:04Z</time></trkpt><trkpt lat="37.44053514089531" lon="13.278262403174363"><ele>45.42857142857143</ele><time>2026-04-26T10:05:05Z</time></trkpt><trkpt lat="37.44048072916091" lon="13.278332756809503"><ele>45.57142857142857</ele><time>2026-04-26T10:05:06Z</time></trkpt><trkpt lat="37.44043508127958" lon="13.27839272704621"><ele>45.71428571428571</ele><time>2026-04-26T10:05:07Z</time></trkpt><trkpt lat="37.44038238018775" lon="13.27845639721618"><ele>45.85714285714286</ele><time>2026-04-26T10:05:08Z</time></trkpt><trkpt lat="37.44032868820527" lon="13.27852417478302"><ele>46.0</ele><time>2026-04-26T10:05:09Z</time></trkpt><trkpt lat="37.44027775730079" lon="13.278589627824907"><ele>46.0</ele><time>2026-04-26T10:05:10Z</time></trkpt><trkpt lat="37.44022993916602" lon="13.27866700381065"><ele>46.0</ele><time>2026-04-26T10:05:11Z</time></trkpt><trkpt lat="37.44017525425346" lon="13.278753408704027"><ele>46.0</ele><time>2026-04-26T10:05:12Z</time></trkpt><trkpt lat="37.44011285082866" lon="13.27880615476937"><ele>46.0</ele><time>2026-04-26T10:05:13Z</time></trkpt><trkpt lat="37.44006284397293" lon="13.278892286710546"><ele>46.0</ele><time>2026-04-26T10:05:14Z</time></trkpt><trkpt lat="37.44000388754316" lon="13.27896612071074"><ele>46.0</ele><time>2026-04-26T10:05:15Z</time></trkpt><trkpt lat="37.439923176078615" lon="13.279030109383074"><ele>46.16666666666667</ele><time>2026-04-26T10:05:16Z</time></trkpt><trkpt lat="37.43986462745296" lon="13.279094072432054"><ele>46.333333333333336</ele><time>2026-04-26T10:05:17Z</time></trkpt><trkpt lat="37.439794019978045" lon="13.279171209325993"><ele>46.5</ele><time>2026-04-26T10:05:18Z</time></trkpt><trkpt lat="37.439731749785985" lon="13.279239237603914"><ele>46.666666666666664</ele><time>2026-04-26T10:05:19Z</time></trkpt><trkpt lat="37.43966502402375" lon="13.279312133492532"><ele>46.83333333333333</ele><time>2026-04-26T10:05:20Z</time></trkpt><trkpt lat="37.43962153538024" lon="13.279425692903322"><ele>47.0</ele><time>2026-04-26T10:05:21Z</time></trkpt><trkpt lat="37.43956828322029" lon="13.279494085499094"><ele>47.0</ele><time>2026-04-26T10:05:22Z</time></trkpt><trkpt lat="37.43951878468802" lon="13.279552468920937"><ele>47.0</ele><time>2026-04-26T10:05:23Z</time></trkpt><trkpt lat="37.43947114040233" lon="13.27961335095273"><ele>47.0</ele><time>2026-04-26T10:05:24Z</time></trkpt><trkpt lat="37.439423300380085" lon="13.279673863075029"><ele>47.0</ele><time>2026-04-26T10:05:25Z</time></trkpt><trkpt lat="37.43938183319473" lon="13.279733608805119"><ele>47.0</ele><time>2026-04-26T10:05:26Z</time></trkpt><trkpt lat="37.43930493395113" lon="13.279830609930338"><ele>47.0</ele><time>2026-04-26T10:05:28Z</time></trkpt><trkpt lat="37.43922700888279" lon="13.279932250199304"><ele>47.0</ele><time>2026-04-26T10:05:30Z</time></trkpt><trkpt lat="37.43918181989213" lon="13.279998336030093"><ele>47.0</ele><time>2026-04-26T10:05:31Z</time></trkpt><trkpt lat="37.43913196856707" lon="13.280066232707412"><ele>47.0</ele><time>2026-04-26T10:05:32Z</time></trkpt><trkpt lat="37.439079630708115" lon="13.280129775148136"><ele>47.0</ele><time>2026-04-26T10:05:33Z</time></trkpt><trkpt lat="37.43903034694032" lon="13.28019553372065"><ele>47.0</ele><time>2026-04-26T10:05:34Z</time></trkpt><trkpt lat="37.438975625744085" lon="13.280268625260026"><ele>47.0</ele><time>2026-04-26T10:05:35Z</time></trkpt><trkpt lat="37.43892105277446" lon="13.280333808646494"><ele>47.0</ele><time>2026-04-26T10:05:36Z</time></trkpt><trkpt lat="37.438863878262005" lon="13.280415105619875"><ele>47.0</ele><time>2026-04-26T10:05:37Z</time></trkpt><trkpt lat="37.43881408161421" lon="13.280485105505807"><ele>47.0</ele><time>2026-04-26T10:05:38Z</time></trkpt><trkpt lat="37.438772362851836" lon="13.280549074059149"><ele>47.0</ele><time>2026-04-26T10:05:39Z</time></trkpt><trkpt lat="37.43870869673824" lon="13.280637995530148"><ele>47.0</ele><time>2026-04-26T10:05:41Z</time></trkpt><trkpt lat="37.43864264316858" lon="13.280731431416427"><ele>47.0</ele><time>2026-04-26T10:05:43Z</time></trkpt><trkpt lat="37.438537489534724" lon="13.280848622763283"><ele>46.33333333333333</ele><time>2026-04-26T10:05:45Z</time></trkpt><trkpt lat="37.43848162583905" lon="13.280925852835376"><ele>45.666666666666664</ele><time>2026-04-26T10:05:46Z</time></trkpt><trkpt lat="37.438422245148416" lon="13.280991542673107"><ele>45.0</ele><time>2026-04-26T10:05:47Z</time></trkpt><trkpt lat="37.438361639456495" lon="13.281062182816077"><ele>44.333333333333336</ele><time>2026-04-26T10:05:48Z</time></trkpt><trkpt lat="37.438304011998355" lon="13.281135207857206"><ele>43.66666666666667</ele><time>2026-04-26T10:05:49Z</time></trkpt><trkpt lat="37.438248308901045" lon="13.281208831817116"><ele>43.0</ele><time>2026-04-26T10:05:50Z</time></trkpt><trkpt lat="37.438190245965906" lon="13.281285698250972"><ele>43.0</ele><time>2026-04-26T10:05:51Z</time></trkpt><trkpt lat="37.43813901682857" lon="13.281347554630878"><ele>43.0</ele><time>2026-04-26T10:05:52Z</time></trkpt><trkpt lat="37.43808700222581" lon="13.281418990038283"><ele>43.0</ele><time>2026-04-26T10:05:53Z</time></trkpt><trkpt lat="37.437822056136554" lon="13.281302010005627"><ele>43.0</ele><time>2026-04-26T10:05:54Z</time></trkpt><trkpt lat="37.43777462357758" lon="13.281387703067969"><ele>42.599999999999994</ele><time>2026-04-26T10:05:55Z</time></trkpt><trkpt lat="37.43773551149359" lon="13.281458364136931"><ele>42.199999999999996</ele><time>2026-04-26T10:05:56Z</time></trkpt><trkpt lat="37.437657322850875" lon="13.281592908234748"><ele>41.8</ele><time>2026-04-26T10:05:58Z</time></trkpt><trkpt lat="37.43760738338664" lon="13.28167710009641"><ele>41.4</ele><time>2026-04-26T10:05:59Z</time></trkpt><trkpt lat="37.437534543051726" lon="13.281791088824576"><ele>41.0</ele><time>2026-04-26T10:06:01Z</time></trkpt><trkpt lat="37.43747638274521" lon="13.281879912184555"><ele>41.0</ele><time>2026-04-26T10:06:03Z</time></trkpt><trkpt lat="37.43740093719959" lon="13.281885685649753"><ele>41.0</ele><time>2026-04-26T10:06:31Z</time></trkpt><trkpt lat="37.43732896167189" lon="13.281952565053958"><ele>41.0</ele><time>2026-04-26T10:06:34.999Z</time></trkpt><trkpt lat="37.43727720420749" lon="13.282011625087105"><ele>41.0</ele><time>2026-04-26T10:06:36.999Z</time></trkpt><trkpt lat="37.437240301792166" lon="13.282101765360391"><ele>41.0</ele><time>2026-04-26T10:06:38.999Z</time></trkpt><trkpt lat="37.43719674245521" lon="13.282200853658402"><ele>41.0</ele><time>2026-04-26T10:06:40.999Z</time></trkpt><trkpt lat="37.437111768124716" lon="13.282314223634575"><ele>41.8</ele><time>2026-04-26T10:06:42.999Z</time></trkpt><trkpt lat="37.437070323469705" lon="13.282380294992459"><ele>42.599999999999994</ele><time>2026-04-26T10:06:44Z</time></trkpt><trkpt lat="37.436991424802365" lon="13.282495663848183"><ele>43.4</ele><time>2026-04-26T10:06:46Z</time></trkpt><trkpt lat="37.436902740425126" lon="13.282612226472532"><ele>44.2</ele><time>2026-04-26T10:06:48Z</time></trkpt><trkpt lat="37.43685935744355" lon="13.282677115521166"><ele>45.0</ele><time>2026-04-26T10:06:49Z</time></trkpt><trkpt lat="37.436814953356794" lon="13.282748816625586"><ele>45.0</ele><time>2026-04-26T10:06:50Z</time></trkpt><trkpt lat="37.43677216754012" lon="13.28281452171569"><ele>45.0</ele><time>2026-04-26T10:06:51Z</time></trkpt><trkpt lat="37.43669301524408" lon="13.282933744214434"><ele>45.0</ele><time>2026-04-26T10:06:53Z</time></trkpt><trkpt lat="37.43661644136554" lon="13.2830374472697"><ele>45.0</ele><time>2026-04-26T10:06:55Z</time></trkpt><trkpt lat="37.43654917641891" lon="13.283120195588102"><ele>45.0</ele><time>2026-04-26T10:06:57Z</time></trkpt><trkpt lat="37.43647522676254" lon="13.283235404383714"><ele>44.833333333333336</ele><time>2026-04-26T10:06:59Z</time></trkpt><trkpt lat="37.43643205944303" lon="13.283300221309736"><ele>44.666666666666664</ele><time>2026-04-26T10:07:00Z</time></trkpt><trkpt lat="37.436342907302105" lon="13.283425531376105"><ele>44.5</ele><time>2026-04-26T10:07:02Z</time></trkpt><trkpt lat="37.43629654022911" lon="13.283490765202295"><ele>44.33333333333333</ele><time>2026-04-26T10:07:03Z</time></trkpt><trkpt lat="37.43625246033362" lon="13.283549993532905"><ele>44.166666666666664</ele><time>2026-04-26T10:07:04Z</time></trkpt><trkpt lat="37.43620510445482" lon="13.283610496512042"><ele>44.0</ele><time>2026-04-26T10:07:05Z</time></trkpt><trkpt lat="37.4361512809099" lon="13.28368450675636"><ele>44.0</ele><time>2026-04-26T10:07:06Z</time></trkpt><trkpt lat="37.4360957708166" lon="13.283759519807287"><ele>44.0</ele><time>2026-04-26T10:07:07Z</time></trkpt><trkpt lat="37.436045071204944" lon="13.28382041281352"><ele>44.0</ele><time>2026-04-26T10:07:08Z</time></trkpt><trkpt lat="37.43598981284156" lon="13.28389493736375"><ele>44.0</ele><time>2026-04-26T10:07:09Z</time></trkpt><trkpt lat="37.43593832005921" lon="13.283975776054541"><ele>44.0</ele><time>2026-04-26T10:07:10Z</time></trkpt><trkpt lat="37.43587502507358" lon="13.284063378238885"><ele>44.0</ele><time>2026-04-26T10:07:11Z</time></trkpt><trkpt lat="37.43581946219447" lon="13.284165956221019"><ele>45.0</ele><time>2026-04-26T10:07:12Z</time></trkpt><trkpt lat="37.43576550819882" lon="13.284244877242823"><ele>46.0</ele><time>2026-04-26T10:07:13Z</time></trkpt><trkpt lat="37.435713191414166" lon="13.284321403374319"><ele>47.0</ele><time>2026-04-26T10:07:14Z</time></trkpt><trkpt lat="37.43566377186183" lon="13.284393691609901"><ele>48.0</ele><time>2026-04-26T10:07:15Z</time></trkpt><trkpt lat="37.435620148373374" lon="13.28445750169575"><ele>49.00000000000001</ele><time>2026-04-26T10:07:16Z</time></trkpt><trkpt lat="37.43553207880357" lon="13.284586691054077"><ele>50.0</ele><time>2026-04-26T10:07:18Z</time></trkpt><trkpt lat="37.43547810957638" lon="13.28466617215458"><ele>49.66666666666667</ele><time>2026-04-26T10:07:19Z</time></trkpt><trkpt lat="37.43542081357012" lon="13.284750552695309"><ele>49.333333333333336</ele><time>2026-04-26T10:07:20Z</time></trkpt><trkpt lat="37.43536545230942" lon="13.284832083817241"><ele>49.0</ele><time>2026-04-26T10:07:21Z</time></trkpt><trkpt lat="37.435308756960644" lon="13.284915579685359"><ele>48.66666666666667</ele><time>2026-04-26T10:07:22Z</time></trkpt><trkpt lat="37.43524865312785" lon="13.285004095664723"><ele>48.333333333333336</ele><time>2026-04-26T10:07:23Z</time></trkpt><trkpt lat="37.435195228069695" lon="13.285082775267247"><ele>48.0</ele><time>2026-04-26T10:07:24Z</time></trkpt><trkpt lat="37.43514788547965" lon="13.285152497304662"><ele>49.0</ele><time>2026-04-26T10:07:25Z</time></trkpt><trkpt lat="37.43505270609729" lon="13.28529148038149"><ele>50.0</ele><time>2026-04-26T10:07:27Z</time></trkpt><trkpt lat="37.435009808342" lon="13.285353653151729"><ele>51.0</ele><time>2026-04-26T10:07:28Z</time></trkpt><trkpt lat="37.43496520917071" lon="13.285418297153038"><ele>52.0</ele><time>2026-04-26T10:07:29Z</time></trkpt><trkpt lat="37.434914363335984" lon="13.285491989499887"><ele>53.0</ele><time>2026-04-26T10:07:29.999Z</time></trkpt><trkpt lat="37.43487142840643" lon="13.285554216364497"><ele>54.0</ele><time>2026-04-26T10:07:30.999Z</time></trkpt><trkpt lat="37.434822792072445" lon="13.285625067952544"><ele>54.6</ele><time>2026-04-26T10:07:31.999Z</time></trkpt><trkpt lat="37.43475207312575" lon="13.28572964495992"><ele>55.2</ele><time>2026-04-26T10:07:33.999Z</time></trkpt><trkpt lat="37.43467913195949" lon="13.285837508043334"><ele>55.800000000000004</ele><time>2026-04-26T10:07:35.999Z</time></trkpt><trkpt lat="37.43463756017428" lon="13.285898983140791"><ele>56.400000000000006</ele><time>2026-04-26T10:07:36.999Z</time></trkpt><trkpt lat="37.43455939132709" lon="13.286014231735278"><ele>57.0</ele><time>2026-04-26T10:07:38.999Z</time></trkpt><trkpt lat="37.434495828736424" lon="13.286107063788888"><ele>55.8</ele><time>2026-04-26T10:07:40.999Z</time></trkpt><trkpt lat="37.43444083217055" lon="13.286187385283004"><ele>54.6</ele><time>2026-04-26T10:07:42.999Z</time></trkpt><trkpt lat="37.43436170426133" lon="13.28630295024055"><ele>53.4</ele><time>2026-04-26T10:07:44.999Z</time></trkpt><trkpt lat="37.43429168442813" lon="13.286405212961288"><ele>52.199999999999996</ele><time>2026-04-26T10:07:46.999Z</time></trkpt><trkpt lat="37.43421171392853" lon="13.286522008509195"><ele>51.0</ele><time>2026-04-26T10:07:48.999Z</time></trkpt><trkpt lat="37.43413143253048" lon="13.286639258068616"><ele>51.0</ele><time>2026-04-26T10:07:50.999Z</time></trkpt><trkpt lat="37.43407616424656" lon="13.286719976423678"><ele>51.0</ele><time>2026-04-26T10:07:52.999Z</time></trkpt><trkpt lat="37.43400156481671" lon="13.286828927642734"><ele>51.0</ele><time>2026-04-26T10:07:55Z</time></trkpt><trkpt lat="37.433952999850575" lon="13.28689985590153"><ele>51.0</ele><time>2026-04-26T10:07:56Z</time></trkpt><trkpt lat="37.433892493340004" lon="13.286970074765875"><ele>51.0</ele><time>2026-04-26T10:07:57Z</time></trkpt><trkpt lat="37.43382830807787" lon="13.28704149363243"><ele>51.0</ele><time>2026-04-26T10:07:58Z</time></trkpt><trkpt lat="37.43376591024576" lon="13.28710706190988"><ele>49.0</ele><time>2026-04-26T10:07:59Z</time></trkpt><trkpt lat="37.43370678146286" lon="13.287165563583946"><ele>47.0</ele><time>2026-04-26T10:08:00Z</time></trkpt><trkpt lat="37.43364193597996" lon="13.28722772677244"><ele>45.0</ele><time>2026-04-26T10:08:01Z</time></trkpt><trkpt lat="37.43320877726359" lon="13.286889655874733"><ele>45.0</ele><time>2026-04-26T10:08:02Z</time></trkpt><trkpt lat="37.43313096780031" lon="13.286928942632734"><ele>45.0</ele><time>2026-04-26T10:08:03Z</time></trkpt><trkpt lat="37.433048803475785" lon="13.286974704584726"><ele>45.0</ele><time>2026-04-26T10:08:04Z</time></trkpt><trkpt lat="37.432966045925816" lon="13.287031227488212"><ele>45.0</ele><time>2026-04-26T10:08:05Z</time></trkpt><trkpt lat="37.43288806418367" lon="13.28707706375963"><ele>45.0</ele><time>2026-04-26T10:08:06Z</time></trkpt><trkpt lat="37.43282181992325" lon="13.287098719758065"><ele>45.0</ele><time>2026-04-26T10:08:07Z</time></trkpt><trkpt lat="37.43271865289786" lon="13.28715680727703"><ele>44.333333333333336</ele><time>2026-04-26T10:08:09Z</time></trkpt><trkpt lat="37.432654265142936" lon="13.287185386889902"><ele>43.666666666666664</ele><time>2026-04-26T10:08:10Z</time></trkpt><trkpt lat="37.432586543253514" lon="13.287221907814867"><ele>43.0</ele><time>2026-04-26T10:08:11Z</time></trkpt><trkpt lat="37.432513348571504" lon="13.287262197953144"><ele>42.33333333333333</ele><time>2026-04-26T10:08:12Z</time></trkpt><trkpt lat="37.43243688255325" lon="13.287298650123356"><ele>41.666666666666664</ele><time>2026-04-26T10:08:13Z</time></trkpt><trkpt lat="37.4323598345767" lon="13.287338845699752"><ele>41.0</ele><time>2026-04-26T10:08:14Z</time></trkpt><trkpt lat="37.43228401453198" lon="13.287385811245867"><ele>41.0</ele><time>2026-04-26T10:08:15Z</time></trkpt><trkpt lat="37.43221797186008" lon="13.28742494976598"><ele>41.0</ele><time>2026-04-26T10:08:16Z</time></trkpt><trkpt lat="37.43214906450567" lon="13.287462462632515"><ele>41.0</ele><time>2026-04-26T10:08:17Z</time></trkpt><trkpt lat="37.43206917622188" lon="13.287495659844344"><ele>41.0</ele><time>2026-04-26T10:08:18Z</time></trkpt><trkpt lat="37.431995199380296" lon="13.287524934009898"><ele>41.0</ele><time>2026-04-26T10:08:19Z</time></trkpt><trkpt lat="37.43189268431393" lon="13.287573869314404"><ele>41.0</ele><time>2026-04-26T10:08:21Z</time></trkpt><trkpt lat="37.43182251303692" lon="13.287612015525783"><ele>40.285714285714285</ele><time>2026-04-26T10:08:23Z</time></trkpt><trkpt lat="37.431754981583296" lon="13.287639349969288"><ele>39.57142857142857</ele><time>2026-04-26T10:08:26Z</time></trkpt><trkpt lat="37.431695383956246" lon="13.287677018636419"><ele>38.85714285714286</ele><time>2026-04-26T10:08:34Z</time></trkpt><trkpt lat="37.431624440624034" lon="13.287696767250967"><ele>38.14285714285714</ele><time>2026-04-26T10:08:37Z</time></trkpt><trkpt lat="37.431564976505676" lon="13.287730600997634"><ele>37.42857142857143</ele><time>2026-04-26T10:08:38.999Z</time></trkpt><trkpt lat="37.431486840811125" lon="13.287795800910901"><ele>36.714285714285715</ele><time>2026-04-26T10:08:40.999Z</time></trkpt><trkpt lat="37.43142678801501" lon="13.287824038006837"><ele>36.0</ele><time>2026-04-26T10:08:41.999Z</time></trkpt><trkpt lat="37.431330118503496" lon="13.287864094480353"><ele>36.00000000000001</ele><time>2026-04-26T10:08:43.999Z</time></trkpt><trkpt lat="37.431267625490364" lon="13.287899615616936"><ele>36.0</ele><time>2026-04-26T10:08:44.999Z</time></trkpt><trkpt lat="37.43121427784358" lon="13.287951378766298"><ele>36.0</ele><time>2026-04-26T10:08:45.999Z</time></trkpt><trkpt lat="37.431151241764" lon="13.287980496485384"><ele>36.0</ele><time>2026-04-26T10:08:46.999Z</time></trkpt><trkpt lat="37.431088532454" lon="13.288009394919495"><ele>36.0</ele><time>2026-04-26T10:08:47.999Z</time></trkpt><trkpt lat="37.43102018290001" lon="13.288043360955946"><ele>36.00000000000001</ele><time>2026-04-26T10:08:48.999Z</time></trkpt><trkpt lat="37.43096104686342" lon="13.288075336809026"><ele>36.0</ele><time>2026-04-26T10:08:49.999Z</time></trkpt><trkpt lat="37.43089994365013" lon="13.288119540696421"><ele>36.5</ele><time>2026-04-26T10:08:50.999Z</time></trkpt><trkpt lat="37.43083163499574" lon="13.288165271953964"><ele>37.0</ele><time>2026-04-26T10:08:51.999Z</time></trkpt><trkpt lat="37.430764652975995" lon="13.288205710419575"><ele>37.5</ele><time>2026-04-26T10:08:52.999Z</time></trkpt><trkpt lat="37.43069723838604" lon="13.28824403818604"><ele>38.0</ele><time>2026-04-26T10:08:53.999Z</time></trkpt><trkpt lat="37.430619776433346" lon="13.288282392006723"><ele>38.5</ele><time>2026-04-26T10:08:54.999Z</time></trkpt><trkpt lat="37.43055413262356" lon="13.288317772815025"><ele>39.0</ele><time>2026-04-26T10:08:55.999Z</time></trkpt><trkpt lat="37.43048222752743" lon="13.288342130546429"><ele>39.333333333333336</ele><time>2026-04-26T10:08:56.999Z</time></trkpt><trkpt lat="37.43041771080736" lon="13.288372874450207"><ele>39.666666666666664</ele><time>2026-04-26T10:08:57.999Z</time></trkpt><trkpt lat="37.43034343422227" lon="13.288410359196442"><ele>40.0</ele><time>2026-04-26T10:08:58.999Z</time></trkpt><trkpt lat="37.43026848099242" lon="13.288448185428566"><ele>40.33333333333333</ele><time>2026-04-26T10:08:59.999Z</time></trkpt><trkpt lat="37.430187710702484" lon="13.28848874272069"><ele>40.666666666666664</ele><time>2026-04-26T10:09:00.999Z</time></trkpt><trkpt lat="37.430117911794504" lon="13.288522763410336"><ele>41.0</ele><time>2026-04-26T10:09:01.999Z</time></trkpt><trkpt lat="37.43005235168511" lon="13.288554718082038"><ele>41.0</ele><time>2026-04-26T10:09:02.999Z</time></trkpt><trkpt lat="37.429979199895214" lon="13.288590372994324"><ele>41.0</ele><time>2026-04-26T10:09:03.999Z</time></trkpt><trkpt lat="37.42991282192365" lon="13.288622839262604"><ele>41.0</ele><time>2026-04-26T10:09:04.999Z</time></trkpt><trkpt lat="37.429833943538995" lon="13.288662301455817"><ele>41.0</ele><time>2026-04-26T10:09:05.999Z</time></trkpt><trkpt lat="37.42977322158791" lon="13.288711423343761"><ele>41.0</ele><time>2026-04-26T10:09:06.999Z</time></trkpt><trkpt lat="37.42970658430508" lon="13.288753707352612"><ele>41.0</ele><time>2026-04-26T10:09:07.999Z</time></trkpt><trkpt lat="37.429642657487975" lon="13.288805425122368"><ele>42.166666666666664</ele><time>2026-04-26T10:09:08.999Z</time></trkpt><trkpt lat="37.42957780495338" lon="13.288870386159402"><ele>43.33333333333333</ele><time>2026-04-26T10:09:09.999Z</time></trkpt><trkpt lat="37.42952970911839" lon="13.288953717054726"><ele>44.5</ele><time>2026-04-26T10:09:10.999Z</time></trkpt><trkpt lat="37.429499885922105" lon="13.289044832433628"><ele>45.666666666666664</ele><time>2026-04-26T10:09:11.999Z</time></trkpt><trkpt lat="37.42948396773419" lon="13.289132717857763"><ele>46.833333333333336</ele><time>2026-04-26T10:09:12.999Z</time></trkpt><trkpt lat="37.42947408836979" lon="13.289225301598128"><ele>48.0</ele><time>2026-04-26T10:09:13.999Z</time></trkpt><trkpt lat="37.42946937754729" lon="13.28930621405778"><ele>49.8</ele><time>2026-04-26T10:09:14.999Z</time></trkpt><trkpt lat="37.42944338883857" lon="13.289459107013348"><ele>51.599999999999994</ele><time>2026-04-26T10:09:16.999Z</time></trkpt><trkpt lat="37.4294309049702" lon="13.28962019687027"><ele>53.400000000000006</ele><time>2026-04-26T10:09:18.999Z</time></trkpt><trkpt lat="37.429426582277515" lon="13.289714193234252"><ele>55.2</ele><time>2026-04-26T10:09:19.999Z</time></trkpt><trkpt lat="37.429429742192546" lon="13.28982710712398"><ele>57.0</ele><time>2026-04-26T10:09:20.999Z</time></trkpt><trkpt lat="37.42942995037862" lon="13.289918113476983"><ele>58.25</ele><time>2026-04-26T10:09:21.999Z</time></trkpt><trkpt lat="37.4294231445478" lon="13.290045123843104"><ele>59.5</ele><time>2026-04-26T10:09:22.999Z</time></trkpt><trkpt lat="37.42940765714838" lon="13.290223124560114"><ele>60.75</ele><time>2026-04-26T10:09:24.999Z</time></trkpt><trkpt lat="37.42937705464183" lon="13.290398234130226"><ele>62.0</ele><time>2026-04-26T10:09:27Z</time></trkpt><trkpt lat="37.429366619992464" lon="13.290490234434419"><ele>62.00000000000001</ele><time>2026-04-26T10:09:28Z</time></trkpt><trkpt lat="37.42935951185771" lon="13.290579194470185"><ele>62.0</ele><time>2026-04-26T10:09:29Z</time></trkpt><trkpt lat="37.429355345931164" lon="13.290672009247547"><ele>62.0</ele><time>2026-04-26T10:09:30Z</time></trkpt><trkpt lat="37.42935074838846" lon="13.290759040183158"><ele>62.0</ele><time>2026-04-26T10:09:31Z</time></trkpt><trkpt lat="37.42933723737002" lon="13.290841171168621"><ele>62.00000000000001</ele><time>2026-04-26T10:09:32Z</time></trkpt><trkpt lat="37.42929400074934" lon="13.290982138421697"><ele>62.0</ele><time>2026-04-26T10:09:34Z</time></trkpt><trkpt lat="37.429209137814524" lon="13.291092397304926"><ele>61.714285714285715</ele><time>2026-04-26T10:09:36Z</time></trkpt><trkpt lat="37.42914974701474" lon="13.291136216916236"><ele>61.42857142857143</ele><time>2026-04-26T10:09:37Z</time></trkpt><trkpt lat="37.42908579403102" lon="13.291146512763136"><ele>61.142857142857146</ele><time>2026-04-26T10:09:38Z</time></trkpt><trkpt lat="37.429027618892384" lon="13.291182407433803"><ele>60.85714285714286</ele><time>2026-04-26T10:09:39Z</time></trkpt><trkpt lat="37.428962236871406" lon="13.291168349763176"><ele>60.57142857142857</ele><time>2026-04-26T10:09:40Z</time></trkpt><trkpt lat="37.42890007231684" lon="13.291188322048153"><ele>60.28571428571429</ele><time>2026-04-26T10:09:41Z</time></trkpt><trkpt lat="37.42883114933852" lon="13.291191728284616"><ele>60.0</ele><time>2026-04-26T10:09:42Z</time></trkpt><trkpt lat="37.428714983252604" lon="13.291216004329312"><ele>60.0</ele><time>2026-04-26T10:09:44Z</time></trkpt><trkpt lat="37.428621236621346" lon="13.29125020684305"><ele>60.0</ele><time>2026-04-26T10:09:46Z</time></trkpt><trkpt lat="37.42853828609771" lon="13.291294628874352"><ele>60.0</ele><time>2026-04-26T10:09:48Z</time></trkpt><trkpt lat="37.42846933917642" lon="13.291373240476243"><ele>60.0</ele><time>2026-04-26T10:09:50Z</time></trkpt><trkpt lat="37.42840319719813" lon="13.291463422835667"><ele>60.0</ele><time>2026-04-26T10:09:52Z</time></trkpt><trkpt lat="37.428335261949655" lon="13.2915716638586"><ele>59.2</ele><time>2026-04-26T10:09:54Z</time></trkpt><trkpt lat="37.428263656059315" lon="13.29166877563299"><ele>58.4</ele><time>2026-04-26T10:09:56Z</time></trkpt><trkpt lat="37.42820490022693" lon="13.291762105145429"><ele>57.599999999999994</ele><time>2026-04-26T10:09:58Z</time></trkpt><trkpt lat="37.42815661250962" lon="13.29186904427355"><ele>56.8</ele><time>2026-04-26T10:10:00Z</time></trkpt><trkpt lat="37.42812653999821" lon="13.291977669445334"><ele>56.0</ele><time>2026-04-26T10:10:02Z</time></trkpt><trkpt lat="37.42809096066458" lon="13.292077120363723"><ele>56.0</ele><time>2026-04-26T10:10:04Z</time></trkpt><trkpt lat="37.42805935704837" lon="13.292165810841725"><ele>56.0</ele><time>2026-04-26T10:10:06Z</time></trkpt><trkpt lat="37.42803225318024" lon="13.292251873907981"><ele>56.0</ele><time>2026-04-26T10:10:08Z</time></trkpt><trkpt lat="37.42800616021153" lon="13.29232590044272"><ele>56.0</ele><time>2026-04-26T10:10:10Z</time></trkpt><trkpt lat="37.42797685545262" lon="13.292404035377315"><ele>56.0</ele><time>2026-04-26T10:10:13Z</time></trkpt><trkpt lat="37.42794436589255" lon="13.2924859336224"><ele>56.0</ele><time>2026-04-26T10:10:21Z</time></trkpt><trkpt lat="37.42789592399483" lon="13.2925530053681"><ele>56.0</ele><time>2026-04-26T10:10:24Z</time></trkpt><trkpt lat="37.427849155951456" lon="13.292658269414813"><ele>54.4</ele><time>2026-04-26T10:10:26Z</time></trkpt><trkpt lat="37.427774753667414" lon="13.292741152645608"><ele>52.8</ele><time>2026-04-26T10:10:28Z</time></trkpt><trkpt lat="37.42770647308579" lon="13.292821424315733"><ele>51.199999999999996</ele><time>2026-04-26T10:10:30Z</time></trkpt><trkpt lat="37.42762399444135" lon="13.292902753778305"><ele>49.599999999999994</ele><time>2026-04-26T10:10:32Z</time></trkpt><trkpt lat="37.42753632043096" lon="13.292991936714603"><ele>48.0</ele><time>2026-04-26T10:10:34Z</time></trkpt><trkpt lat="37.42745240334701" lon="13.293090403925703"><ele>47.4</ele><time>2026-04-26T10:10:36Z</time></trkpt><trkpt lat="37.42737786421102" lon="13.293161754977934"><ele>46.8</ele><time>2026-04-26T10:10:38Z</time></trkpt><trkpt lat="37.427295998397554" lon="13.293253855299879"><ele>46.2</ele><time>2026-04-26T10:10:40Z</time></trkpt><trkpt lat="37.42720747781827" lon="13.293337022233668"><ele>45.6</ele><time>2026-04-26T10:10:42Z</time></trkpt><trkpt lat="37.42711979719966" lon="13.293434101831107"><ele>45.0</ele><time>2026-04-26T10:10:44Z</time></trkpt><trkpt lat="37.427050173176674" lon="13.29352705254421"><ele>43.8</ele><time>2026-04-26T10:10:45.999Z</time></trkpt><trkpt lat="37.42697473607161" lon="13.293615050565489"><ele>42.6</ele><time>2026-04-26T10:10:47.999Z</time></trkpt><trkpt lat="37.42690187159152" lon="13.29369429009845"><ele>41.4</ele><time>2026-04-26T10:10:49.999Z</time></trkpt><trkpt lat="37.426822305257744" lon="13.293764433276026"><ele>40.2</ele><time>2026-04-26T10:10:51.999Z</time></trkpt><trkpt lat="37.42674074275389" lon="13.293853182264382"><ele>39.0</ele><time>2026-04-26T10:10:53.999Z</time></trkpt><trkpt lat="37.42666396911433" lon="13.293935877060095"><ele>38.8</ele><time>2026-04-26T10:10:55.999Z</time></trkpt><trkpt lat="37.426591600979094" lon="13.294015328879434"><ele>38.599999999999994</ele><time>2026-04-26T10:10:57.999Z</time></trkpt><trkpt lat="37.42650688995462" lon="13.294116837592746"><ele>38.4</ele><time>2026-04-26T10:10:59.999Z</time></trkpt><trkpt lat="37.42643160162863" lon="13.294209572647318"><ele>38.199999999999996</ele><time>2026-04-26T10:11:01.999Z</time></trkpt><trkpt lat="37.426371498676716" lon="13.294288359208965"><ele>38.0</ele><time>2026-04-26T10:11:03.999Z</time></trkpt><trkpt lat="37.42630189474515" lon="13.294405726289225"><ele>37.33333333333333</ele><time>2026-04-26T10:11:06Z</time></trkpt><trkpt lat="37.42624594933723" lon="13.294450075540654"><ele>36.666666666666664</ele><time>2026-04-26T10:11:07Z</time></trkpt><trkpt lat="37.42619606667845" lon="13.294508192332765"><ele>36.0</ele><time>2026-04-26T10:11:08Z</time></trkpt><trkpt lat="37.426138826045495" lon="13.294563670650206"><ele>35.333333333333336</ele><time>2026-04-26T10:11:09Z</time></trkpt><trkpt lat="37.42608111709162" lon="13.29461247006507"><ele>34.66666666666667</ele><time>2026-04-26T10:11:10Z</time></trkpt><trkpt lat="37.42599290877332" lon="13.294714972735969"><ele>34.0</ele><time>2026-04-26T10:11:12Z</time></trkpt><trkpt lat="37.4259423477407" lon="13.294765191393507"><ele>34.0</ele><time>2026-04-26T10:11:13Z</time></trkpt><trkpt lat="37.425885389599664" lon="13.294831710360834"><ele>34.0</ele><time>2026-04-26T10:11:14Z</time></trkpt><trkpt lat="37.42583133469743" lon="13.29490002878159"><ele>34.0</ele><time>2026-04-26T10:11:15Z</time></trkpt><trkpt lat="37.425783004401154" lon="13.294957244846303"><ele>34.0</ele><time>2026-04-26T10:11:16Z</time></trkpt><trkpt lat="37.4256910808393" lon="13.295067575390402"><ele>34.0</ele><time>2026-04-26T10:11:18Z</time></trkpt><trkpt lat="37.42560037256856" lon="13.295159286489895"><ele>34.0</ele><time>2026-04-26T10:11:20Z</time></trkpt><trkpt lat="37.42553697279506" lon="13.295207929871204"><ele>34.0</ele><time>2026-04-26T10:11:22Z</time></trkpt><trkpt lat="37.42543343505791" lon="13.295240864475682"><ele>34.0</ele><time>2026-04-26T10:11:38Z</time></trkpt><trkpt lat="37.425337451931554" lon="13.295263161753134"><ele>34.0</ele><time>2026-04-26T10:11:40Z</time></trkpt><trkpt lat="37.42524217060706" lon="13.295236716334273"><ele>34.0</ele><time>2026-04-26T10:11:42Z</time></trkpt><trkpt lat="37.42515157219688" lon="13.29516006024983"><ele>32.2</ele><time>2026-04-26T10:11:44Z</time></trkpt><trkpt lat="37.42506359483606" lon="13.29507944928403"><ele>30.4</ele><time>2026-04-26T10:11:46Z</time></trkpt><trkpt lat="37.424955228494646" lon="13.294974168397154"><ele>28.6</ele><time>2026-04-26T10:11:48Z</time></trkpt><trkpt lat="37.424897346279685" lon="13.294917589697969"><ele>26.8</ele><time>2026-04-26T10:11:49Z</time></trkpt><trkpt lat="37.42484137189521" lon="13.294862875865222"><ele>25.0</ele><time>2026-04-26T10:11:50Z</time></trkpt><trkpt lat="37.42478779352662" lon="13.294810504089295"><ele>24.8</ele><time>2026-04-26T10:11:51Z</time></trkpt><trkpt lat="37.42469579998704" lon="13.294720582255884"><ele>24.6</ele><time>2026-04-26T10:11:53Z</time></trkpt><trkpt lat="37.42460391300203" lon="13.294630782735226"><ele>24.4</ele><time>2026-04-26T10:11:55Z</time></trkpt><trkpt lat="37.42455333548473" lon="13.29458136763284"><ele>24.2</ele><time>2026-04-26T10:11:56Z</time></trkpt><trkpt lat="37.42445968024944" lon="13.294489864861388"><ele>24.0</ele><time>2026-04-26T10:11:58Z</time></trkpt><trkpt lat="37.42436944336767" lon="13.294406352805906"><ele>22.833333333333332</ele><time>2026-04-26T10:12:00Z</time></trkpt><trkpt lat="37.42426783831269" lon="13.294337998589826"><ele>21.666666666666668</ele><time>2026-04-26T10:12:02Z</time></trkpt><trkpt lat="37.424202229983116" lon="13.29424834603723"><ele>20.5</ele><time>2026-04-26T10:12:04Z</time></trkpt><trkpt lat="37.42414217441406" lon="13.294203925537714"><ele>19.333333333333336</ele><time>2026-04-26T10:12:07Z</time></trkpt><trkpt lat="37.424197282060746" lon="13.294242990204"><ele>18.166666666666668</ele><time>2026-04-26T10:12:51.999Z</time></trkpt><trkpt lat="37.42426478791812" lon="13.294314942087702"><ele>17.0</ele><time>2026-04-26T10:13:14Z</time></trkpt><trkpt lat="37.42421063662607" lon="13.294369027035085"><ele>17.0</ele><time>2026-04-26T10:13:15Z</time></trkpt><trkpt lat="37.424363306587956" lon="13.294419418773513"><ele>17.0</ele><time>2026-04-26T10:13:16Z</time></trkpt><trkpt lat="37.424452574579774" lon="13.294508230435"><ele>17.0</ele><time>2026-04-26T10:13:18Z</time></trkpt><trkpt lat="37.42454344660715" lon="13.294599625662249"><ele>17.0</ele><time>2026-04-26T10:13:20Z</time></trkpt><trkpt lat="37.42459506100308" lon="13.29464970226453"><ele>18.4</ele><time>2026-04-26T10:13:21Z</time></trkpt><trkpt lat="37.424683703922554" lon="13.294740838195967"><ele>19.799999999999997</ele><time>2026-04-26T10:13:23Z</time></trkpt><trkpt lat="37.42473780735223" lon="13.29479172155822"><ele>21.2</ele><time>2026-04-26T10:13:24Z</time></trkpt><trkpt lat="37.424829274787854" lon="13.294883144485288"><ele>22.599999999999998</ele><time>2026-04-26T10:13:26Z</time></trkpt><trkpt lat="37.42487796375762" lon="13.294937927698355"><ele>24.0</ele><time>2026-04-26T10:13:27Z</time></trkpt><trkpt lat="37.424971480930786" lon="13.29503628382273"><ele>24.166666666666668</ele><time>2026-04-26T10:13:29Z</time></trkpt><trkpt lat="37.425072185614326" lon="13.29513249654337"><ele>24.333333333333336</ele><time>2026-04-26T10:13:31Z</time></trkpt><trkpt lat="37.42512753751" lon="13.29518016194806"><ele>24.5</ele><time>2026-04-26T10:13:32Z</time></trkpt><trkpt lat="37.42518069749987" lon="13.295225774118634"><ele>24.666666666666668</ele><time>2026-04-26T10:13:33Z</time></trkpt><trkpt lat="37.42523621915113" lon="13.295263210806729"><ele>24.833333333333336</ele><time>2026-04-26T10:13:34Z</time></trkpt><trkpt lat="37.425296597562706" lon="13.295285789865698"><ele>25.0</ele><time>2026-04-26T10:13:35Z</time></trkpt><trkpt lat="37.425365234033734" lon="13.295286482001151"><ele>25.0</ele><time>2026-04-26T10:13:36Z</time></trkpt><trkpt lat="37.425474800290964" lon="13.295251862108529"><ele>25.0</ele><time>2026-04-26T10:13:38Z</time></trkpt><trkpt lat="37.42553907649378" lon="13.295237474926575"><ele>25.0</ele><time>2026-04-26T10:13:40Z</time></trkpt><trkpt lat="37.42562171641628" lon="13.295172301091068"><ele>25.0</ele><time>2026-04-26T10:13:43Z</time></trkpt><trkpt lat="37.425705156142335" lon="13.295084843438007"><ele>25.0</ele><time>2026-04-26T10:13:45Z</time></trkpt><trkpt lat="37.42579519784814" lon="13.294983943276634"><ele>26.6</ele><time>2026-04-26T10:13:47Z</time></trkpt><trkpt lat="37.42588512944558" lon="13.294879128428079"><ele>28.2</ele><time>2026-04-26T10:13:49Z</time></trkpt><trkpt lat="37.42593220785644" lon="13.294824327553954"><ele>29.799999999999997</ele><time>2026-04-26T10:13:50Z</time></trkpt><trkpt lat="37.42602298835341" lon="13.294721088784284"><ele>31.4</ele><time>2026-04-26T10:13:52Z</time></trkpt><trkpt lat="37.42611744876341" lon="13.294631554055295"><ele>33.0</ele><time>2026-04-26T10:13:54Z</time></trkpt><trkpt lat="37.42620443518562" lon="13.294551443903007"><ele>33.0</ele><time>2026-04-26T10:13:56Z</time></trkpt><trkpt lat="37.42628800905165" lon="13.294456811672406"><ele>33.0</ele><time>2026-04-26T10:13:58Z</time></trkpt><trkpt lat="37.42635239059695" lon="13.294375248837403"><ele>33.0</ele><time>2026-04-26T10:14:00Z</time></trkpt><trkpt lat="37.426418274518056" lon="13.294286806392298"><ele>33.0</ele><time>2026-04-26T10:14:02Z</time></trkpt><trkpt lat="37.426494953845385" lon="13.294360451362246"><ele>33.0</ele><time>2026-04-26T10:14:31.001Z</time></trkpt><trkpt lat="37.426539362920856" lon="13.294417968906075"><ele>33.166666666666664</ele><time>2026-04-26T10:14:32.001Z</time></trkpt><trkpt lat="37.42659141185755" lon="13.294546291153724"><ele>33.333333333333336</ele><time>2026-04-26T10:14:34.001Z</time></trkpt><trkpt lat="37.426630311836725" lon="13.294611275085632"><ele>33.5</ele><time>2026-04-26T10:14:35.001Z</time></trkpt><trkpt lat="37.426681077309816" lon="13.294718864067173"><ele>33.66666666666667</ele><time>2026-04-26T10:14:37.001Z</time></trkpt><trkpt lat="37.426718492420804" lon="13.294803516894223"><ele>33.833333333333336</ele><time>2026-04-26T10:14:39.001Z</time></trkpt><trkpt lat="37.42676229693951" lon="13.294905108812474"><ele>34.0</ele><time>2026-04-26T10:14:41.001Z</time></trkpt><trkpt lat="37.42680045555384" lon="13.294989170646195"><ele>34.0</ele><time>2026-04-26T10:14:43.001Z</time></trkpt><trkpt lat="37.4268434515794" lon="13.29507412845043"><ele>34.0</ele><time>2026-04-26T10:14:45.001Z</time></trkpt><trkpt lat="37.426886082587785" lon="13.295162999103786"><ele>34.0</ele><time>2026-04-26T10:14:47.001Z</time></trkpt><trkpt lat="37.42694726752132" lon="13.295271039218722"><ele>34.0</ele><time>2026-04-26T10:14:49.001Z</time></trkpt><trkpt lat="37.42700346088806" lon="13.295393213843195"><ele>34.0</ele><time>2026-04-26T10:14:51.001Z</time></trkpt><trkpt lat="37.427057365357975" lon="13.2955005158447"><ele>32.4</ele><time>2026-04-26T10:14:53.001Z</time></trkpt><trkpt lat="37.42711251261579" lon="13.295618059367412"><ele>30.799999999999997</ele><time>2026-04-26T10:14:55.001Z</time></trkpt><trkpt lat="37.427178805407934" lon="13.2957541544839"><ele>29.200000000000003</ele><time>2026-04-26T10:14:57Z</time></trkpt><trkpt lat="37.427217562053826" lon="13.2958328181137"><ele>27.6</ele><time>2026-04-26T10:14:58Z</time></trkpt><trkpt lat="37.42725619790636" lon="13.295908609747748"><ele>26.0</ele><time>2026-04-26T10:14:59Z</time></trkpt><trkpt lat="37.427292276724934" lon="13.295986009200496"><ele>25.166666666666664</ele><time>2026-04-26T10:15:00Z</time></trkpt><trkpt lat="37.427324819692046" lon="13.296070630215938"><ele>24.333333333333332</ele><time>2026-04-26T10:15:01Z</time></trkpt><trkpt lat="37.42734259127535" lon="13.296152918672654"><ele>23.5</ele><time>2026-04-26T10:15:02Z</time></trkpt><trkpt lat="37.427407976891345" lon="13.29625845716562"><ele>22.666666666666664</ele><time>2026-04-26T10:15:04Z</time></trkpt><trkpt lat="37.427447892957865" lon="13.296333473129751"><ele>21.833333333333332</ele><time>2026-04-26T10:15:06Z</time></trkpt><trkpt lat="37.427472486288416" lon="13.296431592043591"><ele>21.0</ele><time>2026-04-26T10:15:12Z</time></trkpt><trkpt lat="37.427333526398634" lon="13.29657571885385"><ele>20.833333333333332</ele><time>2026-04-26T10:15:13Z</time></trkpt><trkpt lat="37.42728785364625" lon="13.296644437480499"><ele>20.666666666666668</ele><time>2026-04-26T10:15:14Z</time></trkpt><trkpt lat="37.427234771152655" lon="13.296713791615701"><ele>20.5</ele><time>2026-04-26T10:15:15Z</time></trkpt><trkpt lat="37.427186220851596" lon="13.296779418450035"><ele>20.333333333333336</ele><time>2026-04-26T10:15:16Z</time></trkpt><trkpt lat="37.42713153953468" lon="13.29685857581364"><ele>20.166666666666668</ele><time>2026-04-26T10:15:17Z</time></trkpt><trkpt lat="37.42706714182749" lon="13.296944809946186"><ele>20.0</ele><time>2026-04-26T10:15:19Z</time></trkpt><trkpt lat="37.42700133081758" lon="13.29703874594322"><ele>19.57142857142857</ele><time>2026-04-26T10:15:21Z</time></trkpt><trkpt lat="37.426962263582325" lon="13.297110934568645"><ele>19.142857142857142</ele><time>2026-04-26T10:15:22Z</time></trkpt><trkpt lat="37.426924000110226" lon="13.297188293659199"><ele>18.714285714285715</ele><time>2026-04-26T10:15:23Z</time></trkpt><trkpt lat="37.426882383688444" lon="13.297254996127126"><ele>18.285714285714285</ele><time>2026-04-26T10:15:24Z</time></trkpt><trkpt lat="37.4268406878089" lon="13.297318962847037"><ele>17.857142857142858</ele><time>2026-04-26T10:15:25Z</time></trkpt><trkpt lat="37.42679500081592" lon="13.297392649484351"><ele>17.428571428571427</ele><time>2026-04-26T10:15:26Z</time></trkpt><trkpt lat="37.4267497423217" lon="13.297459348963102"><ele>17.0</ele><time>2026-04-26T10:15:27Z</time></trkpt><trkpt lat="37.4267034324423" lon="13.29752793713826"><ele>16.833333333333336</ele><time>2026-04-26T10:15:28Z</time></trkpt><trkpt lat="37.42666178337631" lon="13.297587505995986"><ele>16.666666666666668</ele><time>2026-04-26T10:15:29Z</time></trkpt><trkpt lat="37.42661361625815" lon="13.29765584092486"><ele>16.5</ele><time>2026-04-26T10:15:30Z</time></trkpt><trkpt lat="37.42656593132784" lon="13.297727583434433"><ele>16.333333333333332</ele><time>2026-04-26T10:15:31Z</time></trkpt><trkpt lat="37.42651623576539" lon="13.297798398817651"><ele>16.166666666666664</ele><time>2026-04-26T10:15:32Z</time></trkpt><trkpt lat="37.42647229528855" lon="13.297855471345345"><ele>16.0</ele><time>2026-04-26T10:15:33Z</time></trkpt><trkpt lat="37.42639892060854" lon="13.297969604083152"><ele>15.999999999999998</ele><time>2026-04-26T10:15:35Z</time></trkpt><trkpt lat="37.426332977825396" lon="13.298064870843099"><ele>16.0</ele><time>2026-04-26T10:15:37Z</time></trkpt><trkpt lat="37.426287535667186" lon="13.29814413188514"><ele>16.0</ele><time>2026-04-26T10:15:40Z</time></trkpt><trkpt lat="37.42623661161105" lon="13.298227476647572"><ele>16.0</ele><time>2026-04-26T10:15:44Z</time></trkpt><trkpt lat="37.42617792611011" lon="13.298311973074362"><ele>15.999999999999998</ele><time>2026-04-26T10:15:47.001Z</time></trkpt><trkpt lat="37.426153465861844" lon="13.298411098575652"><ele>16.0</ele><time>2026-04-26T10:15:50.001Z</time></trkpt><trkpt lat="37.426106457712855" lon="13.298502590214325"><ele>15.333333333333332</ele><time>2026-04-26T10:15:53.001Z</time></trkpt><trkpt lat="37.426058207747374" lon="13.298580436241974"><ele>14.666666666666666</ele><time>2026-04-26T10:15:55.001Z</time></trkpt><trkpt lat="37.42599451835623" lon="13.298663504906733"><ele>14.0</ele><time>2026-04-26T10:15:57.001Z</time></trkpt><trkpt lat="37.425933669575" lon="13.298735812848733"><ele>13.333333333333332</ele><time>2026-04-26T10:15:59.001Z</time></trkpt><trkpt lat="37.42602788671066" lon="13.298668059273577"><ele>12.666666666666666</ele><time>2026-04-26T10:16:04.001Z</time></trkpt><trkpt lat="37.42604674038253" lon="13.298577259340744"><ele>12.0</ele><time>2026-04-26T10:16:05.001Z</time></trkpt><trkpt lat="37.426080648107735" lon="13.298509251702528"><ele>12.0</ele><time>2026-04-26T10:16:06.001Z</time></trkpt><trkpt lat="37.42614025212495" lon="13.298392261202936"><ele>12.0</ele><time>2026-04-26T10:16:08.001Z</time></trkpt><trkpt lat="37.42619453675317" lon="13.298251324131048"><ele>12.0</ele><time>2026-04-26T10:16:10.001Z</time></trkpt><trkpt lat="37.42627263868781" lon="13.298149330092276"><ele>12.0</ele><time>2026-04-26T10:16:12.001Z</time></trkpt><trkpt lat="37.426344664146704" lon="13.29803913421018"><ele>12.8</ele><time>2026-04-26T10:16:14.001Z</time></trkpt><trkpt lat="37.42642638642299" lon="13.297914358349272"><ele>13.6</ele><time>2026-04-26T10:16:16.001Z</time></trkpt><trkpt lat="37.42647268818583" lon="13.297851873838402"><ele>14.400000000000002</ele><time>2026-04-26T10:16:17.001Z</time></trkpt><trkpt lat="37.42652049578703" lon="13.297777121265344"><ele>15.200000000000001</ele><time>2026-04-26T10:16:18.001Z</time></trkpt><trkpt lat="37.42657497675454" lon="13.297698784555804"><ele>16.0</ele><time>2026-04-26T10:16:19.001Z</time></trkpt><trkpt lat="37.42670625061161" lon="13.297715191909615"><ele>16.0</ele><time>2026-04-26T10:16:20.001Z</time></trkpt><trkpt lat="37.426792068142156" lon="13.297590494019275"><ele>16.0</ele><time>2026-04-26T10:16:22.001Z</time></trkpt><trkpt lat="37.42684702263752" lon="13.297510641913322"><ele>16.0</ele><time>2026-04-26T10:16:23.001Z</time></trkpt><trkpt lat="37.42690412744797" lon="13.297427665274189"><ele>16.0</ele><time>2026-04-26T10:16:24.001Z</time></trkpt><trkpt lat="37.42696234826024" lon="13.297343067023839"><ele>16.0</ele><time>2026-04-26T10:16:25.001Z</time></trkpt><trkpt lat="37.42701400533684" lon="13.29726800626076"><ele>16.2</ele><time>2026-04-26T10:16:26.001Z</time></trkpt><trkpt lat="37.427062940646366" lon="13.297196900386055"><ele>16.400000000000002</ele><time>2026-04-26T10:16:27.001Z</time></trkpt><trkpt lat="37.42710614057789" lon="13.297134128351635"><ele>16.6</ele><time>2026-04-26T10:16:28.001Z</time></trkpt><trkpt lat="37.42718770708126" lon="13.29701569764616"><ele>16.8</ele><time>2026-04-26T10:16:30.001Z</time></trkpt><trkpt lat="37.427257162525166" lon="13.296915046109202"><ele>17.0</ele><time>2026-04-26T10:16:32.001Z</time></trkpt><trkpt lat="37.42730879263104" lon="13.296840226210747"><ele>17.5</ele><time>2026-04-26T10:16:33.001Z</time></trkpt><trkpt lat="37.42735599023296" lon="13.296770783032441"><ele>18.0</ele><time>2026-04-26T10:16:34.001Z</time></trkpt><trkpt lat="37.42740652022182" lon="13.29669649423104"><ele>18.5</ele><time>2026-04-26T10:16:35.001Z</time></trkpt><trkpt lat="37.427496800034795" lon="13.29656376554523"><ele>19.0</ele><time>2026-04-26T10:16:37.001Z</time></trkpt><trkpt lat="37.42754264629563" lon="13.29649636272203"><ele>19.5</ele><time>2026-04-26T10:16:38.001Z</time></trkpt><trkpt lat="37.42758410444505" lon="13.296435411269"><ele>20.0</ele><time>2026-04-26T10:16:39.001Z</time></trkpt><trkpt lat="37.42767164706874" lon="13.296306706775121"><ele>20.0</ele><time>2026-04-26T10:16:41.001Z</time></trkpt><trkpt lat="37.42772045577867" lon="13.296234948584932"><ele>20.0</ele><time>2026-04-26T10:16:42.001Z</time></trkpt><trkpt lat="37.42777239506683" lon="13.296158587842477"><ele>20.0</ele><time>2026-04-26T10:16:43.001Z</time></trkpt><trkpt lat="37.42781984039387" lon="13.296088834089385"><ele>20.0</ele><time>2026-04-26T10:16:44.001Z</time></trkpt><trkpt lat="37.42787913988191" lon="13.296001652438655"><ele>20.0</ele><time>2026-04-26T10:16:45.001Z</time></trkpt><trkpt lat="37.42792757029892" lon="13.295930450409383"><ele>20.0</ele><time>2026-04-26T10:16:46.001Z</time></trkpt><trkpt lat="37.42798239425709" lon="13.295849848645878"><ele>20.0</ele><time>2026-04-26T10:16:47.001Z</time></trkpt><trkpt lat="37.42803285664442" lon="13.295775659230445"><ele>20.0</ele><time>2026-04-26T10:16:48.001Z</time></trkpt><trkpt lat="37.428099272525394" lon="13.29567801511357"><ele>20.0</ele><time>2026-04-26T10:16:49.001Z</time></trkpt><trkpt lat="37.428147298518766" lon="13.295607407662322"><ele>20.0</ele><time>2026-04-26T10:16:50.001Z</time></trkpt><trkpt lat="37.42820209160853" lon="13.295526851282826"><ele>20.0</ele><time>2026-04-26T10:16:51.001Z</time></trkpt><trkpt lat="37.42825284119257" lon="13.295452239634221"><ele>20.0</ele><time>2026-04-26T10:16:52.001Z</time></trkpt><trkpt lat="37.42830348943403" lon="13.295377776980189"><ele>20.4</ele><time>2026-04-26T10:16:53.001Z</time></trkpt><trkpt lat="37.428389590049505" lon="13.295251192518945"><ele>20.8</ele><time>2026-04-26T10:16:55.001Z</time></trkpt><trkpt lat="37.428442598523745" lon="13.295173259865198"><ele>21.200000000000003</ele><time>2026-04-26T10:16:56.001Z</time></trkpt><trkpt lat="37.42850899157861" lon="13.295075958308622"><ele>21.6</ele><time>2026-04-26T10:16:57.001Z</time></trkpt><trkpt lat="37.42857440199859" lon="13.294980136630409"><ele>22.0</ele><time>2026-04-26T10:16:58.001Z</time></trkpt><trkpt lat="37.42863496653536" lon="13.29489141383099"><ele>22.0</ele><time>2026-04-26T10:16:59.001Z</time></trkpt><trkpt lat="37.4286870488464" lon="13.29481511689676"><ele>22.0</ele><time>2026-04-26T10:17:00.001Z</time></trkpt><trkpt lat="37.428734489089706" lon="13.294745620265513"><ele>22.0</ele><time>2026-04-26T10:17:01.001Z</time></trkpt><trkpt lat="37.42879061999138" lon="13.294663392431248"><ele>22.0</ele><time>2026-04-26T10:17:02.001Z</time></trkpt><trkpt lat="37.428838845022" lon="13.294592746141326"><ele>22.0</ele><time>2026-04-26T10:17:03Z</time></trkpt><trkpt lat="37.4288917945471" lon="13.294515178798472"><ele>22.0</ele><time>2026-04-26T10:17:04Z</time></trkpt><trkpt lat="37.4289460915335" lon="13.294435637520913"><ele>22.666666666666664</ele><time>2026-04-26T10:17:05Z</time></trkpt><trkpt lat="37.429003256304064" lon="13.294351895140464"><ele>23.333333333333332</ele><time>2026-04-26T10:17:06Z</time></trkpt><trkpt lat="37.42905923967771" lon="13.294269883423242"><ele>24.0</ele><time>2026-04-26T10:17:07Z</time></trkpt><trkpt lat="37.42911896066627" lon="13.294182396361958"><ele>24.666666666666664</ele><time>2026-04-26T10:17:08Z</time></trkpt><trkpt lat="37.42917766186112" lon="13.294096403227757"><ele>25.333333333333332</ele><time>2026-04-26T10:17:09Z</time></trkpt><trkpt lat="37.42922923872076" lon="13.29402084674446"><ele>26.0</ele><time>2026-04-26T10:17:10Z</time></trkpt><trkpt lat="37.4292713361505" lon="13.293959176959639"><ele>26.0</ele><time>2026-04-26T10:17:11Z</time></trkpt><trkpt lat="37.42933070361423" lon="13.293872207872218"><ele>26.0</ele><time>2026-04-26T10:17:13Z</time></trkpt><trkpt lat="37.42938866852431" lon="13.293787293249926"><ele>26.0</ele><time>2026-04-26T10:17:16Z</time></trkpt><trkpt lat="37.42924084515118" lon="13.29373259794743"><ele>26.0</ele><time>2026-04-26T10:17:23.999Z</time></trkpt><trkpt lat="37.42918628389179" lon="13.29382252032839"><ele>26.0</ele><time>2026-04-26T10:17:24.999Z</time></trkpt><trkpt lat="37.42911174493779" lon="13.293950867229642"><ele>26.0</ele><time>2026-04-26T10:17:26.999Z</time></trkpt><trkpt lat="37.429043852819525" lon="13.294051030600869"><ele>26.0</ele><time>2026-04-26T10:17:27.999Z</time></trkpt><trkpt lat="37.428967800320365" lon="13.294163233670004"><ele>26.0</ele><time>2026-04-26T10:17:28.999Z</time></trkpt><trkpt lat="37.42888631627162" lon="13.294283449967663"><ele>26.0</ele><time>2026-04-26T10:17:29.999Z</time></trkpt><trkpt lat="37.42879940255375" lon="13.294411677214272"><ele>25.0</ele><time>2026-04-26T10:17:30.999Z</time></trkpt><trkpt lat="37.428708257720814" lon="13.294545067235342"><ele>24.0</ele><time>2026-04-26T10:17:31.999Z</time></trkpt><trkpt lat="37.428606011783316" lon="13.294691607839475"><ele>23.0</ele><time>2026-04-26T10:17:33Z</time></trkpt><trkpt lat="37.428509136095236" lon="13.2948365779839"><ele>22.0</ele><time>2026-04-26T10:17:34Z</time></trkpt><trkpt lat="37.428404072897784" lon="13.294994626051583"><ele>22.0</ele><time>2026-04-26T10:17:35Z</time></trkpt><trkpt lat="37.42829823670097" lon="13.295153836779699"><ele>22.0</ele><time>2026-04-26T10:17:36Z</time></trkpt><trkpt lat="37.428188500692045" lon="13.295316926881785"><ele>22.0</ele><time>2026-04-26T10:17:37Z</time></trkpt><trkpt lat="37.42807779868136" lon="13.295478587798968"><ele>21.666666666666664</ele><time>2026-04-26T10:17:38Z</time></trkpt><trkpt lat="37.4279660348363" lon="13.295641771373134"><ele>21.333333333333332</ele><time>2026-04-26T10:17:39Z</time></trkpt><trkpt lat="37.42785281715933" lon="13.295806757813805"><ele>21.0</ele><time>2026-04-26T10:17:40Z</time></trkpt><trkpt lat="37.42774538835482" lon="13.295961171515007"><ele>21.0</ele><time>2026-04-26T10:17:41Z</time></trkpt><trkpt lat="37.427629547423265" lon="13.2961276764497"><ele>21.0</ele><time>2026-04-26T10:17:42Z</time></trkpt><trkpt lat="37.42750967669667" lon="13.296295276631367"><ele>21.0</ele><time>2026-04-26T10:17:43Z</time></trkpt><trkpt lat="37.42738127420668" lon="13.296398439872151"><ele>20.666666666666668</ele><time>2026-04-26T10:17:44Z</time></trkpt><trkpt lat="37.4272477028764" lon="13.29644217121406"><ele>20.333333333333336</ele><time>2026-04-26T10:17:45Z</time></trkpt><trkpt lat="37.42710212046895" lon="13.296532412570947"><ele>20.0</ele><time>2026-04-26T10:17:46Z</time></trkpt><trkpt lat="37.42695385101914" lon="13.296629960984017"><ele>17.0</ele><time>2026-04-26T10:17:47Z</time></trkpt><trkpt lat="37.426990529276004" lon="13.297246929270083"><ele>16.5</ele><time>2026-04-26T10:17:48Z</time></trkpt><trkpt lat="37.42686251614841" lon="13.297427527769814"><ele>16.0</ele><time>2026-04-26T10:17:49Z</time></trkpt><trkpt lat="37.42661929283109" lon="13.297771684876661"><ele>16.0</ele><time>2026-04-26T10:17:51Z</time></trkpt><trkpt lat="37.42650838394513" lon="13.297941676145149"><ele>16.0</ele><time>2026-04-26T10:17:52Z</time></trkpt><trkpt lat="37.42639212363078" lon="13.298115135729194"><ele>16.0</ele><time>2026-04-26T10:17:53Z</time></trkpt><trkpt lat="37.426275244300136" lon="13.298286817502472"><ele>14.666666666666666</ele><time>2026-04-26T10:17:54Z</time></trkpt><trkpt lat="37.42615802249015" lon="13.298457331158168"><ele>13.333333333333332</ele><time>2026-04-26T10:17:55Z</time></trkpt><trkpt lat="37.42604275676293" lon="13.298628758543117"><ele>12.0</ele><time>2026-04-26T10:17:56Z</time></trkpt><trkpt lat="37.4259229033327" lon="13.298802835921023"><ele>11.666666666666666</ele><time>2026-04-26T10:17:57Z</time></trkpt><trkpt lat="37.425808140550025" lon="13.29897175263286"><ele>11.333333333333332</ele><time>2026-04-26T10:17:58Z</time></trkpt><trkpt lat="37.425683228284974" lon="13.299143762616017"><ele>11.0</ele><time>2026-04-26T10:17:59Z</time></trkpt><trkpt lat="37.42555801423603" lon="13.299316920210325"><ele>11.0</ele><time>2026-04-26T10:18:00Z</time></trkpt><trkpt lat="37.425451871598526" lon="13.299487070228043"><ele>11.0</ele><time>2026-04-26T10:18:01Z</time></trkpt><trkpt lat="37.425330709883596" lon="13.299670147923113"><ele>11.0</ele><time>2026-04-26T10:18:02Z</time></trkpt><trkpt lat="37.42520948464059" lon="13.299848590217401"><ele>11.0</ele><time>2026-04-26T10:18:03Z</time></trkpt><trkpt lat="37.42507630896294" lon="13.300029111523525"><ele>11.0</ele><time>2026-04-26T10:18:04Z</time></trkpt><trkpt lat="37.424958777529845" lon="13.300208892940503"><ele>11.0</ele><time>2026-04-26T10:18:05Z</time></trkpt><trkpt lat="37.424837976031064" lon="13.30039223363607"><ele>11.0</ele><time>2026-04-26T10:18:06Z</time></trkpt><trkpt lat="37.424714402162856" lon="13.300571827067484"><ele>11.0</ele><time>2026-04-26T10:18:07Z</time></trkpt><trkpt lat="37.42459142913905" lon="13.300750576765877"><ele>11.0</ele><time>2026-04-26T10:18:08Z</time></trkpt><trkpt lat="37.42447231546832" lon="13.300925419423969"><ele>12.666666666666666</ele><time>2026-04-26T10:18:09Z</time></trkpt><trkpt lat="37.424350017310424" lon="13.301102423192628"><ele>14.333333333333332</ele><time>2026-04-26T10:18:10Z</time></trkpt><trkpt lat="37.424231236649035" lon="13.301278677756272"><ele>16.0</ele><time>2026-04-26T10:18:11Z</time></trkpt><trkpt lat="37.424100641433384" lon="13.301462880323555"><ele>16.333333333333332</ele><time>2026-04-26T10:18:12Z</time></trkpt><trkpt lat="37.42398679199494" lon="13.301638414255951"><ele>16.666666666666668</ele><time>2026-04-26T10:18:13Z</time></trkpt><trkpt lat="37.423848408500334" lon="13.301815163278674"><ele>17.0</ele><time>2026-04-26T10:18:14Z</time></trkpt><trkpt lat="37.42371196693842" lon="13.301982792564953"><ele>17.333333333333336</ele><time>2026-04-26T10:18:15Z</time></trkpt><trkpt lat="37.42356825806624" lon="13.302143315224022"><ele>17.666666666666668</ele><time>2026-04-26T10:18:16Z</time></trkpt><trkpt lat="37.42342640758537" lon="13.30230183916429"><ele>18.0</ele><time>2026-04-26T10:18:17Z</time></trkpt><trkpt lat="37.423277598432435" lon="13.30245779756805"><ele>18.333333333333332</ele><time>2026-04-26T10:18:18Z</time></trkpt><trkpt lat="37.423125927046286" lon="13.302608532723083"><ele>18.666666666666664</ele><time>2026-04-26T10:18:19Z</time></trkpt><trkpt lat="37.42296646252544" lon="13.302760269329413"><ele>19.0</ele><time>2026-04-26T10:18:20Z</time></trkpt><trkpt lat="37.422812975327766" lon="13.3029059334995"><ele>18.666666666666664</ele><time>2026-04-26T10:18:21Z</time></trkpt><trkpt lat="37.422641555555735" lon="13.303043617287273"><ele>18.333333333333332</ele><time>2026-04-26T10:18:22Z</time></trkpt><trkpt lat="37.422469025986715" lon="13.303174033515967"><ele>18.0</ele><time>2026-04-26T10:18:23Z</time></trkpt><trkpt lat="37.42230913216043" lon="13.303298493000037"><ele>17.333333333333332</ele><time>2026-04-26T10:18:24Z</time></trkpt><trkpt lat="37.42213374342059" lon="13.303393257307285"><ele>16.666666666666664</ele><time>2026-04-26T10:18:25Z</time></trkpt><trkpt lat="37.421971865955804" lon="13.303515023363076"><ele>16.0</ele><time>2026-04-26T10:18:26Z</time></trkpt><trkpt lat="37.42180244136459" lon="13.303616998522857"><ele>16.0</ele><time>2026-04-26T10:18:27Z</time></trkpt><trkpt lat="37.42164081399552" lon="13.30372280306958"><ele>16.0</ele><time>2026-04-26T10:18:28Z</time></trkpt><trkpt lat="37.421466438526636" lon="13.303823929979888"><ele>16.0</ele><time>2026-04-26T10:18:29Z</time></trkpt><trkpt lat="37.42129595200389" lon="13.303925092579238"><ele>16.0</ele><time>2026-04-26T10:18:30Z</time></trkpt><trkpt lat="37.42113400942623" lon="13.304032016006557"><ele>16.0</ele><time>2026-04-26T10:18:31Z</time></trkpt><trkpt lat="37.42096587466852" lon="13.304134658250879"><ele>16.0</ele><time>2026-04-26T10:18:32Z</time></trkpt><trkpt lat="37.42080414336554" lon="13.30424416025233"><ele>16.0</ele><time>2026-04-26T10:18:33Z</time></trkpt><trkpt lat="37.4206403913939" lon="13.304354504107522"><ele>16.0</ele><time>2026-04-26T10:18:34Z</time></trkpt><trkpt lat="37.42046916622575" lon="13.304458676056958"><ele>16.0</ele><time>2026-04-26T10:18:35Z</time></trkpt><trkpt lat="37.420300531940576" lon="13.304565697093892"><ele>15.666666666666666</ele><time>2026-04-26T10:18:36Z</time></trkpt><trkpt lat="37.42013429615972" lon="13.304674255778043"><ele>15.333333333333332</ele><time>2026-04-26T10:18:37Z</time></trkpt><trkpt lat="37.4199612982562" lon="13.304777492505632"><ele>15.0</ele><time>2026-04-26T10:18:38Z</time></trkpt><trkpt lat="37.419792131564606" lon="13.304883846335953"><ele>15.333333333333332</ele><time>2026-04-26T10:18:39Z</time></trkpt><trkpt lat="37.41963369975691" lon="13.304995041066507"><ele>15.666666666666666</ele><time>2026-04-26T10:18:40Z</time></trkpt><trkpt lat="37.4194673259736" lon="13.305091095920092"><ele>16.0</ele><time>2026-04-26T10:18:41.001Z</time></trkpt><trkpt lat="37.41930360520901" lon="13.30519454783972"><ele>16.0</ele><time>2026-04-26T10:18:42.001Z</time></trkpt><trkpt lat="37.418977642867574" lon="13.305396909009914"><ele>16.0</ele><time>2026-04-26T10:18:44.001Z</time></trkpt><trkpt lat="37.41882748649269" lon="13.305489630867305"><ele>16.0</ele><time>2026-04-26T10:18:45.001Z</time></trkpt><trkpt lat="37.41868690743267" lon="13.305563612642114"><ele>16.0</ele><time>2026-04-26T10:18:46.001Z</time></trkpt><trkpt lat="37.418555364213525" lon="13.305628467583588"><ele>16.0</ele><time>2026-04-26T10:18:47.001Z</time></trkpt><trkpt lat="37.4184240135122" lon="13.305674858303677"><ele>16.0</ele><time>2026-04-26T10:18:48.001Z</time></trkpt><trkpt lat="37.41828787897123" lon="13.30570763292199"><ele>16.25</ele><time>2026-04-26T10:18:49.001Z</time></trkpt><trkpt lat="37.4181427386253" lon="13.305711246940994"><ele>16.5</ele><time>2026-04-26T10:18:50.001Z</time></trkpt><trkpt lat="37.4180005657963" lon="13.305691041869501"><ele>16.75</ele><time>2026-04-26T10:18:51.001Z</time></trkpt><trkpt lat="37.41786608929696" lon="13.30563404259167"><ele>17.0</ele><time>2026-04-26T10:18:52.001Z</time></trkpt><trkpt lat="37.41773858470775" lon="13.30555113983134"><ele>17.0</ele><time>2026-04-26T10:18:53.001Z</time></trkpt><trkpt lat="37.41762650112678" lon="13.305453291562928"><ele>17.0</ele><time>2026-04-26T10:18:54.001Z</time></trkpt><trkpt lat="37.41753854033282" lon="13.305357058657448"><ele>17.0</ele><time>2026-04-26T10:18:55.001Z</time></trkpt><trkpt lat="37.41744833116446" lon="13.305300942199679"><ele>17.0</ele><time>2026-04-26T10:18:56.001Z</time></trkpt><trkpt lat="37.41733749355915" lon="13.30528164193952"><ele>17.0</ele><time>2026-04-26T10:18:57.001Z</time></trkpt><trkpt lat="37.41721448206194" lon="13.305291768355106"><ele>17.0</ele><time>2026-04-26T10:18:58.001Z</time></trkpt><trkpt lat="37.41709943453139" lon="13.305336906351455"><ele>17.0</ele><time>2026-04-26T10:18:59.001Z</time></trkpt><trkpt lat="37.416989563791546" lon="13.30541137909272"><ele>17.0</ele><time>2026-04-26T10:19:00.001Z</time></trkpt><trkpt lat="37.4168978337364" lon="13.30548171553021"><ele>17.166666666666668</ele><time>2026-04-26T10:19:01.001Z</time></trkpt><trkpt lat="37.41681477714594" lon="13.305519974948023"><ele>17.333333333333336</ele><time>2026-04-26T10:19:02.001Z</time></trkpt><trkpt lat="37.416737378193055" lon="13.305531364124803"><ele>17.5</ele><time>2026-04-26T10:19:03.001Z</time></trkpt><trkpt lat="37.416656272843234" lon="13.305547020344498"><ele>17.666666666666668</ele><time>2026-04-26T10:19:04.001Z</time></trkpt><trkpt lat="37.41656816107235" lon="13.305552420123636"><ele>17.833333333333332</ele><time>2026-04-26T10:19:05.001Z</time></trkpt><trkpt lat="37.416494590261465" lon="13.3055509455981"><ele>18.0</ele><time>2026-04-26T10:19:06.001Z</time></trkpt><trkpt lat="37.416382244587" lon="13.305529601027422"><ele>18.0</ele><time>2026-04-26T10:19:08.001Z</time></trkpt><trkpt lat="37.41630862491757" lon="13.30548494074814"><ele>18.0</ele><time>2026-04-26T10:19:09.999Z</time></trkpt><trkpt lat="37.41621893548661" lon="13.305412514214527"><ele>18.0</ele><time>2026-04-26T10:19:12Z</time></trkpt><trkpt lat="37.416164807867716" lon="13.305363362189514"><ele>18.0</ele><time>2026-04-26T10:19:13Z</time></trkpt><trkpt lat="37.416094910875614" lon="13.305306605138197"><ele>18.0</ele><time>2026-04-26T10:19:14Z</time></trkpt><trkpt lat="37.41603405902802" lon="13.305227855191875"><ele>18.0</ele><time>2026-04-26T10:19:15Z</time></trkpt><trkpt lat="37.415957239857896" lon="13.305160491565665"><ele>18.0</ele><time>2026-04-26T10:19:16Z</time></trkpt><trkpt lat="37.41587463998384" lon="13.30508772802976"><ele>18.0</ele><time>2026-04-26T10:19:17Z</time></trkpt><trkpt lat="37.41578749618469" lon="13.30500845328415"><ele>18.0</ele><time>2026-04-26T10:19:18Z</time></trkpt><trkpt lat="37.415697071352255" lon="13.3049517268633"><ele>18.0</ele><time>2026-04-26T10:19:19Z</time></trkpt><trkpt lat="37.41562176451112" lon="13.304877195402073"><ele>18.0</ele><time>2026-04-26T10:19:20Z</time></trkpt><trkpt lat="37.41554883656684" lon="13.304811515831073"><ele>18.0</ele><time>2026-04-26T10:19:21Z</time></trkpt><trkpt lat="37.41547395890742" lon="13.304745424642997"><ele>18.0</ele><time>2026-04-26T10:19:22Z</time></trkpt><trkpt lat="37.41539554384178" lon="13.304677356046676"><ele>18.0</ele><time>2026-04-26T10:19:23Z</time></trkpt><trkpt lat="37.415328083009555" lon="13.30459090396429"><ele>18.0</ele><time>2026-04-26T10:19:24Z</time></trkpt><trkpt lat="37.41525987241149" lon="13.304528939596164"><ele>18.0</ele><time>2026-04-26T10:19:25Z</time></trkpt><trkpt lat="37.41520291739868" lon="13.304477201358397"><ele>18.0</ele><time>2026-04-26T10:19:26Z</time></trkpt><trkpt lat="37.41514736689724" lon="13.304426723649023"><ele>18.0</ele><time>2026-04-26T10:19:27Z</time></trkpt><trkpt lat="37.415088100572866" lon="13.304374936669955"><ele>18.0</ele><time>2026-04-26T10:19:28Z</time></trkpt><trkpt lat="37.41502574722117" lon="13.304320452242198"><ele>18.0</ele><time>2026-04-26T10:19:29Z</time></trkpt><trkpt lat="37.41494757646374" lon="13.30426480412973"><ele>18.0</ele><time>2026-04-26T10:19:31Z</time></trkpt><trkpt lat="37.41487275205334" lon="13.304418781025465"><ele>18.0</ele><time>2026-04-26T10:19:40Z</time></trkpt><trkpt lat="37.41483816359449" lon="13.304493912514559"><ele>18.0</ele><time>2026-04-26T10:19:41Z</time></trkpt><trkpt lat="37.41481008426961" lon="13.304579285115375"><ele>18.0</ele><time>2026-04-26T10:19:42Z</time></trkpt><trkpt lat="37.41478061421993" lon="13.304673468773725"><ele>18.0</ele><time>2026-04-26T10:19:43Z</time></trkpt><trkpt lat="37.414743361979525" lon="13.304797217473853"><ele>18.0</ele><time>2026-04-26T10:19:44Z</time></trkpt><trkpt lat="37.41470709414155" lon="13.304917696078077"><ele>18.0</ele><time>2026-04-26T10:19:45Z</time></trkpt><trkpt lat="37.41467159336389" lon="13.305035626574817"><ele>18.4</ele><time>2026-04-26T10:19:46Z</time></trkpt><trkpt lat="37.414644541509396" lon="13.305168999956742"><ele>18.8</ele><time>2026-04-26T10:19:47Z</time></trkpt><trkpt lat="37.41460157751726" lon="13.305293747227926"><ele>19.2</ele><time>2026-04-26T10:19:48Z</time></trkpt><trkpt lat="37.414560532065074" lon="13.305427450607631"><ele>19.6</ele><time>2026-04-26T10:19:49Z</time></trkpt><trkpt lat="37.41452222070076" lon="13.305567245795155"><ele>20.0</ele><time>2026-04-26T10:19:50Z</time></trkpt><trkpt lat="37.414481389600354" lon="13.30571102774503"><ele>21.0</ele><time>2026-04-26T10:19:51Z</time></trkpt><trkpt lat="37.41443936634385" lon="13.30585100398081"><ele>22.0</ele><time>2026-04-26T10:19:52Z</time></trkpt><trkpt lat="37.414397686815185" lon="13.305979084964875"><ele>23.0</ele><time>2026-04-26T10:19:53Z</time></trkpt><trkpt lat="37.414352093868544" lon="13.306109154777387"><ele>24.0</ele><time>2026-04-26T10:19:54Z</time></trkpt><trkpt lat="37.414311667019106" lon="13.306244917150323"><ele>24.0</ele><time>2026-04-26T10:19:55Z</time></trkpt><trkpt lat="37.4142788021935" lon="13.30638342495696"><ele>24.0</ele><time>2026-04-26T10:19:56Z</time></trkpt><trkpt lat="37.41425541066179" lon="13.306519832163316"><ele>24.0</ele><time>2026-04-26T10:19:57Z</time></trkpt><trkpt lat="37.41423949620836" lon="13.306639298628548"><ele>24.0</ele><time>2026-04-26T10:19:58Z</time></trkpt><trkpt lat="37.41422590281762" lon="13.30675125816738"><ele>24.0</ele><time>2026-04-26T10:19:59Z</time></trkpt><trkpt lat="37.41421362340805" lon="13.306853629949858"><ele>24.799999999999997</ele><time>2026-04-26T10:20:00Z</time></trkpt><trkpt lat="37.41420389582666" lon="13.30696659219498"><ele>25.599999999999998</ele><time>2026-04-26T10:20:01Z</time></trkpt><trkpt lat="37.414198171058885" lon="13.307086425079543"><ele>26.4</ele><time>2026-04-26T10:20:02Z</time></trkpt><trkpt lat="37.41419285138028" lon="13.307203228726385"><ele>27.2</ele><time>2026-04-26T10:20:03Z</time></trkpt><trkpt lat="37.414185449851075" lon="13.307329732858834"><ele>28.0</ele><time>2026-04-26T10:20:04Z</time></trkpt><trkpt lat="37.414178979511874" lon="13.307477959776786"><ele>29.0</ele><time>2026-04-26T10:20:05Z</time></trkpt><trkpt lat="37.414170249344366" lon="13.307628944343122"><ele>30.0</ele><time>2026-04-26T10:20:06Z</time></trkpt><trkpt lat="37.41415874617793" lon="13.307778316161942"><ele>31.0</ele><time>2026-04-26T10:20:07Z</time></trkpt><trkpt lat="37.41414458419689" lon="13.307935371251864"><ele>32.0</ele><time>2026-04-26T10:20:08Z</time></trkpt><trkpt lat="37.414124236889535" lon="13.308099430383074"><ele>32.0</ele><time>2026-04-26T10:20:09Z</time></trkpt><trkpt lat="37.41407547091928" lon="13.308259912887372"><ele>32.0</ele><time>2026-04-26T10:20:10Z</time></trkpt><trkpt lat="37.41405533126991" lon="13.308426429903957"><ele>32.0</ele><time>2026-04-26T10:20:11Z</time></trkpt><trkpt lat="37.414017904732546" lon="13.308585018207967"><ele>32.0</ele><time>2026-04-26T10:20:12Z</time></trkpt><trkpt lat="37.413984425343514" lon="13.308747189901746"><ele>33.5</ele><time>2026-04-26T10:20:13Z</time></trkpt><trkpt lat="37.41394957398573" lon="13.308910832614085"><ele>35.0</ele><time>2026-04-26T10:20:14Z</time></trkpt><trkpt lat="37.413918632039" lon="13.309061232036534"><ele>36.5</ele><time>2026-04-26T10:20:15Z</time></trkpt><trkpt lat="37.41388683154226" lon="13.309205464840995"><ele>38.0</ele><time>2026-04-26T10:20:16Z</time></trkpt><trkpt lat="37.41385392157683" lon="13.309337659327925"><ele>38.0</ele><time>2026-04-26T10:20:17Z</time></trkpt><trkpt lat="37.41382323597525" lon="13.309458957919086"><ele>38.0</ele><time>2026-04-26T10:20:18Z</time></trkpt><trkpt lat="37.41379639065536" lon="13.309580980050233"><ele>38.0</ele><time>2026-04-26T10:20:19Z</time></trkpt><trkpt lat="37.41377943887225" lon="13.309701789861666"><ele>38.0</ele><time>2026-04-26T10:20:20Z</time></trkpt><trkpt lat="37.413773515250746" lon="13.309819620474006"><ele>38.0</ele><time>2026-04-26T10:20:21Z</time></trkpt><trkpt lat="37.413776766974394" lon="13.309949913949639"><ele>39.25</ele><time>2026-04-26T10:20:22Z</time></trkpt><trkpt lat="37.41379294020425" lon="13.310084180845141"><ele>40.5</ele><time>2026-04-26T10:20:23Z</time></trkpt><trkpt lat="37.41381567235077" lon="13.310225708815985"><ele>41.75</ele><time>2026-04-26T10:20:24Z</time></trkpt><trkpt lat="37.4138460084324" lon="13.310373291564062"><ele>43.0</ele><time>2026-04-26T10:20:25Z</time></trkpt><trkpt lat="37.413868810367724" lon="13.310515111197384"><ele>43.4</ele><time>2026-04-26T10:20:26Z</time></trkpt><trkpt lat="37.413855453617224" lon="13.310635619692627"><ele>43.8</ele><time>2026-04-26T10:20:27.001Z</time></trkpt><trkpt lat="37.41384175381394" lon="13.31075133353859"><ele>44.2</ele><time>2026-04-26T10:20:28.001Z</time></trkpt><trkpt lat="37.41382281197798" lon="13.310871918802887"><ele>44.6</ele><time>2026-04-26T10:20:29.001Z</time></trkpt><trkpt lat="37.413799699850145" lon="13.310998637362445"><ele>45.0</ele><time>2026-04-26T10:20:30.001Z</time></trkpt><trkpt lat="37.41377218136154" lon="13.311132075539552"><ele>47.25</ele><time>2026-04-26T10:20:31.001Z</time></trkpt><trkpt lat="37.41374516313803" lon="13.311277302372924"><ele>49.5</ele><time>2026-04-26T10:20:32.001Z</time></trkpt><trkpt lat="37.413701799486" lon="13.311418485293014"><ele>51.75</ele><time>2026-04-26T10:20:33.001Z</time></trkpt><trkpt lat="37.41365920501236" lon="13.311561851538272"><ele>54.0</ele><time>2026-04-26T10:20:34.001Z</time></trkpt><trkpt lat="37.41361595019044" lon="13.31170052385551"><ele>55.0</ele><time>2026-04-26T10:20:35.001Z</time></trkpt><trkpt lat="37.413570391177984" lon="13.31183897467291"><ele>56.00000000000001</ele><time>2026-04-26T10:20:36.001Z</time></trkpt><trkpt lat="37.41353012577475" lon="13.31195586745179"><ele>57.00000000000001</ele><time>2026-04-26T10:20:37.001Z</time></trkpt><trkpt lat="37.41349532001033" lon="13.312062565566986"><ele>58.0</ele><time>2026-04-26T10:20:38.001Z</time></trkpt><trkpt lat="37.413464000706455" lon="13.312165347673258"><ele>59.0</ele><time>2026-04-26T10:20:39.001Z</time></trkpt><trkpt lat="37.413433957335414" lon="13.312256843426583"><ele>59.00000000000001</ele><time>2026-04-26T10:20:40.001Z</time></trkpt><trkpt lat="37.4134109992131" lon="13.312352585570748"><ele>59.0</ele><time>2026-04-26T10:20:41.001Z</time></trkpt><trkpt lat="37.41337752627117" lon="13.312509615174243"><ele>59.0</ele><time>2026-04-26T10:20:43.001Z</time></trkpt><trkpt lat="37.41337766735456" lon="13.312601011524892"><ele>59.0</ele><time>2026-04-26T10:20:44.001Z</time></trkpt><trkpt lat="37.41338353411722" lon="13.31270497239345"><ele>59.00000000000001</ele><time>2026-04-26T10:20:45.001Z</time></trkpt><trkpt lat="37.41339908899796" lon="13.312789615982393"><ele>59.0</ele><time>2026-04-26T10:20:46.001Z</time></trkpt><trkpt lat="37.413424656636344" lon="13.312927355791098"><ele>58.400000000000006</ele><time>2026-04-26T10:20:48.001Z</time></trkpt><trkpt lat="37.413428013414276" lon="13.313074881684322"><ele>57.800000000000004</ele><time>2026-04-26T10:20:50.001Z</time></trkpt><trkpt lat="37.41342221683249" lon="13.313218180661288"><ele>57.199999999999996</ele><time>2026-04-26T10:20:52.001Z</time></trkpt><trkpt lat="37.41341006693558" lon="13.313305158927225"><ele>56.599999999999994</ele><time>2026-04-26T10:20:53.001Z</time></trkpt><trkpt lat="37.41338977065596" lon="13.313407600923865"><ele>56.0</ele><time>2026-04-26T10:20:54.001Z</time></trkpt><trkpt lat="37.41336452734714" lon="13.313519644140971"><ele>56.0</ele><time>2026-04-26T10:20:55.001Z</time></trkpt><trkpt lat="37.413336509834195" lon="13.313631101273023"><ele>55.99999999999999</ele><time>2026-04-26T10:20:56.001Z</time></trkpt><trkpt lat="37.41330484953844" lon="13.313754978747118"><ele>55.99999999999999</ele><time>2026-04-26T10:20:57.001Z</time></trkpt><trkpt lat="37.41327372009471" lon="13.313876779155116"><ele>56.0</ele><time>2026-04-26T10:20:58.001Z</time></trkpt><trkpt lat="37.41324183537561" lon="13.313997640019906"><ele>56.0</ele><time>2026-04-26T10:20:59.001Z</time></trkpt><trkpt lat="37.41321808274281" lon="13.314123564118972"><ele>56.199999999999996</ele><time>2026-04-26T10:21:00.001Z</time></trkpt><trkpt lat="37.41317756644952" lon="13.314241003456464"><ele>56.39999999999999</ele><time>2026-04-26T10:21:01.001Z</time></trkpt><trkpt lat="37.41313773448387" lon="13.314352879705924"><ele>56.6</ele><time>2026-04-26T10:21:02.001Z</time></trkpt><trkpt lat="37.41310378321108" lon="13.314470660957676"><ele>56.8</ele><time>2026-04-26T10:21:03.001Z</time></trkpt><trkpt lat="37.41306980660251" lon="13.314598695710869"><ele>57.0</ele><time>2026-04-26T10:21:04.001Z</time></trkpt><trkpt lat="37.41304299752241" lon="13.314704989176848"><ele>57.400000000000006</ele><time>2026-04-26T10:21:05.001Z</time></trkpt><trkpt lat="37.413016801154704" lon="13.314814092950728"><ele>57.800000000000004</ele><time>2026-04-26T10:21:06.001Z</time></trkpt><trkpt lat="37.412964836131906" lon="13.314938794382396"><ele>58.2</ele><time>2026-04-26T10:21:07.001Z</time></trkpt><trkpt lat="37.41292697114711" lon="13.315063941374698"><ele>58.6</ele><time>2026-04-26T10:21:08.001Z</time></trkpt><trkpt lat="37.4129010897983" lon="13.315203461360506"><ele>59.0</ele><time>2026-04-26T10:21:09.001Z</time></trkpt><trkpt lat="37.41285853507052" lon="13.315333476253102"><ele>61.0</ele><time>2026-04-26T10:21:10.001Z</time></trkpt><trkpt lat="37.412820488592985" lon="13.31546318961937"><ele>63.00000000000001</ele><time>2026-04-26T10:21:11.001Z</time></trkpt><trkpt lat="37.412775181172776" lon="13.315584773960548"><ele>65.0</ele><time>2026-04-26T10:21:12.001Z</time></trkpt><trkpt lat="37.41272840018729" lon="13.315691825189376"><ele>67.0</ele><time>2026-04-26T10:21:13.001Z</time></trkpt><trkpt lat="37.412677747803244" lon="13.315800643071826"><ele>69.0</ele><time>2026-04-26T10:21:14.001Z</time></trkpt><trkpt lat="37.412620864634846" lon="13.31591255148325"><ele>69.0</ele><time>2026-04-26T10:21:15Z</time></trkpt><trkpt lat="37.41256634976167" lon="13.316004962897814"><ele>69.0</ele><time>2026-04-26T10:21:16Z</time></trkpt><trkpt lat="37.412511798836235" lon="13.316125573682582"><ele>69.0</ele><time>2026-04-26T10:21:17Z</time></trkpt><trkpt lat="37.412450912562555" lon="13.31623407323368"><ele>69.0</ele><time>2026-04-26T10:21:18Z</time></trkpt><trkpt lat="37.412386492806775" lon="13.316350211461112"><ele>69.0</ele><time>2026-04-26T10:21:19Z</time></trkpt><trkpt lat="37.412329636929755" lon="13.3164707919519"><ele>69.0</ele><time>2026-04-26T10:21:20Z</time></trkpt><trkpt lat="37.41227758194108" lon="13.316600054166827"><ele>69.0</ele><time>2026-04-26T10:21:21Z</time></trkpt><trkpt lat="37.41222738748556" lon="13.3167144770108"><ele>69.0</ele><time>2026-04-26T10:21:22Z</time></trkpt><trkpt lat="37.41217733170777" lon="13.316809715965693"><ele>69.0</ele><time>2026-04-26T10:21:23Z</time></trkpt><trkpt lat="37.4121349592375" lon="13.316869198984778"><ele>69.0</ele><time>2026-04-26T10:21:24Z</time></trkpt><trkpt lat="37.412043382263114" lon="13.316976473274389"><ele>69.33333333333333</ele><time>2026-04-26T10:21:26Z</time></trkpt><trkpt lat="37.41196536968251" lon="13.31703579861711"><ele>69.66666666666667</ele><time>2026-04-26T10:21:28Z</time></trkpt><trkpt lat="37.41200255464864" lon="13.317140137824419"><ele>70.0</ele><time>2026-04-26T10:21:32Z</time></trkpt><trkpt lat="37.41209582169391" lon="13.317231775581037"><ele>70.33333333333334</ele><time>2026-04-26T10:21:34Z</time></trkpt><trkpt lat="37.41214009890467" lon="13.31729701070562"><ele>70.66666666666667</ele><time>2026-04-26T10:21:35Z</time></trkpt><trkpt lat="37.41218887234881" lon="13.317369138165132"><ele>71.0</ele><time>2026-04-26T10:21:36Z</time></trkpt><trkpt lat="37.41224588291477" lon="13.317438523578772"><ele>71.0</ele><time>2026-04-26T10:21:37Z</time></trkpt><trkpt lat="37.41230000974054" lon="13.317495140549028"><ele>71.0</ele><time>2026-04-26T10:21:38Z</time></trkpt><trkpt lat="37.41236255849099" lon="13.317565264559587"><ele>71.0</ele><time>2026-04-26T10:21:39Z</time></trkpt><trkpt lat="37.412446676581936" lon="13.317654747905864"><ele>71.0</ele><time>2026-04-26T10:21:41Z</time></trkpt><trkpt lat="37.41252002685305" lon="13.317746062794004"><ele>71.0</ele><time>2026-04-26T10:21:43Z</time></trkpt><trkpt lat="37.41256991778023" lon="13.317797029715441"><ele>71.0</ele><time>2026-04-26T10:21:44Z</time></trkpt><trkpt lat="37.41262328489193" lon="13.317857713608305"><ele>71.0</ele><time>2026-04-26T10:21:45Z</time></trkpt><trkpt lat="37.41267426659885" lon="13.317911439678797"><ele>71.0</ele><time>2026-04-26T10:21:46Z</time></trkpt><trkpt lat="37.41273272254257" lon="13.317973367450838"><ele>71.0</ele><time>2026-04-26T10:21:47Z</time></trkpt><trkpt lat="37.412787065288946" lon="13.318028033743198"><ele>71.0</ele><time>2026-04-26T10:21:48Z</time></trkpt><trkpt lat="37.412877817932056" lon="13.318128000190969"><ele>71.0</ele><time>2026-04-26T10:21:50Z</time></trkpt><trkpt lat="37.41294507045801" lon="13.318252880045089"><ele>71.5</ele><time>2026-04-26T10:21:52Z</time></trkpt><trkpt lat="37.41298826385446" lon="13.318321903768064"><ele>72.0</ele><time>2026-04-26T10:21:53Z</time></trkpt><trkpt lat="37.413078853230274" lon="13.318450312452454"><ele>72.5</ele><time>2026-04-26T10:21:55Z</time></trkpt><trkpt lat="37.41312159633928" lon="13.318518658731819"><ele>73.0</ele><time>2026-04-26T10:21:56Z</time></trkpt><trkpt lat="37.413160646459154" lon="13.318591244746374"><ele>73.5</ele><time>2026-04-26T10:21:57Z</time></trkpt><trkpt lat="37.41319984478575" lon="13.318670733508204"><ele>74.0</ele><time>2026-04-26T10:21:58Z</time></trkpt><trkpt lat="37.413235997486034" lon="13.31874899841693"><ele>75.0</ele><time>2026-04-26T10:21:59Z</time></trkpt><trkpt lat="37.413267873409936" lon="13.318826182567244"><ele>76.0</ele><time>2026-04-26T10:22:00Z</time></trkpt><trkpt lat="37.413301290401144" lon="13.31895267262545"><ele>77.0</ele><time>2026-04-26T10:22:02.001Z</time></trkpt><trkpt lat="37.413338161149625" lon="13.31909443694895"><ele>78.0</ele><time>2026-04-26T10:22:04.001Z</time></trkpt><trkpt lat="37.41336691199073" lon="13.319232513802518"><ele>79.0</ele><time>2026-04-26T10:22:06.001Z</time></trkpt><trkpt lat="37.41335836018842" lon="13.319385822602381"><ele>80.6</ele><time>2026-04-26T10:22:08.001Z</time></trkpt><trkpt lat="37.413326931544546" lon="13.319523530530807"><ele>82.2</ele><time>2026-04-26T10:22:10.001Z</time></trkpt><trkpt lat="37.41332479918701" lon="13.31962299211084"><ele>83.8</ele><time>2026-04-26T10:22:12.001Z</time></trkpt><trkpt lat="37.41332022177205" lon="13.31975522200762"><ele>85.39999999999999</ele><time>2026-04-26T10:22:14.001Z</time></trkpt><trkpt lat="37.41330980406412" lon="13.31989310990298"><ele>87.0</ele><time>2026-04-26T10:22:16.001Z</time></trkpt><trkpt lat="37.41332091261138" lon="13.320022228489727"><ele>87.39999999999999</ele><time>2026-04-26T10:22:18.001Z</time></trkpt><trkpt lat="37.41335139508846" lon="13.320127477629715"><ele>87.8</ele><time>2026-04-26T10:22:20.001Z</time></trkpt><trkpt lat="37.41340989921202" lon="13.320223494031941"><ele>88.2</ele><time>2026-04-26T10:22:22.001Z</time></trkpt><trkpt lat="37.41345639013195" lon="13.320309397654944"><ele>88.6</ele><time>2026-04-26T10:22:24.001Z</time></trkpt><trkpt lat="37.4135288546739" lon="13.320418124056983"><ele>89.0</ele><time>2026-04-26T10:22:26.001Z</time></trkpt><trkpt lat="37.41360389154176" lon="13.320541324600697"><ele>88.33333333333334</ele><time>2026-04-26T10:22:28.001Z</time></trkpt><trkpt lat="37.41364283843263" lon="13.320604617141493"><ele>87.66666666666667</ele><time>2026-04-26T10:22:29.001Z</time></trkpt><trkpt lat="37.413687751862874" lon="13.32067396869008"><ele>87.0</ele><time>2026-04-26T10:22:30.001Z</time></trkpt><trkpt lat="37.41373837960633" lon="13.320741388869708"><ele>86.33333333333333</ele><time>2026-04-26T10:22:31.001Z</time></trkpt><trkpt lat="37.413782293971586" lon="13.320798958651931"><ele>85.66666666666666</ele><time>2026-04-26T10:22:32.001Z</time></trkpt><trkpt lat="37.41383420068391" lon="13.320861266157332"><ele>85.0</ele><time>2026-04-26T10:22:33.001Z</time></trkpt><trkpt lat="37.413941533897784" lon="13.320950044043942"><ele>84.4</ele><time>2026-04-26T10:22:35.001Z</time></trkpt><trkpt lat="37.413999727865374" lon="13.320988226457164"><ele>83.8</ele><time>2026-04-26T10:22:36.001Z</time></trkpt><trkpt lat="37.41408927987642" lon="13.321040761520678"><ele>83.19999999999999</ele><time>2026-04-26T10:22:38.001Z</time></trkpt><trkpt lat="37.41417329439314" lon="13.32110780285398"><ele>82.6</ele><time>2026-04-26T10:22:40.001Z</time></trkpt><trkpt lat="37.4142483912277" lon="13.321202018529263"><ele>82.0</ele><time>2026-04-26T10:22:42.001Z</time></trkpt><trkpt lat="37.414315221061685" lon="13.321307442703388"><ele>82.0</ele><time>2026-04-26T10:22:44.001Z</time></trkpt><trkpt lat="37.41437084777918" lon="13.321394508331528"><ele>82.0</ele><time>2026-04-26T10:22:46.001Z</time></trkpt><trkpt lat="37.4144391160024" lon="13.321501021658918"><ele>82.0</ele><time>2026-04-26T10:22:48.001Z</time></trkpt><trkpt lat="37.41450602434577" lon="13.321595600919924"><ele>82.0</ele><time>2026-04-26T10:22:50.001Z</time></trkpt><trkpt lat="37.41456431889832" lon="13.3217075769316"><ele>82.0</ele><time>2026-04-26T10:22:52.001Z</time></trkpt><trkpt lat="37.41460420951741" lon="13.321839245063455"><ele>82.0</ele><time>2026-04-26T10:22:54.001Z</time></trkpt><trkpt lat="37.41463131381628" lon="13.32197183854041"><ele>82.0</ele><time>2026-04-26T10:22:56.001Z</time></trkpt><trkpt lat="37.41466393979067" lon="13.32209269438707"><ele>82.0</ele><time>2026-04-26T10:22:58.001Z</time></trkpt><trkpt lat="37.414707965481895" lon="13.32223544700752"><ele>82.0</ele><time>2026-04-26T10:23:00.001Z</time></trkpt><trkpt lat="37.41473797619626" lon="13.322362709464885"><ele>82.0</ele><time>2026-04-26T10:23:02.001Z</time></trkpt><trkpt lat="37.41479968225493" lon="13.322468744613463"><ele>81.5</ele><time>2026-04-26T10:23:04.001Z</time></trkpt><trkpt lat="37.414824455244826" lon="13.322545805163037"><ele>81.0</ele><time>2026-04-26T10:23:05.001Z</time></trkpt><trkpt lat="37.41482799029549" lon="13.322627751289849"><ele>80.5</ele><time>2026-04-26T10:23:06.001Z</time></trkpt><trkpt lat="37.414763997109524" lon="13.32275761544633"><ele>80.0</ele><time>2026-04-26T10:23:08.001Z</time></trkpt><trkpt lat="37.41479727583498" lon="13.322896221061297"><ele>79.5</ele><time>2026-04-26T10:23:10.001Z</time></trkpt><trkpt lat="37.414805951469205" lon="13.322977486458745"><ele>79.0</ele><time>2026-04-26T10:23:11.001Z</time></trkpt><trkpt lat="37.414803972092535" lon="13.323056988138077"><ele>79.6</ele><time>2026-04-26T10:23:12.001Z</time></trkpt><trkpt lat="37.41476101981517" lon="13.32316347668525"><ele>80.2</ele><time>2026-04-26T10:23:14.001Z</time></trkpt><trkpt lat="37.41473280810635" lon="13.323313379144388"><ele>80.8</ele><time>2026-04-26T10:23:16.002Z</time></trkpt><trkpt lat="37.41470922264283" lon="13.323402203598542"><ele>81.39999999999999</ele><time>2026-04-26T10:23:17.002Z</time></trkpt><trkpt lat="37.41468484840406" lon="13.323493833855649"><ele>82.0</ele><time>2026-04-26T10:23:18.002Z</time></trkpt><trkpt lat="37.41465198800923" lon="13.323589916538895"><ele>81.0</ele><time>2026-04-26T10:23:19.002Z</time></trkpt><trkpt lat="37.414621315594005" lon="13.323704866410369"><ele>80.0</ele><time>2026-04-26T10:23:20.002Z</time></trkpt><trkpt lat="37.41459205293458" lon="13.323798143736406"><ele>79.0</ele><time>2026-04-26T10:23:21Z</time></trkpt><trkpt lat="37.414571120696586" lon="13.323885434080237"><ele>78.0</ele><time>2026-04-26T10:23:22Z</time></trkpt><trkpt lat="37.4145318317192" lon="13.323962025806644"><ele>77.0</ele><time>2026-04-26T10:23:23Z</time></trkpt><trkpt lat="37.41450707779031" lon="13.324046486867624"><ele>76.0</ele><time>2026-04-26T10:23:24Z</time></trkpt><trkpt lat="37.414492428800806" lon="13.324136446977922"><ele>76.0</ele><time>2026-04-26T10:23:25Z</time></trkpt><trkpt lat="37.41446595210864" lon="13.324228758280348"><ele>76.0</ele><time>2026-04-26T10:23:26Z</time></trkpt><trkpt lat="37.414442720013" lon="13.324320599274014"><ele>76.0</ele><time>2026-04-26T10:23:27Z</time></trkpt><trkpt lat="37.414400150671774" lon="13.32441241445851"><ele>76.0</ele><time>2026-04-26T10:23:28Z</time></trkpt><trkpt lat="37.41437113071373" lon="13.324512381111898"><ele>76.0</ele><time>2026-04-26T10:23:29Z</time></trkpt><trkpt lat="37.41434148750621" lon="13.324609453165964"><ele>76.0</ele><time>2026-04-26T10:23:30Z</time></trkpt><trkpt lat="37.4143033623909" lon="13.324705263204113"><ele>77.6</ele><time>2026-04-26T10:23:31Z</time></trkpt><trkpt lat="37.4142611777047" lon="13.324783991995025"><ele>79.19999999999999</ele><time>2026-04-26T10:23:32Z</time></trkpt><trkpt lat="37.41421345033272" lon="13.324875686386422"><ele>80.80000000000001</ele><time>2026-04-26T10:23:33Z</time></trkpt><trkpt lat="37.414124221867354" lon="13.32493332700095"><ele>82.4</ele><time>2026-04-26T10:23:34Z</time></trkpt><trkpt lat="37.414032035795145" lon="13.32499914311191"><ele>84.0</ele><time>2026-04-26T10:23:35Z</time></trkpt><trkpt lat="37.41393783793509" lon="13.325057618553398"><ele>84.0</ele><time>2026-04-26T10:23:36Z</time></trkpt><trkpt lat="37.41384800363579" lon="13.325132810096182"><ele>84.0</ele><time>2026-04-26T10:23:37Z</time></trkpt><trkpt lat="37.41375400068267" lon="13.325189329066502"><ele>84.0</ele><time>2026-04-26T10:23:38Z</time></trkpt><trkpt lat="37.41366274657761" lon="13.325221055081775"><ele>84.0</ele><time>2026-04-26T10:23:39Z</time></trkpt><trkpt lat="37.4135832033403" lon="13.325268616225207"><ele>84.0</ele><time>2026-04-26T10:23:40Z</time></trkpt><trkpt lat="37.413508957156566" lon="13.325313010081432"><ele>84.2</ele><time>2026-04-26T10:23:41Z</time></trkpt><trkpt lat="37.41342305033676" lon="13.325364811951326"><ele>84.4</ele><time>2026-04-26T10:23:42Z</time></trkpt><trkpt lat="37.41333803095123" lon="13.325416366534412"><ele>84.6</ele><time>2026-04-26T10:23:43Z</time></trkpt><trkpt lat="37.41323712355447" lon="13.325477555135313"><ele>84.8</ele><time>2026-04-26T10:23:44Z</time></trkpt><trkpt lat="37.41313060899601" lon="13.3255421440946"><ele>85.0</ele><time>2026-04-26T10:23:45Z</time></trkpt><trkpt lat="37.4130282670159" lon="13.325604202682891"><ele>83.25</ele><time>2026-04-26T10:23:46Z</time></trkpt><trkpt lat="37.41292805290607" lon="13.32566497097415"><ele>81.5</ele><time>2026-04-26T10:23:47Z</time></trkpt><trkpt lat="37.412817028434965" lon="13.325729991905366"><ele>79.75</ele><time>2026-04-26T10:23:48Z</time></trkpt><trkpt lat="37.41269984312618" lon="13.325793388039088"><ele>78.0</ele><time>2026-04-26T10:23:49Z</time></trkpt><trkpt lat="37.41257848222767" lon="13.325850988468146"><ele>78.0</ele><time>2026-04-26T10:23:50Z</time></trkpt><trkpt lat="37.412458712064776" lon="13.325902200274284"><ele>78.0</ele><time>2026-04-26T10:23:51Z</time></trkpt><trkpt lat="37.41234692719004" lon="13.325947640040479"><ele>78.0</ele><time>2026-04-26T10:23:52Z</time></trkpt><trkpt lat="37.412239926950846" lon="13.326008528136672"><ele>78.0</ele><time>2026-04-26T10:23:53Z</time></trkpt><trkpt lat="37.41213959107814" lon="13.326045655645911"><ele>76.83333333333333</ele><time>2026-04-26T10:23:54.001Z</time></trkpt><trkpt lat="37.41204602420107" lon="13.32607355814158"><ele>75.66666666666667</ele><time>2026-04-26T10:23:55.001Z</time></trkpt><trkpt lat="37.41196650570734" lon="13.32609755921613"><ele>74.5</ele><time>2026-04-26T10:23:56.001Z</time></trkpt><trkpt lat="37.411889699480795" lon="13.326130326340898"><ele>73.33333333333334</ele><time>2026-04-26T10:23:57.001Z</time></trkpt><trkpt lat="37.411812798832024" lon="13.326171940792296"><ele>72.16666666666667</ele><time>2026-04-26T10:23:58.001Z</time></trkpt><trkpt lat="37.411726372955016" lon="13.326220423962281"><ele>71.0</ele><time>2026-04-26T10:23:59.001Z</time></trkpt><trkpt lat="37.41163509898302" lon="13.326279651034088"><ele>71.0</ele><time>2026-04-26T10:24:00.001Z</time></trkpt><trkpt lat="37.41154664574193" lon="13.326349804202318"><ele>71.0</ele><time>2026-04-26T10:24:01.001Z</time></trkpt><trkpt lat="37.41146540328397" lon="13.326431055452549"><ele>71.0</ele><time>2026-04-26T10:24:02.001Z</time></trkpt><trkpt lat="37.411391625616226" lon="13.326513752945665"><ele>71.0</ele><time>2026-04-26T10:24:03.001Z</time></trkpt><trkpt lat="37.4113168372187" lon="13.326602055903441"><ele>71.0</ele><time>2026-04-26T10:24:04.001Z</time></trkpt><trkpt lat="37.411228918018544" lon="13.326672497735219"><ele>71.39999999999999</ele><time>2026-04-26T10:24:05.001Z</time></trkpt><trkpt lat="37.41115997250198" lon="13.326770624695754"><ele>71.8</ele><time>2026-04-26T10:24:06.001Z</time></trkpt><trkpt lat="37.411074019095246" lon="13.326859649330919"><ele>72.19999999999999</ele><time>2026-04-26T10:24:07.001Z</time></trkpt><trkpt lat="37.41099078691435" lon="13.326942790752618"><ele>72.6</ele><time>2026-04-26T10:24:08.001Z</time></trkpt><trkpt lat="37.41091345659835" lon="13.327033041608837"><ele>73.0</ele><time>2026-04-26T10:24:09.001Z</time></trkpt><trkpt lat="37.410824153864155" lon="13.327089584858987"><ele>73.0</ele><time>2026-04-26T10:24:10.001Z</time></trkpt><trkpt lat="37.4107426980221" lon="13.327162710159277"><ele>73.0</ele><time>2026-04-26T10:24:11.001Z</time></trkpt><trkpt lat="37.41063868228312" lon="13.32720801374756"><ele>73.0</ele><time>2026-04-26T10:24:12.001Z</time></trkpt><trkpt lat="37.4105435869945" lon="13.327211041748939"><ele>73.0</ele><time>2026-04-26T10:24:13.001Z</time></trkpt><trkpt lat="37.41045774090633" lon="13.327204229319507"><ele>73.0</ele><time>2026-04-26T10:24:14.001Z</time></trkpt><trkpt lat="37.4103757493019" lon="13.327218772940663"><ele>72.4</ele><time>2026-04-26T10:24:15.001Z</time></trkpt><trkpt lat="37.41030177170521" lon="13.327215102867319"><ele>71.8</ele><time>2026-04-26T10:24:16.001Z</time></trkpt><trkpt lat="37.41020968648616" lon="13.327208293004336"><ele>71.2</ele><time>2026-04-26T10:24:17.001Z</time></trkpt><trkpt lat="37.41012331395354" lon="13.327202427005629"><ele>70.6</ele><time>2026-04-26T10:24:18.001Z</time></trkpt><trkpt lat="37.41002132869376" lon="13.327195676310676"><ele>70.0</ele><time>2026-04-26T10:24:19.001Z</time></trkpt><trkpt lat="37.40991751736108" lon="13.327186986166122"><ele>70.0</ele><time>2026-04-26T10:24:20.001Z</time></trkpt><trkpt lat="37.40980496832434" lon="13.32719536407372"><ele>70.0</ele><time>2026-04-26T10:24:21.001Z</time></trkpt><trkpt lat="37.409702057909094" lon="13.327215743727393"><ele>70.0</ele><time>2026-04-26T10:24:22.001Z</time></trkpt><trkpt lat="37.409600392203124" lon="13.327255593000274"><ele>70.0</ele><time>2026-04-26T10:24:23.001Z</time></trkpt><trkpt lat="37.40950510206011" lon="13.32730635937675"><ele>70.0</ele><time>2026-04-26T10:24:24.001Z</time></trkpt><trkpt lat="37.4094119045978" lon="13.327369345350267"><ele>71.5</ele><time>2026-04-26T10:24:25.001Z</time></trkpt><trkpt lat="37.409317020606345" lon="13.3274399424165"><ele>73.0</ele><time>2026-04-26T10:24:26.001Z</time></trkpt><trkpt lat="37.40921428723345" lon="13.327505440526497"><ele>74.5</ele><time>2026-04-26T10:24:27.001Z</time></trkpt><trkpt lat="37.409113374344486" lon="13.327573802861082"><ele>76.0</ele><time>2026-04-26T10:24:28.001Z</time></trkpt><trkpt lat="37.409009300095285" lon="13.327640453334071"><ele>76.0</ele><time>2026-04-26T10:24:29.001Z</time></trkpt><trkpt lat="37.40890603898873" lon="13.327708796455356"><ele>76.0</ele><time>2026-04-26T10:24:30.001Z</time></trkpt><trkpt lat="37.40880754956342" lon="13.327771140610627"><ele>76.0</ele><time>2026-04-26T10:24:31.001Z</time></trkpt><trkpt lat="37.40871269214022" lon="13.327829286814275"><ele>76.0</ele><time>2026-04-26T10:24:32.001Z</time></trkpt><trkpt lat="37.40861311005012" lon="13.327892294663595"><ele>76.0</ele><time>2026-04-26T10:24:33.001Z</time></trkpt><trkpt lat="37.408522793586" lon="13.327953846917197"><ele>75.75</ele><time>2026-04-26T10:24:34.001Z</time></trkpt><trkpt lat="37.408446551682346" lon="13.328035369373607"><ele>75.5</ele><time>2026-04-26T10:24:35.001Z</time></trkpt><trkpt lat="37.408345312125306" lon="13.328236357977543"><ele>75.25</ele><time>2026-04-26T10:24:37.001Z</time></trkpt><trkpt lat="37.40832472270556" lon="13.328361037191566"><ele>75.0</ele><time>2026-04-26T10:24:38.001Z</time></trkpt><trkpt lat="37.40831984341146" lon="13.328490978307713"><ele>75.0</ele><time>2026-04-26T10:24:39.001Z</time></trkpt><trkpt lat="37.4083243526231" lon="13.32861876101844"><ele>75.0</ele><time>2026-04-26T10:24:40.001Z</time></trkpt><trkpt lat="37.40831298985947" lon="13.328750132678694"><ele>75.0</ele><time>2026-04-26T10:24:41.001Z</time></trkpt><trkpt lat="37.40831591732809" lon="13.3288729030437"><ele>75.0</ele><time>2026-04-26T10:24:42.001Z</time></trkpt><trkpt lat="37.40831789690726" lon="13.329011102841001"><ele>75.0</ele><time>2026-04-26T10:24:43.001Z</time></trkpt><trkpt lat="37.408309144929476" lon="13.329156954716105"><ele>75.2</ele><time>2026-04-26T10:24:44.001Z</time></trkpt><trkpt lat="37.40830493931057" lon="13.32930969563143"><ele>75.4</ele><time>2026-04-26T10:24:45.001Z</time></trkpt><trkpt lat="37.4082982488906" lon="13.329463569324272"><ele>75.6</ele><time>2026-04-26T10:24:46.001Z</time></trkpt><trkpt lat="37.4082974591898" lon="13.329564651398579"><ele>75.8</ele><time>2026-04-26T10:24:47.001Z</time></trkpt><trkpt lat="37.40830001787745" lon="13.32971218495809"><ele>76.0</ele><time>2026-04-26T10:24:48.001Z</time></trkpt><trkpt lat="37.40830216010154" lon="13.329863975715156"><ele>76.2</ele><time>2026-04-26T10:24:49.001Z</time></trkpt><trkpt lat="37.408290434412386" lon="13.32999353386929"><ele>76.39999999999999</ele><time>2026-04-26T10:24:50.001Z</time></trkpt><trkpt lat="37.40828772855874" lon="13.330114852663845"><ele>76.6</ele><time>2026-04-26T10:24:51.001Z</time></trkpt><trkpt lat="37.408299490025826" lon="13.330245492603241"><ele>76.8</ele><time>2026-04-26T10:24:52.001Z</time></trkpt><trkpt lat="37.40829282244393" lon="13.33038429220384"><ele>77.0</ele><time>2026-04-26T10:24:53.001Z</time></trkpt><trkpt lat="37.40827980010458" lon="13.330525179880276"><ele>77.4</ele><time>2026-04-26T10:24:54.001Z</time></trkpt><trkpt lat="37.4082777133236" lon="13.330667750368672"><ele>77.80000000000001</ele><time>2026-04-26T10:24:55.001Z</time></trkpt><trkpt lat="37.40829073386856" lon="13.330807735770298"><ele>78.2</ele><time>2026-04-26T10:24:56.001Z</time></trkpt><trkpt lat="37.408284821069614" lon="13.3309441013194"><ele>78.60000000000001</ele><time>2026-04-26T10:24:57.001Z</time></trkpt><trkpt lat="37.408282408503474" lon="13.331072122736565"><ele>79.0</ele><time>2026-04-26T10:24:58.001Z</time></trkpt><trkpt lat="37.40828172329441" lon="13.33117624312981"><ele>79.0</ele><time>2026-04-26T10:24:59.001Z</time></trkpt><trkpt lat="37.40827996690605" lon="13.331262240279095"><ele>79.0</ele><time>2026-04-26T10:25:00.001Z</time></trkpt><trkpt lat="37.40827157483934" lon="13.331359656252463"><ele>79.0</ele><time>2026-04-26T10:25:02.001Z</time></trkpt><trkpt lat="37.408266423241834" lon="13.331486312483065"><ele>79.0</ele><time>2026-04-26T10:25:04.001Z</time></trkpt><trkpt lat="37.40826670795417" lon="13.33157781300676"><ele>79.0</ele><time>2026-04-26T10:25:05.001Z</time></trkpt><trkpt lat="37.40825073347866" lon="13.33168090179852"><ele>79.0</ele><time>2026-04-26T10:25:06.001Z</time></trkpt><trkpt lat="37.408190386132006" lon="13.331774869234742"><ele>79.0</ele><time>2026-04-26T10:25:07.001Z</time></trkpt><trkpt lat="37.40813274706705" lon="13.331866622567832"><ele>79.0</ele><time>2026-04-26T10:25:08.001Z</time></trkpt><trkpt lat="37.40806389308692" lon="13.331934619026958"><ele>79.0</ele><time>2026-04-26T10:25:09.001Z</time></trkpt><trkpt lat="37.40800246186905" lon="13.33196941627168"><ele>79.0</ele><time>2026-04-26T10:25:10.001Z</time></trkpt><trkpt lat="37.40792499752857" lon="13.332006920407377"><ele>79.0</ele><time>2026-04-26T10:25:12.001Z</time></trkpt><trkpt lat="37.407856479835075" lon="13.332001806190968"><ele>79.0</ele><time>2026-04-26T10:25:14.002Z</time></trkpt><trkpt lat="37.407791351268315" lon="13.331865364818562"><ele>79.0</ele><time>2026-04-26T10:25:16.002Z</time></trkpt><trkpt lat="37.4077269394097" lon="13.331779460899503"><ele>79.0</ele><time>2026-04-26T10:25:17.002Z</time></trkpt><trkpt lat="37.40766323386772" lon="13.331693078879145"><ele>79.0</ele><time>2026-04-26T10:25:18.002Z</time></trkpt><trkpt lat="37.40758721931236" lon="13.331612709561117"><ele>79.0</ele><time>2026-04-26T10:25:19.002Z</time></trkpt><trkpt lat="37.40751449124394" lon="13.331504178204773"><ele>79.0</ele><time>2026-04-26T10:25:20.002Z</time></trkpt><trkpt lat="37.40743273432214" lon="13.331390075822414"><ele>79.0</ele><time>2026-04-26T10:25:21.002Z</time></trkpt><trkpt lat="37.40735829894617" lon="13.331278477812544"><ele>79.0</ele><time>2026-04-26T10:25:22.002Z</time></trkpt><trkpt lat="37.40727912589172" lon="13.331171130911152"><ele>79.0</ele><time>2026-04-26T10:25:23.002Z</time></trkpt><trkpt lat="37.40718838895915" lon="13.331083988065267"><ele>79.0</ele><time>2026-04-26T10:25:24.002Z</time></trkpt><trkpt lat="37.40708896096813" lon="13.33102977713839"><ele>79.4</ele><time>2026-04-26T10:25:25.002Z</time></trkpt><trkpt lat="37.406974997172945" lon="13.33101440515862"><ele>79.80000000000001</ele><time>2026-04-26T10:25:26.002Z</time></trkpt><trkpt lat="37.40686436175521" lon="13.331034445998334"><ele>80.19999999999999</ele><time>2026-04-26T10:25:27Z</time></trkpt><trkpt lat="37.406773001086144" lon="13.331090527345133"><ele>80.6</ele><time>2026-04-26T10:25:28Z</time></trkpt><trkpt lat="37.40669030308347" lon="13.331164651537604"><ele>81.0</ele><time>2026-04-26T10:25:29Z</time></trkpt><trkpt lat="37.40660723691831" lon="13.331255534053769"><ele>81.0</ele><time>2026-04-26T10:25:30Z</time></trkpt><trkpt lat="37.40651052554646" lon="13.331350133801811"><ele>81.0</ele><time>2026-04-26T10:25:31Z</time></trkpt><trkpt lat="37.406398848043494" lon="13.331428240052954"><ele>81.0</ele><time>2026-04-26T10:25:32Z</time></trkpt><trkpt lat="37.40629159627795" lon="13.331536865622626"><ele>81.0</ele><time>2026-04-26T10:25:33Z</time></trkpt><trkpt lat="37.40616813805202" lon="13.331637977763522"><ele>80.0</ele><time>2026-04-26T10:25:34Z</time></trkpt><trkpt lat="37.406046522163585" lon="13.33174214646519"><ele>79.0</ele><time>2026-04-26T10:25:35Z</time></trkpt><trkpt lat="37.405929255650825" lon="13.331845407836227"><ele>78.0</ele><time>2026-04-26T10:25:36Z</time></trkpt><trkpt lat="37.40581023667693" lon="13.331952477550367"><ele>77.0</ele><time>2026-04-26T10:25:37Z</time></trkpt><trkpt lat="37.405690336276365" lon="13.332057875893454"><ele>77.0</ele><time>2026-04-26T10:25:38Z</time></trkpt><trkpt lat="37.40555546043979" lon="13.332173927553324"><ele>77.0</ele><time>2026-04-26T10:25:39Z</time></trkpt><trkpt lat="37.40543715353153" lon="13.332274119392446"><ele>77.0</ele><time>2026-04-26T10:25:40Z</time></trkpt><trkpt lat="37.405321929138935" lon="13.33237521641019"><ele>77.0</ele><time>2026-04-26T10:25:41Z</time></trkpt><trkpt lat="37.40519225166575" lon="13.332459696562571"><ele>76.5</ele><time>2026-04-26T10:25:42Z</time></trkpt><trkpt lat="37.405073545294734" lon="13.332543661421735"><ele>76.0</ele><time>2026-04-26T10:25:43.001Z</time></trkpt><trkpt lat="37.40494937622567" lon="13.33260389732368"><ele>75.5</ele><time>2026-04-26T10:25:44.001Z</time></trkpt><trkpt lat="37.40483519419795" lon="13.332602660025133"><ele>75.0</ele><time>2026-04-26T10:25:45.001Z</time></trkpt><trkpt lat="37.40472315830204" lon="13.332553698401306"><ele>74.5</ele><time>2026-04-26T10:25:46.001Z</time></trkpt><trkpt lat="37.40460758037825" lon="13.332470397297467"><ele>74.0</ele><time>2026-04-26T10:25:47.001Z</time></trkpt><trkpt lat="37.404494834466256" lon="13.33237178027385"><ele>73.5</ele><time>2026-04-26T10:25:48.001Z</time></trkpt><trkpt lat="37.40437966934884" lon="13.332259415369434"><ele>73.0</ele><time>2026-04-26T10:25:49.001Z</time></trkpt><trkpt lat="37.40426137253613" lon="13.33214297366889"><ele>73.0</ele><time>2026-04-26T10:25:50.001Z</time></trkpt><trkpt lat="37.40414831136992" lon="13.332067242139084"><ele>73.0</ele><time>2026-04-26T10:25:51.001Z</time></trkpt><trkpt lat="37.40404189048404" lon="13.331995169676997"><ele>73.0</ele><time>2026-04-26T10:25:52.001Z</time></trkpt><trkpt lat="37.40392066298264" lon="13.331944980668608"><ele>73.0</ele><time>2026-04-26T10:25:53.001Z</time></trkpt><trkpt lat="37.40378821338364" lon="13.331921934178325"><ele>73.0</ele><time>2026-04-26T10:25:54.001Z</time></trkpt><trkpt lat="37.4036440717478" lon="13.331924056671289"><ele>73.0</ele><time>2026-04-26T10:25:55.001Z</time></trkpt><trkpt lat="37.40349097211058" lon="13.33194833537934"><ele>73.0</ele><time>2026-04-26T10:25:56.001Z</time></trkpt><trkpt lat="37.403330970798415" lon="13.331955872857426"><ele>73.0</ele><time>2026-04-26T10:25:57.001Z</time></trkpt><trkpt lat="37.4031715968252" lon="13.331975352542225"><ele>73.0</ele><time>2026-04-26T10:25:58.001Z</time></trkpt><trkpt lat="37.40301014455694" lon="13.331996370305886"><ele>73.0</ele><time>2026-04-26T10:25:59.001Z</time></trkpt><trkpt lat="37.40283320508883" lon="13.332019371891288"><ele>72.33333333333333</ele><time>2026-04-26T10:26:00.001Z</time></trkpt><trkpt lat="37.402671296266824" lon="13.332039827393169"><ele>71.66666666666667</ele><time>2026-04-26T10:26:01.001Z</time></trkpt><trkpt lat="37.402496702797286" lon="13.332060716620628"><ele>71.0</ele><time>2026-04-26T10:26:02.001Z</time></trkpt><trkpt lat="37.40232740040135" lon="13.332098561465605"><ele>71.66666666666667</ele><time>2026-04-26T10:26:03.001Z</time></trkpt><trkpt lat="37.402160897017204" lon="13.332099250142376"><ele>72.33333333333333</ele><time>2026-04-26T10:26:04.001Z</time></trkpt><trkpt lat="37.401994305784456" lon="13.332120341211738"><ele>73.0</ele><time>2026-04-26T10:26:05.001Z</time></trkpt><trkpt lat="37.40182737922929" lon="13.332146062253706"><ele>73.0</ele><time>2026-04-26T10:26:06.001Z</time></trkpt><trkpt lat="37.40167120161616" lon="13.332201645417026"><ele>73.0</ele><time>2026-04-26T10:26:07.001Z</time></trkpt><trkpt lat="37.40150870585646" lon="13.332252892973134"><ele>73.0</ele><time>2026-04-26T10:26:08.001Z</time></trkpt><trkpt lat="37.40133320331032" lon="13.332294200953989"><ele>77.0</ele><time>2026-04-26T10:26:09.001Z</time></trkpt><trkpt lat="37.4011659744013" lon="13.332351778885654"><ele>81.0</ele><time>2026-04-26T10:26:10.001Z</time></trkpt><trkpt lat="37.400993602829104" lon="13.332413122866834"><ele>85.0</ele><time>2026-04-26T10:26:11.001Z</time></trkpt><trkpt lat="37.40081592361483" lon="13.332478003761475"><ele>85.0</ele><time>2026-04-26T10:26:12.001Z</time></trkpt><trkpt lat="37.40064532842104" lon="13.332561249388203"><ele>85.0</ele><time>2026-04-26T10:26:13.001Z</time></trkpt><trkpt lat="37.40047915491312" lon="13.332615420570527"><ele>85.0</ele><time>2026-04-26T10:26:14.001Z</time></trkpt><trkpt lat="37.40032448793324" lon="13.332672222439507"><ele>84.33333333333333</ele><time>2026-04-26T10:26:15.001Z</time></trkpt><trkpt lat="37.40016136115906" lon="13.332741017211195"><ele>83.66666666666667</ele><time>2026-04-26T10:26:16.001Z</time></trkpt><trkpt lat="37.400004582588664" lon="13.332823874589575"><ele>83.0</ele><time>2026-04-26T10:26:17.001Z</time></trkpt><trkpt lat="37.399863983314454" lon="13.332922810129023"><ele>83.0</ele><time>2026-04-26T10:26:18.001Z</time></trkpt><trkpt lat="37.39971949990631" lon="13.333043126102439"><ele>83.0</ele><time>2026-04-26T10:26:19.001Z</time></trkpt><trkpt lat="37.399563267213274" lon="13.333144076010074"><ele>83.0</ele><time>2026-04-26T10:26:20.001Z</time></trkpt><trkpt lat="37.399412079006595" lon="13.333264013787922"><ele>83.33333333333334</ele><time>2026-04-26T10:26:21.001Z</time></trkpt><trkpt lat="37.39926176987971" lon="13.333382504084794"><ele>83.66666666666667</ele><time>2026-04-26T10:26:22.001Z</time></trkpt><trkpt lat="37.39911024022504" lon="13.333501797010538"><ele>84.0</ele><time>2026-04-26T10:26:23.001Z</time></trkpt><trkpt lat="37.398957666984515" lon="13.33362191797464"><ele>83.33333333333333</ele><time>2026-04-26T10:26:24.001Z</time></trkpt><trkpt lat="37.3988083932194" lon="13.333739441250518"><ele>82.66666666666666</ele><time>2026-04-26T10:26:25.001Z</time></trkpt><trkpt lat="37.39866058452697" lon="13.333855811228124"><ele>82.0</ele><time>2026-04-26T10:26:26.001Z</time></trkpt><trkpt lat="37.39851127955556" lon="13.333973358988626"><ele>83.66666666666666</ele><time>2026-04-26T10:26:27.001Z</time></trkpt><trkpt lat="37.398365046094035" lon="13.334088488880381"><ele>85.33333333333333</ele><time>2026-04-26T10:26:28.001Z</time></trkpt><trkpt lat="37.398219490670165" lon="13.334205702900586"><ele>87.0</ele><time>2026-04-26T10:26:29.001Z</time></trkpt><trkpt lat="37.39806605653038" lon="13.334332271895505"><ele>86.33333333333333</ele><time>2026-04-26T10:26:30.001Z</time></trkpt><trkpt lat="37.39792296441787" lon="13.334455152974575"><ele>85.66666666666666</ele><time>2026-04-26T10:26:31.001Z</time></trkpt><trkpt lat="37.39778271705148" lon="13.334586633799928"><ele>85.0</ele><time>2026-04-26T10:26:32.001Z</time></trkpt><trkpt lat="37.39764412029801" lon="13.334724876139397"><ele>86.66666666666666</ele><time>2026-04-26T10:26:33.001Z</time></trkpt><trkpt lat="37.397511997255364" lon="13.334862171759873"><ele>88.33333333333333</ele><time>2026-04-26T10:26:34.001Z</time></trkpt><trkpt lat="37.39738226666705" lon="13.334997636730156"><ele>90.0</ele><time>2026-04-26T10:26:35.001Z</time></trkpt><trkpt lat="37.397258930750944" lon="13.335148076794178"><ele>89.33333333333333</ele><time>2026-04-26T10:26:36.001Z</time></trkpt><trkpt lat="37.39713206265539" lon="13.335275051645546"><ele>88.66666666666666</ele><time>2026-04-26T10:26:37.001Z</time></trkpt><trkpt lat="37.39700369807231" lon="13.33540350555889"><ele>88.0</ele><time>2026-04-26T10:26:38.001Z</time></trkpt><trkpt lat="37.396887381662104" lon="13.335523498613462"><ele>89.66666666666666</ele><time>2026-04-26T10:26:39.001Z</time></trkpt><trkpt lat="37.39675652103508" lon="13.335651523815404"><ele>91.33333333333333</ele><time>2026-04-26T10:26:40.001Z</time></trkpt><trkpt lat="37.39663425578151" lon="13.33577613703314"><ele>93.0</ele><time>2026-04-26T10:26:41.001Z</time></trkpt><trkpt lat="37.39652458109784" lon="13.335889610161987"><ele>93.0</ele><time>2026-04-26T10:26:42.001Z</time></trkpt><trkpt lat="37.396433547426" lon="13.335987558410219"><ele>93.0</ele><time>2026-04-26T10:26:43.001Z</time></trkpt><trkpt lat="37.396345808137404" lon="13.336078628008913"><ele>93.0</ele><time>2026-04-26T10:26:44.001Z</time></trkpt><trkpt lat="37.39624454170763" lon="13.336180133170856"><ele>93.0</ele><time>2026-04-26T10:26:45.001Z</time></trkpt><trkpt lat="37.39615972181488" lon="13.336275605946025"><ele>93.75</ele><time>2026-04-26T10:26:46.001Z</time></trkpt><trkpt lat="37.3960635001839" lon="13.336387593946187"><ele>94.5</ele><time>2026-04-26T10:26:47.001Z</time></trkpt><trkpt lat="37.395972413427515" lon="13.336507073374229"><ele>95.25</ele><time>2026-04-26T10:26:48.001Z</time></trkpt><trkpt lat="37.39588411609573" lon="13.336639492901236"><ele>96.0</ele><time>2026-04-26T10:26:49.001Z</time></trkpt><trkpt lat="37.395794664628156" lon="13.336783366282997"><ele>96.0</ele><time>2026-04-26T10:26:50.001Z</time></trkpt><trkpt lat="37.39571381832347" lon="13.336932609514545"><ele>96.0</ele><time>2026-04-26T10:26:51.001Z</time></trkpt><trkpt lat="37.39563814621542" lon="13.337086419295021"><ele>96.0</ele><time>2026-04-26T10:26:52.001Z</time></trkpt><trkpt lat="37.395565504084715" lon="13.3372416656331"><ele>96.0</ele><time>2026-04-26T10:26:53.001Z</time></trkpt><trkpt lat="37.395496225744374" lon="13.337393242661891"><ele>96.5</ele><time>2026-04-26T10:26:54.001Z</time></trkpt><trkpt lat="37.395427331011" lon="13.337549246788429"><ele>97.0</ele><time>2026-04-26T10:26:55.001Z</time></trkpt><trkpt lat="37.39535856806355" lon="13.337706902125865"><ele>97.5</ele><time>2026-04-26T10:26:56.001Z</time></trkpt><trkpt lat="37.39528861177756" lon="13.337866238530214"><ele>98.0</ele><time>2026-04-26T10:26:57.001Z</time></trkpt><trkpt lat="37.39521831589347" lon="13.338018695915888"><ele>98.75</ele><time>2026-04-26T10:26:58.001Z</time></trkpt><trkpt lat="37.39513427465469" lon="13.338171680488962"><ele>99.5</ele><time>2026-04-26T10:26:59.001Z</time></trkpt><trkpt lat="37.39507658400129" lon="13.338331141812084"><ele>100.25</ele><time>2026-04-26T10:27:00.002Z</time></trkpt><trkpt lat="37.394990668111575" lon="13.338494106951664"><ele>101.0</ele><time>2026-04-26T10:27:01.002Z</time></trkpt><trkpt lat="37.39491357809945" lon="13.338668038576305"><ele>101.0</ele><time>2026-04-26T10:27:02.002Z</time></trkpt><trkpt lat="37.394839618194304" lon="13.338838801885336"><ele>101.0</ele><time>2026-04-26T10:27:03.002Z</time></trkpt><trkpt lat="37.39476916891919" lon="13.33900870556319"><ele>101.0</ele><time>2026-04-26T10:27:04.002Z</time></trkpt><trkpt lat="37.39471796447915" lon="13.339180370760644"><ele>100.66666666666666</ele><time>2026-04-26T10:27:05.002Z</time></trkpt><trkpt lat="37.39468333427936" lon="13.339372382334439"><ele>100.33333333333334</ele><time>2026-04-26T10:27:06.002Z</time></trkpt><trkpt lat="37.39466204502087" lon="13.339585179048171"><ele>100.0</ele><time>2026-04-26T10:27:07.002Z</time></trkpt><trkpt lat="37.394662684413845" lon="13.339788950492643"><ele>101.66666666666667</ele><time>2026-04-26T10:27:08.001Z</time></trkpt><trkpt lat="37.39468123486149" lon="13.339998081052725"><ele>103.33333333333334</ele><time>2026-04-26T10:27:09.001Z</time></trkpt><trkpt lat="37.39470582496467" lon="13.340210558194926"><ele>105.0</ele><time>2026-04-26T10:27:10.001Z</time></trkpt><trkpt lat="37.39472581933723" lon="13.34042555917276"><ele>104.33333333333334</ele><time>2026-04-26T10:27:11.001Z</time></trkpt><trkpt lat="37.39474135647558" lon="13.340652581247108"><ele>103.66666666666667</ele><time>2026-04-26T10:27:12.001Z</time></trkpt><trkpt lat="37.39475702409751" lon="13.340887274711358"><ele>103.0</ele><time>2026-04-26T10:27:13.001Z</time></trkpt><trkpt lat="37.39477585976711" lon="13.341128272549906"><ele>103.0</ele><time>2026-04-26T10:27:14.001Z</time></trkpt><trkpt lat="37.39479234740038" lon="13.341381073053572"><ele>103.0</ele><time>2026-04-26T10:27:15.001Z</time></trkpt><trkpt lat="37.39480666799541" lon="13.3416127287138"><ele>103.0</ele><time>2026-04-26T10:27:16.001Z</time></trkpt><trkpt lat="37.39482021087843" lon="13.341846719987334"><ele>101.33333333333334</ele><time>2026-04-26T10:27:17.001Z</time></trkpt><trkpt lat="37.39483524201998" lon="13.342084449631294"><ele>99.66666666666666</ele><time>2026-04-26T10:27:18.001Z</time></trkpt><trkpt lat="37.39485132666006" lon="13.342318058701679"><ele>98.0</ele><time>2026-04-26T10:27:19.001Z</time></trkpt><trkpt lat="37.394866772824614" lon="13.342540276876328"><ele>97.66666666666666</ele><time>2026-04-26T10:27:20.001Z</time></trkpt><trkpt lat="37.394884588236856" lon="13.342769931790489"><ele>97.33333333333334</ele><time>2026-04-26T10:27:21.001Z</time></trkpt><trkpt lat="37.394899994114866" lon="13.342996104244582"><ele>97.0</ele><time>2026-04-26T10:27:22.001Z</time></trkpt><trkpt lat="37.394913792634796" lon="13.343215756790395"><ele>96.33333333333334</ele><time>2026-04-26T10:27:23.001Z</time></trkpt><trkpt lat="37.39493131952884" lon="13.343442675047354"><ele>95.66666666666667</ele><time>2026-04-26T10:27:24.001Z</time></trkpt><trkpt lat="37.39494856892702" lon="13.343659758892507"><ele>95.0</ele><time>2026-04-26T10:27:25.001Z</time></trkpt><trkpt lat="37.394963884316034" lon="13.343883387077009"><ele>95.0</ele><time>2026-04-26T10:27:26.001Z</time></trkpt><trkpt lat="37.39497672717306" lon="13.344103000947328"><ele>95.0</ele><time>2026-04-26T10:27:27.001Z</time></trkpt><trkpt lat="37.39498661662407" lon="13.344309044600315"><ele>95.0</ele><time>2026-04-26T10:27:28.001Z</time></trkpt><trkpt lat="37.39500263262581" lon="13.344534124703234"><ele>96.0</ele><time>2026-04-26T10:27:29.001Z</time></trkpt><trkpt lat="37.39501737861086" lon="13.34474079577442"><ele>97.0</ele><time>2026-04-26T10:27:30.001Z</time></trkpt><trkpt lat="37.39503313070299" lon="13.344947037412123"><ele>98.0</ele><time>2026-04-26T10:27:31.001Z</time></trkpt><trkpt lat="37.395052669904764" lon="13.345160019154699"><ele>98.0</ele><time>2026-04-26T10:27:32.001Z</time></trkpt><trkpt lat="37.395053880258786" lon="13.34537096215418"><ele>98.0</ele><time>2026-04-26T10:27:33Z</time></trkpt><trkpt lat="37.39506868251365" lon="13.3455881270393"><ele>98.0</ele><time>2026-04-26T10:27:34Z</time></trkpt><trkpt lat="37.39508241294156" lon="13.345792652022991"><ele>99.33333333333333</ele><time>2026-04-26T10:27:35Z</time></trkpt><trkpt lat="37.39509573188865" lon="13.346002597938025"><ele>100.66666666666666</ele><time>2026-04-26T10:27:36Z</time></trkpt><trkpt lat="37.39512305842558" lon="13.346188432343396"><ele>102.0</ele><time>2026-04-26T10:27:37Z</time></trkpt><trkpt lat="37.39512322480834" lon="13.34637970291867"><ele>102.5</ele><time>2026-04-26T10:27:38Z</time></trkpt><trkpt lat="37.39514253029882" lon="13.346556512222914"><ele>103.0</ele><time>2026-04-26T10:27:39Z</time></trkpt><trkpt lat="37.395154536019064" lon="13.346737666778207"><ele>103.5</ele><time>2026-04-26T10:27:40Z</time></trkpt><trkpt lat="37.39516543509399" lon="13.346916293536966"><ele>104.0</ele><time>2026-04-26T10:27:41Z</time></trkpt><trkpt lat="37.395171101068385" lon="13.347072641835641"><ele>103.6</ele><time>2026-04-26T10:27:42Z</time></trkpt><trkpt lat="37.3951766231681" lon="13.34722974841597"><ele>103.2</ele><time>2026-04-26T10:27:43Z</time></trkpt><trkpt lat="37.39518425912365" lon="13.347366144832455"><ele>102.8</ele><time>2026-04-26T10:27:44Z</time></trkpt><trkpt lat="37.395193444007425" lon="13.347484620788542"><ele>102.39999999999999</ele><time>2026-04-26T10:27:45Z</time></trkpt><trkpt lat="37.395197383767254" lon="13.347601110890851"><ele>102.0</ele><time>2026-04-26T10:27:46Z</time></trkpt><trkpt lat="37.395203670722076" lon="13.347726786860923"><ele>102.0</ele><time>2026-04-26T10:27:47Z</time></trkpt><trkpt lat="37.39520730273809" lon="13.347874944286358"><ele>102.0</ele><time>2026-04-26T10:27:48Z</time></trkpt><trkpt lat="37.39521386889456" lon="13.348040898243953"><ele>102.0</ele><time>2026-04-26T10:27:49Z</time></trkpt><trkpt lat="37.395200669939705" lon="13.348212721939625"><ele>102.0</ele><time>2026-04-26T10:27:50Z</time></trkpt><trkpt lat="37.395200973026945" lon="13.348374738829898"><ele>102.8</ele><time>2026-04-26T10:27:51Z</time></trkpt><trkpt lat="37.39520561504414" lon="13.348542648889747"><ele>103.6</ele><time>2026-04-26T10:27:52Z</time></trkpt><trkpt lat="37.39520203136154" lon="13.348676771691297"><ele>104.39999999999999</ele><time>2026-04-26T10:27:53Z</time></trkpt><trkpt lat="37.39520203136142" lon="13.348806299044282"><ele>105.19999999999999</ele><time>2026-04-26T10:27:54Z</time></trkpt><trkpt lat="37.39520213026635" lon="13.34893147808951"><ele>106.0</ele><time>2026-04-26T10:27:55Z</time></trkpt><trkpt lat="37.39520245792365" lon="13.349072101505975"><ele>107.0</ele><time>2026-04-26T10:27:56Z</time></trkpt><trkpt lat="37.39520279196563" lon="13.349215465143848"><ele>108.0</ele><time>2026-04-26T10:27:57Z</time></trkpt><trkpt lat="37.395203155551734" lon="13.349371509710046"><ele>109.0</ele><time>2026-04-26T10:27:58Z</time></trkpt><trkpt lat="37.395203131372156" lon="13.349526751817637"><ele>110.0</ele><time>2026-04-26T10:27:59Z</time></trkpt><trkpt lat="37.3952031313738" lon="13.349662621976467"><ele>110.33333333333333</ele><time>2026-04-26T10:28:00Z</time></trkpt><trkpt lat="37.39520313137484" lon="13.349776331217402"><ele>110.66666666666666</ele><time>2026-04-26T10:28:01Z</time></trkpt><trkpt lat="37.39520313137617" lon="13.349869192827093"><ele>111.0</ele><time>2026-04-26T10:28:02Z</time></trkpt><trkpt lat="37.395198763580005" lon="13.350033607915288"><ele>111.33333333333334</ele><time>2026-04-26T10:28:04Z</time></trkpt><trkpt lat="37.39518406756051" lon="13.350112590513806"><ele>111.66666666666667</ele><time>2026-04-26T10:28:06Z</time></trkpt><trkpt lat="37.39516370280841" lon="13.350222351318921"><ele>112.0</ele><time>2026-04-26T10:28:09Z</time></trkpt><trkpt lat="37.39528480441653" lon="13.350297567657984"><ele>112.00000000000001</ele><time>2026-04-26T10:28:10Z</time></trkpt><trkpt lat="37.39533609484683" lon="13.350357553708095"><ele>112.0</ele><time>2026-04-26T10:28:11Z</time></trkpt><trkpt lat="37.39538535129271" lon="13.350415780416476"><ele>112.0</ele><time>2026-04-26T10:28:12Z</time></trkpt><trkpt lat="37.39546949543712" lon="13.350527968013676"><ele>112.0</ele><time>2026-04-26T10:28:14Z</time></trkpt><trkpt lat="37.395529544287875" lon="13.350605072362322"><ele>112.00000000000001</ele><time>2026-04-26T10:28:16Z</time></trkpt><trkpt lat="37.395503808921454" lon="13.350690050376626"><ele>112.0</ele><time>2026-04-26T10:28:25Z</time></trkpt><trkpt lat="37.395362587553045" lon="13.35081814534511"><ele>111.83333333333334</ele><time>2026-04-26T10:28:29Z</time></trkpt><trkpt lat="37.39533115433121" lon="13.350910324828543"><ele>111.66666666666667</ele><time>2026-04-26T10:28:32Z</time></trkpt><trkpt lat="37.39536351086478" lon="13.351002334117466"><ele>111.5</ele><time>2026-04-26T10:28:34Z</time></trkpt><trkpt lat="37.39542536411082" lon="13.351114021042195"><ele>111.33333333333334</ele><time>2026-04-26T10:28:36Z</time></trkpt><trkpt lat="37.39544857357649" lon="13.351225844269782"><ele>111.16666666666667</ele><time>2026-04-26T10:28:38Z</time></trkpt><trkpt lat="37.39545040087523" lon="13.351329055990478"><ele>111.0</ele><time>2026-04-26T10:28:40Z</time></trkpt><trkpt lat="37.39543224461441" lon="13.351488169025561"><ele>112.0</ele><time>2026-04-26T10:28:42Z</time></trkpt><trkpt lat="37.395431900497044" lon="13.351608634852406"><ele>113.0</ele><time>2026-04-26T10:28:44Z</time></trkpt><trkpt lat="37.395428206001164" lon="13.351718753042386"><ele>114.0</ele><time>2026-04-26T10:28:46Z</time></trkpt><trkpt lat="37.39539302887942" lon="13.351824873068065"><ele>115.0</ele><time>2026-04-26T10:28:48.001Z</time></trkpt><trkpt lat="37.39536823250037" lon="13.351970712049209"><ele>116.0</ele><time>2026-04-26T10:28:50.001Z</time></trkpt><trkpt lat="37.3953213555169" lon="13.35207759016983"><ele>115.99999999999999</ele><time>2026-04-26T10:28:52.001Z</time></trkpt><trkpt lat="37.39523992885633" lon="13.35213604446422"><ele>116.0</ele><time>2026-04-26T10:28:54.001Z</time></trkpt><trkpt lat="37.39515391332492" lon="13.352168653835298"><ele>116.0</ele><time>2026-04-26T10:28:56.001Z</time></trkpt><trkpt lat="37.39522831862002" lon="13.352148650420133"><ele>116.0</ele><time>2026-04-26T10:29:37.001Z</time></trkpt><trkpt lat="37.39529535373435" lon="13.352099304590897"><ele>115.99999999999999</ele><time>2026-04-26T10:29:40Z</time></trkpt><trkpt lat="37.39534608227791" lon="13.352024341647727"><ele>116.0</ele><time>2026-04-26T10:29:43Z</time></trkpt><trkpt lat="37.39537672244291" lon="13.351911762616849"><ele>115.99999999999999</ele><time>2026-04-26T10:29:46Z</time></trkpt><trkpt lat="37.3953890887339" lon="13.351831331770136"><ele>116.0</ele><time>2026-04-26T10:29:48Z</time></trkpt><trkpt lat="37.39541357166985" lon="13.35175422005557"><ele>116.0</ele><time>2026-04-26T10:29:52Z</time></trkpt><trkpt lat="37.395422081006195" lon="13.351656778663733"><ele>116.0</ele><time>2026-04-26T10:30:01Z</time></trkpt><trkpt lat="37.39542149205634" lon="13.351562251639441"><ele>115.99999999999999</ele><time>2026-04-26T10:30:03Z</time></trkpt><trkpt lat="37.39542406474237" lon="13.351423909984682"><ele>116.0</ele><time>2026-04-26T10:30:05Z</time></trkpt><trkpt lat="37.39543636054969" lon="13.351317817718169"><ele>115.0</ele><time>2026-04-26T10:30:07Z</time></trkpt><trkpt lat="37.39543561319908" lon="13.351194139738167"><ele>114.0</ele><time>2026-04-26T10:30:09Z</time></trkpt><trkpt lat="37.39540807206897" lon="13.351087906512367"><ele>113.0</ele><time>2026-04-26T10:30:11Z</time></trkpt><trkpt lat="37.39535430355766" lon="13.350978368070376"><ele>112.0</ele><time>2026-04-26T10:30:13Z</time></trkpt><trkpt lat="37.39530642529924" lon="13.350883847471792"><ele>111.0</ele><time>2026-04-26T10:30:15Z</time></trkpt><trkpt lat="37.39525229697143" lon="13.350763254890534"><ele>111.0</ele><time>2026-04-26T10:30:17Z</time></trkpt><trkpt lat="37.395208368250316" lon="13.350695524848076"><ele>111.0</ele><time>2026-04-26T10:30:18Z</time></trkpt><trkpt lat="37.39516382274159" lon="13.350635460810887"><ele>111.0</ele><time>2026-04-26T10:30:19Z</time></trkpt><trkpt lat="37.39508342143927" lon="13.350522145200523"><ele>111.0</ele><time>2026-04-26T10:30:21Z</time></trkpt><trkpt lat="37.3950288317085" lon="13.350427365114637"><ele>111.0</ele><time>2026-04-26T10:30:23Z</time></trkpt><trkpt lat="37.39500361000348" lon="13.350340424574057"><ele>111.0</ele><time>2026-04-26T10:30:25Z</time></trkpt><trkpt lat="37.39498679157792" lon="13.350255300091828"><ele>111.16666666666667</ele><time>2026-04-26T10:30:27Z</time></trkpt><trkpt lat="37.39496230014872" lon="13.350157840145378"><ele>111.33333333333334</ele><time>2026-04-26T10:30:30Z</time></trkpt><trkpt lat="37.39488995940898" lon="13.350166955270838"><ele>111.5</ele><time>2026-04-26T10:30:31Z</time></trkpt><trkpt lat="37.39482337086898" lon="13.35015878995302"><ele>111.66666666666667</ele><time>2026-04-26T10:30:34Z</time></trkpt><trkpt lat="37.39481714930193" lon="13.350027035416113"><ele>111.83333333333334</ele><time>2026-04-26T10:30:37.001Z</time></trkpt><trkpt lat="37.394827033410024" lon="13.349926514270097"><ele>112.0</ele><time>2026-04-26T10:30:39.001Z</time></trkpt><trkpt lat="37.39482290927124" lon="13.349820415553275"><ele>111.5</ele><time>2026-04-26T10:30:42.001Z</time></trkpt><trkpt lat="37.394861446943914" lon="13.349673405232688"><ele>111.0</ele><time>2026-04-26T10:30:44.001Z</time></trkpt><trkpt lat="37.39486832356234" lon="13.349523770029595"><ele>110.5</ele><time>2026-04-26T10:30:46.001Z</time></trkpt><trkpt lat="37.39487557115069" lon="13.349380624338306"><ele>110.0</ele><time>2026-04-26T10:30:48.001Z</time></trkpt><trkpt lat="37.39487783348278" lon="13.34925402229955"><ele>110.0</ele><time>2026-04-26T10:30:50.001Z</time></trkpt><trkpt lat="37.3948754647596" lon="13.349104644815474"><ele>110.0</ele><time>2026-04-26T10:30:52.001Z</time></trkpt><trkpt lat="37.394878632383474" lon="13.348963731434475"><ele>110.0</ele><time>2026-04-26T10:30:54.001Z</time></trkpt><trkpt lat="37.39488533374651" lon="13.348837158298513"><ele>110.0</ele><time>2026-04-26T10:30:56.001Z</time></trkpt><trkpt lat="37.39487667869141" lon="13.348745984011464"><ele>110.0</ele><time>2026-04-26T10:30:59.001Z</time></trkpt><trkpt lat="37.39477600458829" lon="13.34875618240949"><ele>109.2</ele><time>2026-04-26T10:31:01.001Z</time></trkpt><trkpt lat="37.39467212432181" lon="13.348796645195577"><ele>108.4</ele><time>2026-04-26T10:31:03.001Z</time></trkpt><trkpt lat="37.394557696413486" lon="13.348750619405006"><ele>107.6</ele><time>2026-04-26T10:31:05.001Z</time></trkpt><trkpt lat="37.39447759716082" lon="13.34873758236495"><ele>106.8</ele><time>2026-04-26T10:31:07.001Z</time></trkpt><trkpt lat="37.39437062228584" lon="13.34869881555567"><ele>106.0</ele><time>2026-04-26T10:31:09.001Z</time></trkpt><trkpt lat="37.39430720168019" lon="13.348682924306054"><ele>107.6</ele><time>2026-04-26T10:31:10.001Z</time></trkpt><trkpt lat="37.3942118187888" lon="13.34865392725137"><ele>109.19999999999999</ele><time>2026-04-26T10:31:12.001Z</time></trkpt><trkpt lat="37.39415105507677" lon="13.34870214614911"><ele>110.80000000000001</ele><time>2026-04-26T10:31:13.001Z</time></trkpt><trkpt lat="37.394099264982216" lon="13.348801261642569"><ele>112.4</ele><time>2026-04-26T10:31:15.001Z</time></trkpt><trkpt lat="37.394032457084826" lon="13.34892912106466"><ele>114.0</ele><time>2026-04-26T10:31:17.001Z</time></trkpt><trkpt lat="37.39399554463678" lon="13.348998323532575"><ele>114.0</ele><time>2026-04-26T10:31:18.001Z</time></trkpt><trkpt lat="37.39395625350714" lon="13.349070093762332"><ele>114.0</ele><time>2026-04-26T10:31:19.001Z</time></trkpt><trkpt lat="37.393920320895774" lon="13.349135730334856"><ele>114.0</ele><time>2026-04-26T10:31:20.001Z</time></trkpt><trkpt lat="37.393884385838696" lon="13.349201184356724"><ele>114.0</ele><time>2026-04-26T10:31:21.001Z</time></trkpt><trkpt lat="37.39384615527785" lon="13.349270877414394"><ele>114.0</ele><time>2026-04-26T10:31:22.001Z</time></trkpt><trkpt lat="37.393776008371425" lon="13.349397966065634"><ele>114.0</ele><time>2026-04-26T10:31:24.001Z</time></trkpt><trkpt lat="37.39371657804165" lon="13.34953029676972"><ele>114.16666666666667</ele><time>2026-04-26T10:31:26.001Z</time></trkpt><trkpt lat="37.39367097317875" lon="13.34962753946304"><ele>114.33333333333334</ele><time>2026-04-26T10:31:28.001Z</time></trkpt><trkpt lat="37.39363462339318" lon="13.349693347464276"><ele>114.5</ele><time>2026-04-26T10:31:31.001Z</time></trkpt><trkpt lat="37.393692036142674" lon="13.34975310922123"><ele>114.66666666666667</ele><time>2026-04-26T10:31:36.001Z</time></trkpt><trkpt lat="37.393768381670704" lon="13.349768118126361"><ele>114.83333333333334</ele><time>2026-04-26T10:31:38.001Z</time></trkpt><trkpt lat="37.39386920727388" lon="13.349793380209046"><ele>115.0</ele><time>2026-04-26T10:31:40.001Z</time></trkpt><trkpt lat="37.39393585494864" lon="13.349800504999365"><ele>115.0</ele><time>2026-04-26T10:31:41.001Z</time></trkpt><trkpt lat="37.393999111851386" lon="13.34980726731805"><ele>115.0</ele><time>2026-04-26T10:31:42.001Z</time></trkpt><trkpt lat="37.39412795580602" lon="13.349820652272477"><ele>115.0</ele><time>2026-04-26T10:31:44.001Z</time></trkpt><trkpt lat="37.39419694738161" lon="13.349827695014788"><ele>115.0</ele><time>2026-04-26T10:31:45Z</time></trkpt><trkpt lat="37.39430923695656" lon="13.349839157671903"><ele>115.0</ele><time>2026-04-26T10:31:47Z</time></trkpt><trkpt lat="37.394433764797974" lon="13.349836681363776"><ele>115.00000000000001</ele><time>2026-04-26T10:31:49Z</time></trkpt><trkpt lat="37.394498257131964" lon="13.34984439235735"><ele>115.0</ele><time>2026-04-26T10:31:50Z</time></trkpt><trkpt lat="37.39456393591807" lon="13.349857820601969"><ele>115.0</ele><time>2026-04-26T10:31:51Z</time></trkpt><trkpt lat="37.39462971378185" lon="13.349863936715835"><ele>115.0</ele><time>2026-04-26T10:31:52Z</time></trkpt><trkpt lat="37.394729303379535" lon="13.349895399919596"><ele>115.00000000000001</ele><time>2026-04-26T10:31:54Z</time></trkpt><trkpt lat="37.394803501228374" lon="13.349937098053742"><ele>115.0</ele><time>2026-04-26T10:31:58Z</time></trkpt><trkpt lat="37.39478928379869" lon="13.350068186393639"><ele>115.0</ele><time>2026-04-26T10:32:00Z</time></trkpt><trkpt lat="37.39475088702386" lon="13.350162653744835"><ele>115.0</ele><time>2026-04-26T10:32:07Z</time></trkpt><trkpt lat="37.39461375409505" lon="13.350177978846183"><ele>115.0</ele><time>2026-04-26T10:32:09Z</time></trkpt><trkpt lat="37.39453426055084" lon="13.350172359951012"><ele>115.0</ele><time>2026-04-26T10:32:10Z</time></trkpt><trkpt lat="37.39445508989785" lon="13.350164166373482"><ele>115.0</ele><time>2026-04-26T10:32:11Z</time></trkpt><trkpt lat="37.394374436992784" lon="13.350163537676137"><ele>115.00000000000001</ele><time>2026-04-26T10:32:12Z</time></trkpt><trkpt lat="37.39429258754258" lon="13.350166578215044"><ele>115.0</ele><time>2026-04-26T10:32:13Z</time></trkpt><trkpt lat="37.39421630526198" lon="13.350162267826102"><ele>115.0</ele><time>2026-04-26T10:32:14Z</time></trkpt><trkpt lat="37.39413745873795" lon="13.350161148697314"><ele>115.0</ele><time>2026-04-26T10:32:15Z</time></trkpt><trkpt lat="37.39406843639449" lon="13.350165048339234"><ele>115.00000000000001</ele><time>2026-04-26T10:32:16Z</time></trkpt><trkpt lat="37.3939890316764" lon="13.350169422235556"><ele>115.0</ele><time>2026-04-26T10:32:17Z</time></trkpt><trkpt lat="37.393918084415255" lon="13.350149909135759"><ele>116.00000000000001</ele><time>2026-04-26T10:32:18Z</time></trkpt><trkpt lat="37.3938356860739" lon="13.350166740758766"><ele>117.0</ele><time>2026-04-26T10:32:20Z</time></trkpt><trkpt lat="37.39375804298526" lon="13.350169824999519"><ele>118.0</ele><time>2026-04-26T10:32:24Z</time></trkpt><trkpt lat="37.39368480230876" lon="13.350175699486725"><ele>119.0</ele><time>2026-04-26T10:32:26Z</time></trkpt><trkpt lat="37.393577541732284" lon="13.350176935051854"><ele>120.00000000000001</ele><time>2026-04-26T10:32:28Z</time></trkpt><trkpt lat="37.39350745520367" lon="13.350154399911013"><ele>121.0</ele><time>2026-04-26T10:32:30Z</time></trkpt><trkpt lat="37.39343440002644" lon="13.350154984035226"><ele>121.0</ele><time>2026-04-26T10:32:33Z</time></trkpt><trkpt lat="37.39336810146764" lon="13.350155513959944"><ele>121.0</ele><time>2026-04-26T10:32:34Z</time></trkpt><trkpt lat="37.393240962837154" lon="13.350156530167986"><ele>121.0</ele><time>2026-04-26T10:32:36Z</time></trkpt><trkpt lat="37.393118657779205" lon="13.350157665138482"><ele>121.0</ele><time>2026-04-26T10:32:38Z</time></trkpt><trkpt lat="37.39305500989537" lon="13.350158334111615"><ele>121.0</ele><time>2026-04-26T10:32:39Z</time></trkpt><trkpt lat="37.39294570515552" lon="13.350157878755315"><ele>120.83333333333334</ele><time>2026-04-26T10:32:41.001Z</time></trkpt><trkpt lat="37.39286112749798" lon="13.350157271526971"><ele>120.66666666666667</ele><time>2026-04-26T10:32:43.001Z</time></trkpt><trkpt lat="37.39277314516262" lon="13.350156639841126"><ele>120.5</ele><time>2026-04-26T10:32:47.001Z</time></trkpt><trkpt lat="37.39270756824274" lon="13.350154456963013"><ele>120.33333333333334</ele><time>2026-04-26T10:32:48.001Z</time></trkpt><trkpt lat="37.39263819949569" lon="13.350152943188892"><ele>120.16666666666667</ele><time>2026-04-26T10:32:49.001Z</time></trkpt><trkpt lat="37.39251875271287" lon="13.350147923519849"><ele>120.0</ele><time>2026-04-26T10:32:51.001Z</time></trkpt><trkpt lat="37.39245742814022" lon="13.350174405478926"><ele>120.0</ele><time>2026-04-26T10:32:54.001Z</time></trkpt><trkpt lat="37.39243635134914" lon="13.350361433768226"><ele>120.0</ele><time>2026-04-26T10:32:58.001Z</time></trkpt><trkpt lat="37.39240115372005" lon="13.350516364017407"><ele>120.0</ele><time>2026-04-26T10:33:00.001Z</time></trkpt><trkpt lat="37.3923786630371" lon="13.350653397837647"><ele>120.0</ele><time>2026-04-26T10:33:02.001Z</time></trkpt><trkpt lat="37.39232105733404" lon="13.350789938200574"><ele>120.66666666666667</ele><time>2026-04-26T10:33:04.001Z</time></trkpt><trkpt lat="37.392263763180694" lon="13.350851944262761"><ele>121.33333333333334</ele><time>2026-04-26T10:33:05.001Z</time></trkpt><trkpt lat="37.392206995072364" lon="13.35090587760826"><ele>122.0</ele><time>2026-04-26T10:33:06.001Z</time></trkpt><trkpt lat="37.392160013741595" lon="13.35097441009824"><ele>122.66666666666667</ele><time>2026-04-26T10:33:07.001Z</time></trkpt><trkpt lat="37.392118823941935" lon="13.351042022168896"><ele>123.33333333333334</ele><time>2026-04-26T10:33:08.001Z</time></trkpt><trkpt lat="37.392077245625224" lon="13.351110332694226"><ele>124.0</ele><time>2026-04-26T10:33:09.001Z</time></trkpt><trkpt lat="37.39200131237079" lon="13.351248805159594"><ele>123.4</ele><time>2026-04-26T10:33:11.001Z</time></trkpt><trkpt lat="37.39196016505013" lon="13.351333340523402"><ele>122.80000000000001</ele><time>2026-04-26T10:33:12.001Z</time></trkpt><trkpt lat="37.391933199475815" lon="13.351424702827696"><ele>122.19999999999999</ele><time>2026-04-26T10:33:13.001Z</time></trkpt><trkpt lat="37.39192209322737" lon="13.35150853369136"><ele>121.6</ele><time>2026-04-26T10:33:14.001Z</time></trkpt><trkpt lat="37.39191661002415" lon="13.351636685258145"><ele>121.0</ele><time>2026-04-26T10:33:16.001Z</time></trkpt><trkpt lat="37.391922374888466" lon="13.351792666853688"><ele>121.00000000000001</ele><time>2026-04-26T10:33:18.001Z</time></trkpt><trkpt lat="37.391935933658274" lon="13.3518984106831"><ele>121.0</ele><time>2026-04-26T10:33:19.001Z</time></trkpt><trkpt lat="37.391953722512476" lon="13.352000637765197"><ele>121.0</ele><time>2026-04-26T10:33:20.001Z</time></trkpt><trkpt lat="37.39197557091289" lon="13.352100212241965"><ele>121.0</ele><time>2026-04-26T10:33:21.001Z</time></trkpt><trkpt lat="37.39199416457277" lon="13.3521818731361"><ele>121.00000000000001</ele><time>2026-04-26T10:33:22.001Z</time></trkpt><trkpt lat="37.392015879581464" lon="13.352263827612061"><ele>121.0</ele><time>2026-04-26T10:33:23.001Z</time></trkpt><trkpt lat="37.39206854240389" lon="13.352396690776523"><ele>121.25</ele><time>2026-04-26T10:33:25.001Z</time></trkpt><trkpt lat="37.39210814608193" lon="13.352508153095394"><ele>121.5</ele><time>2026-04-26T10:33:27.001Z</time></trkpt><trkpt lat="37.39224236148419" lon="13.352491689529346"><ele>121.75</ele><time>2026-04-26T10:33:29.001Z</time></trkpt><trkpt lat="37.39237407597159" lon="13.35248319144724"><ele>122.0</ele><time>2026-04-26T10:33:31.001Z</time></trkpt><trkpt lat="37.392454567515486" lon="13.35252194345517"><ele>122.99999999999999</ele><time>2026-04-26T10:33:32.001Z</time></trkpt><trkpt lat="37.39253194237968" lon="13.35253351603377"><ele>124.0</ele><time>2026-04-26T10:33:33.001Z</time></trkpt><trkpt lat="37.39260487358476" lon="13.35255798712147"><ele>125.0</ele><time>2026-04-26T10:33:34.001Z</time></trkpt><trkpt lat="37.392691045633846" lon="13.35258945693651"><ele>126.0</ele><time>2026-04-26T10:33:35.001Z</time></trkpt><trkpt lat="37.392764493631084" lon="13.352619673826556"><ele>126.99999999999999</ele><time>2026-04-26T10:33:36.001Z</time></trkpt><trkpt lat="37.39282884003734" lon="13.352702900165037"><ele>128.0</ele><time>2026-04-26T10:33:37.001Z</time></trkpt><trkpt lat="37.39289801514603" lon="13.352774015845704"><ele>128.0</ele><time>2026-04-26T10:33:38.001Z</time></trkpt><trkpt lat="37.39296579814509" lon="13.352835299912805"><ele>128.0</ele><time>2026-04-26T10:33:39.001Z</time></trkpt><trkpt lat="37.39302429025343" lon="13.352915726808238"><ele>128.0</ele><time>2026-04-26T10:33:40.001Z</time></trkpt><trkpt lat="37.393091493509814" lon="13.352986324844283"><ele>128.0</ele><time>2026-04-26T10:33:41.001Z</time></trkpt><trkpt lat="37.39317506152467" lon="13.353044548001614"><ele>128.0</ele><time>2026-04-26T10:33:42.001Z</time></trkpt><trkpt lat="37.393269581105855" lon="13.353082422733834"><ele>130.25</ele><time>2026-04-26T10:33:43.001Z</time></trkpt><trkpt lat="37.393368860379375" lon="13.35310896306307"><ele>132.5</ele><time>2026-04-26T10:33:44.001Z</time></trkpt><trkpt lat="37.39346527530506" lon="13.353137378886114"><ele>134.75</ele><time>2026-04-26T10:33:45.001Z</time></trkpt><trkpt lat="37.393620378794466" lon="13.35320040509405"><ele>137.0</ele><time>2026-04-26T10:33:47.001Z</time></trkpt><trkpt lat="37.393702181956165" lon="13.353307327075193"><ele>137.0</ele><time>2026-04-26T10:33:49.001Z</time></trkpt><trkpt lat="37.39371838556039" lon="13.353480995906553"><ele>137.0</ele><time>2026-04-26T10:33:51Z</time></trkpt><trkpt lat="37.393694759943784" lon="13.353576567111904"><ele>137.0</ele><time>2026-04-26T10:33:52Z</time></trkpt><trkpt lat="37.39364080630086" lon="13.353668803289262"><ele>137.0</ele><time>2026-04-26T10:33:53Z</time></trkpt><trkpt lat="37.393584717695646" lon="13.35375850084397"><ele>137.0</ele><time>2026-04-26T10:33:54Z</time></trkpt><trkpt lat="37.39356670221602" lon="13.35387966966758"><ele>137.79999999999998</ele><time>2026-04-26T10:33:55Z</time></trkpt><trkpt lat="37.39354996730369" lon="13.354001869278493"><ele>138.6</ele><time>2026-04-26T10:33:56Z</time></trkpt><trkpt lat="37.3935502833939" lon="13.354133487500889"><ele>139.39999999999998</ele><time>2026-04-26T10:33:57Z</time></trkpt><trkpt lat="37.39354818428775" lon="13.354262677951107"><ele>140.2</ele><time>2026-04-26T10:33:58Z</time></trkpt><trkpt lat="37.39352914649142" lon="13.354385314989221"><ele>141.0</ele><time>2026-04-26T10:33:59Z</time></trkpt><trkpt lat="37.39352332147227" lon="13.354496832770984"><ele>141.0</ele><time>2026-04-26T10:34:00Z</time></trkpt><trkpt lat="37.393518562652794" lon="13.354587938850361"><ele>141.0</ele><time>2026-04-26T10:34:01Z</time></trkpt><trkpt lat="37.39351422204817" lon="13.35467103823503"><ele>141.0</ele><time>2026-04-26T10:34:02Z</time></trkpt><trkpt lat="37.39351905348232" lon="13.354766383701792"><ele>141.0</ele><time>2026-04-26T10:34:03Z</time></trkpt><trkpt lat="37.39350552754355" lon="13.354857492250897"><ele>141.0</ele><time>2026-04-26T10:34:04Z</time></trkpt><trkpt lat="37.39348453007118" lon="13.354978468465905"><ele>141.0</ele><time>2026-04-26T10:34:06Z</time></trkpt><trkpt lat="37.3934795566039" lon="13.355066998133266"><ele>141.0</ele><time>2026-04-26T10:34:09Z</time></trkpt><trkpt lat="37.39349895854379" lon="13.354901672912327"><ele>141.0</ele><time>2026-04-26T10:34:18Z</time></trkpt><trkpt lat="37.393519157591115" lon="13.354824708725541"><ele>141.0</ele><time>2026-04-26T10:34:19Z</time></trkpt><trkpt lat="37.3935174741503" lon="13.354729237352867"><ele>141.0</ele><time>2026-04-26T10:34:20Z</time></trkpt><trkpt lat="37.39351858354309" lon="13.354640048687916"><ele>141.0</ele><time>2026-04-26T10:34:21Z</time></trkpt><trkpt lat="37.3935235969975" lon="13.354544353836777"><ele>141.0</ele><time>2026-04-26T10:34:22Z</time></trkpt><trkpt lat="37.393537856624675" lon="13.354437596726646"><ele>141.0</ele><time>2026-04-26T10:34:23Z</time></trkpt><trkpt lat="37.39355016591765" lon="13.354335799127528"><ele>141.0</ele><time>2026-04-26T10:34:24Z</time></trkpt><trkpt lat="37.39356947981302" lon="13.354221399894302"><ele>141.0</ele><time>2026-04-26T10:34:25Z</time></trkpt><trkpt lat="37.39357362997608" lon="13.354123730247828"><ele>141.0</ele><time>2026-04-26T10:34:26Z</time></trkpt><trkpt lat="37.393578872592656" lon="13.354027789033967"><ele>141.0</ele><time>2026-04-26T10:34:27Z</time></trkpt><trkpt lat="37.393570854502244" lon="13.353947330258467"><ele>141.0</ele><time>2026-04-26T10:34:28Z</time></trkpt><trkpt lat="37.39358303975218" lon="13.353860380930762"><ele>140.2</ele><time>2026-04-26T10:34:29Z</time></trkpt><trkpt lat="37.39360330091598" lon="13.353770641236805"><ele>139.39999999999998</ele><time>2026-04-26T10:34:30Z</time></trkpt><trkpt lat="37.39368437925851" lon="13.353658672025905"><ele>138.6</ele><time>2026-04-26T10:34:32Z</time></trkpt><trkpt lat="37.39372735746243" lon="13.353510919630887"><ele>137.79999999999998</ele><time>2026-04-26T10:34:34Z</time></trkpt><trkpt lat="37.39374681462707" lon="13.353378673065219"><ele>137.0</ele><time>2026-04-26T10:34:36Z</time></trkpt><trkpt lat="37.393689152395446" lon="13.353259831380903"><ele>137.0</ele><time>2026-04-26T10:34:38Z</time></trkpt><trkpt lat="37.39363528224307" lon="13.35318764939907"><ele>137.0</ele><time>2026-04-26T10:34:40.001Z</time></trkpt><trkpt lat="37.39355961292794" lon="13.353165580868168"><ele>137.0</ele><time>2026-04-26T10:34:43.001Z</time></trkpt><trkpt lat="37.39350495526254" lon="13.35312057766371"><ele>137.0</ele><time>2026-04-26T10:34:45.001Z</time></trkpt><trkpt lat="37.393396561225565" lon="13.353068180650975"><ele>137.0</ele><time>2026-04-26T10:34:47.001Z</time></trkpt><trkpt lat="37.393311498010625" lon="13.353082926103768"><ele>137.0</ele><time>2026-04-26T10:34:48.001Z</time></trkpt><trkpt lat="37.39324516239775" lon="13.353064141420525"><ele>137.66666666666666</ele><time>2026-04-26T10:34:49.001Z</time></trkpt><trkpt lat="37.393178404930836" lon="13.353032196274738"><ele>138.33333333333331</ele><time>2026-04-26T10:34:50.001Z</time></trkpt><trkpt lat="37.393115101599534" lon="13.352990535373033"><ele>139.0</ele><time>2026-04-26T10:34:51.001Z</time></trkpt><trkpt lat="37.39305035160218" lon="13.35293734629236"><ele>139.66666666666666</ele><time>2026-04-26T10:34:52.001Z</time></trkpt><trkpt lat="37.3930045355226" lon="13.352851728091958"><ele>140.33333333333334</ele><time>2026-04-26T10:34:53.001Z</time></trkpt><trkpt lat="37.39294537162471" lon="13.352769279784605"><ele>141.0</ele><time>2026-04-26T10:34:54.001Z</time></trkpt><trkpt lat="37.392885158524436" lon="13.352705946645948"><ele>138.83333333333334</ele><time>2026-04-26T10:34:55.001Z</time></trkpt><trkpt lat="37.392803884279076" lon="13.35264632340152"><ele>136.66666666666666</ele><time>2026-04-26T10:34:56.001Z</time></trkpt><trkpt lat="37.392741087500845" lon="13.352577062657021"><ele>134.5</ele><time>2026-04-26T10:34:57.001Z</time></trkpt><trkpt lat="37.39266778538229" lon="13.35254252468526"><ele>132.33333333333331</ele><time>2026-04-26T10:34:58.001Z</time></trkpt><trkpt lat="37.39260532897765" lon="13.352523521818535"><ele>130.16666666666666</ele><time>2026-04-26T10:34:59.001Z</time></trkpt><trkpt lat="37.39252147934068" lon="13.352498112370277"><ele>128.0</ele><time>2026-04-26T10:35:01.001Z</time></trkpt><trkpt lat="37.39245936778759" lon="13.352479279495292"><ele>128.0</ele><time>2026-04-26T10:35:02.001Z</time></trkpt><trkpt lat="37.392349773440706" lon="13.35245167259064"><ele>128.0</ele><time>2026-04-26T10:35:04.001Z</time></trkpt><trkpt lat="37.3922644102036" lon="13.352434875679496"><ele>128.0</ele><time>2026-04-26T10:35:06.001Z</time></trkpt><trkpt lat="37.39216785472576" lon="13.352461701886654"><ele>128.0</ele><time>2026-04-26T10:35:08.001Z</time></trkpt><trkpt lat="37.39209598275712" lon="13.352452708787789"><ele>128.0</ele><time>2026-04-26T10:35:10.001Z</time></trkpt><trkpt lat="37.39204514315229" lon="13.352548809060023"><ele>126.80000000000001</ele><time>2026-04-26T10:35:11.001Z</time></trkpt><trkpt lat="37.39194119520281" lon="13.352627684536102"><ele>125.60000000000001</ele><time>2026-04-26T10:35:13.001Z</time></trkpt><trkpt lat="37.391869564844875" lon="13.352691095731958"><ele>124.39999999999999</ele><time>2026-04-26T10:35:14.001Z</time></trkpt><trkpt lat="37.391791380564285" lon="13.35274755860153"><ele>123.19999999999999</ele><time>2026-04-26T10:35:15.001Z</time></trkpt><trkpt lat="37.39171181689295" lon="13.352806077708893"><ele>122.0</ele><time>2026-04-26T10:35:16.001Z</time></trkpt><trkpt lat="37.39163410550333" lon="13.352858109393697"><ele>121.99999999999999</ele><time>2026-04-26T10:35:17.001Z</time></trkpt><trkpt lat="37.391553408569635" lon="13.352915030431857"><ele>122.0</ele><time>2026-04-26T10:35:18.001Z</time></trkpt><trkpt lat="37.391490099246454" lon="13.352945817891138"><ele>122.0</ele><time>2026-04-26T10:35:19.001Z</time></trkpt><trkpt lat="37.39141535161374" lon="13.353001180274736"><ele>122.0</ele><time>2026-04-26T10:35:20.001Z</time></trkpt><trkpt lat="37.391336386410586" lon="13.353058890327729"><ele>121.99999999999999</ele><time>2026-04-26T10:35:21.001Z</time></trkpt><trkpt lat="37.39125336067496" lon="13.353115308233516"><ele>122.0</ele><time>2026-04-26T10:35:22.001Z</time></trkpt><trkpt lat="37.391181027709194" lon="13.353193883493049"><ele>122.16666666666666</ele><time>2026-04-26T10:35:23.001Z</time></trkpt><trkpt lat="37.39110290925407" lon="13.353254001555683"><ele>122.33333333333333</ele><time>2026-04-26T10:35:24.001Z</time></trkpt><trkpt lat="37.39103321570475" lon="13.35330864264397"><ele>122.5</ele><time>2026-04-26T10:35:25.001Z</time></trkpt><trkpt lat="37.39096850060639" lon="13.353359599556875"><ele>122.66666666666666</ele><time>2026-04-26T10:35:26.001Z</time></trkpt><trkpt lat="37.390911823244046" lon="13.353404066264202"><ele>122.83333333333333</ele><time>2026-04-26T10:35:27.001Z</time></trkpt><trkpt lat="37.3908062715598" lon="13.353486877940975"><ele>123.0</ele><time>2026-04-26T10:35:29.001Z</time></trkpt><trkpt lat="37.39072284364479" lon="13.353554704780878"><ele>123.0</ele><time>2026-04-26T10:35:31.001Z</time></trkpt><trkpt lat="37.390657904048695" lon="13.353658654011143"><ele>123.00000000000001</ele><time>2026-04-26T10:35:33.001Z</time></trkpt><trkpt lat="37.39060671261636" lon="13.353792824676267"><ele>123.00000000000001</ele><time>2026-04-26T10:35:35.001Z</time></trkpt><trkpt lat="37.39059010210725" lon="13.35387925988408"><ele>123.0</ele><time>2026-04-26T10:35:36.001Z</time></trkpt><trkpt lat="37.39058277277693" lon="13.35399074636575"><ele>123.0</ele><time>2026-04-26T10:35:37.001Z</time></trkpt><trkpt lat="37.39057292311031" lon="13.354106446377937"><ele>123.33333333333333</ele><time>2026-04-26T10:35:38.001Z</time></trkpt><trkpt lat="37.39055765811517" lon="13.354218299486682"><ele>123.66666666666666</ele><time>2026-04-26T10:35:39.001Z</time></trkpt><trkpt lat="37.39053367752226" lon="13.354317083502455"><ele>124.0</ele><time>2026-04-26T10:35:40.001Z</time></trkpt><trkpt lat="37.39048361859712" lon="13.354381680809116"><ele>124.33333333333333</ele><time>2026-04-26T10:35:41.001Z</time></trkpt><trkpt lat="37.39045357078293" lon="13.354457789073585"><ele>124.66666666666666</ele><time>2026-04-26T10:35:42.001Z</time></trkpt><trkpt lat="37.39040134334271" lon="13.354523846236116"><ele>125.0</ele><time>2026-04-26T10:35:43.001Z</time></trkpt><trkpt lat="37.39035844103356" lon="13.354583794871711"><ele>125.8</ele><time>2026-04-26T10:35:44.001Z</time></trkpt><trkpt lat="37.39031240775404" lon="13.354724960140675"><ele>126.6</ele><time>2026-04-26T10:35:46.001Z</time></trkpt><trkpt lat="37.390304614812955" lon="13.354816192924314"><ele>127.4</ele><time>2026-04-26T10:35:47.001Z</time></trkpt><trkpt lat="37.39025314976715" lon="13.354930829523974"><ele>128.2</ele><time>2026-04-26T10:35:49.001Z</time></trkpt><trkpt lat="37.39019826952695" lon="13.354980480977652"><ele>129.0</ele><time>2026-04-26T10:35:50.001Z</time></trkpt><trkpt lat="37.39015294166671" lon="13.35506984829615"><ele>129.0</ele><time>2026-04-26T10:35:51.001Z</time></trkpt><trkpt lat="37.39009486630434" lon="13.355161410914691"><ele>129.0</ele><time>2026-04-26T10:35:52.001Z</time></trkpt><trkpt lat="37.390036441227814" lon="13.355264336194516"><ele>129.0</ele><time>2026-04-26T10:35:53.001Z</time></trkpt><trkpt lat="37.389979159349465" lon="13.355372198905604"><ele>129.0</ele><time>2026-04-26T10:35:54.001Z</time></trkpt><trkpt lat="37.38990445228385" lon="13.355470060302936"><ele>129.0</ele><time>2026-04-26T10:35:55.001Z</time></trkpt><trkpt lat="37.3898445288911" lon="13.355567523154733"><ele>129.33333333333334</ele><time>2026-04-26T10:35:56.001Z</time></trkpt><trkpt lat="37.38979424130713" lon="13.355643805025357"><ele>129.66666666666666</ele><time>2026-04-26T10:35:57Z</time></trkpt><trkpt lat="37.389743391864606" lon="13.355709412448338"><ele>130.0</ele><time>2026-04-26T10:35:58Z</time></trkpt><trkpt lat="37.389685431796934" lon="13.355754406310266"><ele>130.33333333333331</ele><time>2026-04-26T10:36:00Z</time></trkpt><trkpt lat="37.38961656615981" lon="13.355651925859611"><ele>130.66666666666666</ele><time>2026-04-26T10:36:02Z</time></trkpt><trkpt lat="37.38955998991604" lon="13.355597214792134"><ele>131.0</ele><time>2026-04-26T10:36:03Z</time></trkpt><trkpt lat="37.38949736232984" lon="13.355531685514023"><ele>131.0</ele><time>2026-04-26T10:36:04Z</time></trkpt><trkpt lat="37.38942853563506" lon="13.355465528218552"><ele>131.0</ele><time>2026-04-26T10:36:05Z</time></trkpt><trkpt lat="37.38935353503557" lon="13.355395426230382"><ele>131.0</ele><time>2026-04-26T10:36:06Z</time></trkpt><trkpt lat="37.38928342705984" lon="13.355329897356064"><ele>131.0</ele><time>2026-04-26T10:36:07Z</time></trkpt><trkpt lat="37.38922199517194" lon="13.355261758041694"><ele>131.0</ele><time>2026-04-26T10:36:08Z</time></trkpt><trkpt lat="37.389186892522" lon="13.35517850999447"><ele>131.0</ele><time>2026-04-26T10:36:09Z</time></trkpt><trkpt lat="37.38904795476756" lon="13.355099066315178"><ele>131.0</ele><time>2026-04-26T10:36:12Z</time></trkpt><trkpt lat="37.38893261984531" lon="13.355109790053385"><ele>131.0</ele><time>2026-04-26T10:36:14Z</time></trkpt><trkpt lat="37.388869871588135" lon="13.355141574965987"><ele>131.0</ele><time>2026-04-26T10:36:15Z</time></trkpt><trkpt lat="37.38881047138504" lon="13.355179364502616"><ele>131.0</ele><time>2026-04-26T10:36:16Z</time></trkpt><trkpt lat="37.38873605191776" lon="13.355190234544684"><ele>131.0</ele><time>2026-04-26T10:36:17Z</time></trkpt><trkpt lat="37.3886698838438" lon="13.355219546427026"><ele>131.0</ele><time>2026-04-26T10:36:18Z</time></trkpt><trkpt lat="37.388592706354935" lon="13.35525373540181"><ele>130.66666666666666</ele><time>2026-04-26T10:36:19Z</time></trkpt><trkpt lat="37.38853010796925" lon="13.355281465946447"><ele>130.33333333333331</ele><time>2026-04-26T10:36:20Z</time></trkpt><trkpt lat="37.38845880291749" lon="13.355313053505236"><ele>130.0</ele><time>2026-04-26T10:36:21Z</time></trkpt><trkpt lat="37.38839719686231" lon="13.355343839521128"><ele>129.66666666666666</ele><time>2026-04-26T10:36:22Z</time></trkpt><trkpt lat="37.38832459779303" lon="13.355389379044752"><ele>129.33333333333334</ele><time>2026-04-26T10:36:23Z</time></trkpt><trkpt lat="37.38826329297369" lon="13.35542514701274"><ele>129.0</ele><time>2026-04-26T10:36:24Z</time></trkpt><trkpt lat="37.38813723852991" lon="13.355456557302395"><ele>128.6</ele><time>2026-04-26T10:36:26Z</time></trkpt><trkpt lat="37.388005054457004" lon="13.355439166524947"><ele>128.2</ele><time>2026-04-26T10:36:28Z</time></trkpt><trkpt lat="37.38792386061566" lon="13.355431239479644"><ele>127.79999999999998</ele><time>2026-04-26T10:36:29Z</time></trkpt><trkpt lat="37.38783592065545" lon="13.355421880056438"><ele>127.39999999999999</ele><time>2026-04-26T10:36:30Z</time></trkpt><trkpt lat="37.38775207278977" lon="13.35541295748302"><ele>127.0</ele><time>2026-04-26T10:36:31Z</time></trkpt><trkpt lat="37.38767342133898" lon="13.355404586650607"><ele>127.00000000000001</ele><time>2026-04-26T10:36:32.001Z</time></trkpt><trkpt lat="37.38756304584987" lon="13.355395266632776"><ele>127.0</ele><time>2026-04-26T10:36:34.001Z</time></trkpt><trkpt lat="37.387464659857734" lon="13.35538909226626"><ele>127.0</ele><time>2026-04-26T10:36:36.001Z</time></trkpt><trkpt lat="37.38735660089685" lon="13.355389424534142"><ele>127.0</ele><time>2026-04-26T10:36:38.001Z</time></trkpt><trkpt lat="37.387292099338566" lon="13.355396420672115"><ele>127.00000000000001</ele><time>2026-04-26T10:36:39.001Z</time></trkpt><trkpt lat="37.3872288938322" lon="13.355392767090425"><ele>127.0</ele><time>2026-04-26T10:36:40.001Z</time></trkpt><trkpt lat="37.38715953444872" lon="13.355390486245419"><ele>126.83333333333334</ele><time>2026-04-26T10:36:41.001Z</time></trkpt><trkpt lat="37.387053561419336" lon="13.355398592253952"><ele>126.66666666666667</ele><time>2026-04-26T10:36:43.001Z</time></trkpt><trkpt lat="37.386961212839395" lon="13.355403682319196"><ele>126.5</ele><time>2026-04-26T10:36:45.001Z</time></trkpt><trkpt lat="37.38687026039379" lon="13.355431060207493"><ele>126.33333333333334</ele><time>2026-04-26T10:36:47.001Z</time></trkpt><trkpt lat="37.386799610519944" lon="13.355411553656296"><ele>126.16666666666667</ele><time>2026-04-26T10:36:49.001Z</time></trkpt><trkpt lat="37.38672743485712" lon="13.355408134809299"><ele>126.0</ele><time>2026-04-26T10:36:51.001Z</time></trkpt><trkpt lat="37.38665751124947" lon="13.355414330147326"><ele>126.0</ele><time>2026-04-26T10:36:53.001Z</time></trkpt><trkpt lat="37.38658296040337" lon="13.355438131150787"><ele>126.0</ele><time>2026-04-26T10:36:55.001Z</time></trkpt><trkpt lat="37.38650016689599" lon="13.3555004019774"><ele>126.0</ele><time>2026-04-26T10:36:57Z</time></trkpt><trkpt lat="37.38640450489239" lon="13.355542098306806"><ele>126.0</ele><time>2026-04-26T10:36:59Z</time></trkpt><trkpt lat="37.386307976908576" lon="13.355598895638307"><ele>126.0</ele><time>2026-04-26T10:37:01Z</time></trkpt><trkpt lat="37.38623792760146" lon="13.355661947405554"><ele>126.0</ele><time>2026-04-26T10:37:03Z</time></trkpt><trkpt lat="37.38617560535627" lon="13.355716997519592"><ele>126.0</ele><time>2026-04-26T10:37:05Z</time></trkpt><trkpt lat="37.386118412534834" lon="13.355801239731404"><ele>126.0</ele><time>2026-04-26T10:37:08Z</time></trkpt><trkpt lat="37.38605792145814" lon="13.355847121176154"><ele>126.0</ele><time>2026-04-26T10:37:10Z</time></trkpt><trkpt lat="37.385995329276525" lon="13.355856671085613"><ele>126.0</ele><time>2026-04-26T10:37:12Z</time></trkpt><trkpt lat="37.385930523844905" lon="13.355854023245191"><ele>126.0</ele><time>2026-04-26T10:37:14Z</time></trkpt><trkpt lat="37.385856732316284" lon="13.355863770831519"><ele>126.0</ele><time>2026-04-26T10:37:16Z</time></trkpt><trkpt lat="37.385820357923514" lon="13.355967713942059"><ele>126.0</ele><time>2026-04-26T10:37:17Z</time></trkpt><trkpt lat="37.38575056085938" lon="13.356004175686722"><ele>126.0</ele><time>2026-04-26T10:37:18Z</time></trkpt><trkpt lat="37.38567527116107" lon="13.35600492272676"><ele>126.0</ele><time>2026-04-26T10:37:19Z</time></trkpt><trkpt lat="37.38561456302833" lon="13.356031783083333"><ele>126.0</ele><time>2026-04-26T10:37:20Z</time></trkpt><trkpt lat="37.38556162513985" lon="13.356074965677184"><ele>126.0</ele><time>2026-04-26T10:37:21Z</time></trkpt><trkpt lat="37.3854555965413" lon="13.356079679633286"><ele>126.0</ele><time>2026-04-26T10:37:23Z</time></trkpt><trkpt lat="37.38534697162788" lon="13.356093443749343"><ele>125.6</ele><time>2026-04-26T10:37:25Z</time></trkpt><trkpt lat="37.38523246406253" lon="13.356104623510866"><ele>125.19999999999999</ele><time>2026-04-26T10:37:27Z</time></trkpt><trkpt lat="37.38511218008579" lon="13.356114835304554"><ele>124.80000000000001</ele><time>2026-04-26T10:37:29Z</time></trkpt><trkpt lat="37.38504415573468" lon="13.356120610400843"><ele>124.4</ele><time>2026-04-26T10:37:30Z</time></trkpt><trkpt lat="37.384980577768545" lon="13.356126008002521"><ele>124.0</ele><time>2026-04-26T10:37:31Z</time></trkpt><trkpt lat="37.384879756078874" lon="13.356134567508459"><ele>124.0</ele><time>2026-04-26T10:37:33Z</time></trkpt><trkpt lat="37.38477649946502" lon="13.356158799945863"><ele>124.0</ele><time>2026-04-26T10:37:36Z</time></trkpt><trkpt lat="37.38467276661901" lon="13.356169611991813"><ele>124.0</ele><time>2026-04-26T10:37:38Z</time></trkpt><trkpt lat="37.38458138517317" lon="13.356152510155058"><ele>124.0</ele><time>2026-04-26T10:37:40Z</time></trkpt><trkpt lat="37.38447943693916" lon="13.356150096180079"><ele>124.0</ele><time>2026-04-26T10:37:42Z</time></trkpt><trkpt lat="37.384378012066605" lon="13.356164340852075"><ele>124.80000000000001</ele><time>2026-04-26T10:37:44Z</time></trkpt><trkpt lat="37.38428766336437" lon="13.356148591600634"><ele>125.60000000000001</ele><time>2026-04-26T10:37:46.001Z</time></trkpt><trkpt lat="37.3842118514282" lon="13.356156968721766"><ele>126.4</ele><time>2026-04-26T10:37:48.001Z</time></trkpt><trkpt lat="37.384096655548575" lon="13.356181737688804"><ele>127.2</ele><time>2026-04-26T10:37:50.001Z</time></trkpt><trkpt lat="37.38398809226929" lon="13.356229384029982"><ele>128.0</ele><time>2026-04-26T10:37:52.001Z</time></trkpt><trkpt lat="37.3838988725209" lon="13.356274542759465"><ele>128.0</ele><time>2026-04-26T10:37:54.001Z</time></trkpt><trkpt lat="37.3837969633776" lon="13.356340010859544"><ele>128.0</ele><time>2026-04-26T10:37:56.001Z</time></trkpt><trkpt lat="37.38369111927754" lon="13.356417186417321"><ele>128.0</ele><time>2026-04-26T10:37:58.001Z</time></trkpt><trkpt lat="37.3836149016524" lon="13.356478503480597"><ele>128.0</ele><time>2026-04-26T10:38:00.001Z</time></trkpt><trkpt lat="37.3835421311527" lon="13.356535329004181"><ele>128.0</ele><time>2026-04-26T10:38:02.001Z</time></trkpt><trkpt lat="37.38347479349313" lon="13.35659189043637"><ele>128.83333333333331</ele><time>2026-04-26T10:38:03.999Z</time></trkpt><trkpt lat="37.38341146171241" lon="13.356640328591183"><ele>129.66666666666666</ele><time>2026-04-26T10:38:05.999Z</time></trkpt><trkpt lat="37.383344342638466" lon="13.356687672623533"><ele>130.5</ele><time>2026-04-26T10:38:08Z</time></trkpt><trkpt lat="37.38326251668448" lon="13.356740640720922"><ele>131.33333333333334</ele><time>2026-04-26T10:38:10Z</time></trkpt><trkpt lat="37.383181720037285" lon="13.356795357660687"><ele>132.16666666666669</ele><time>2026-04-26T10:38:12Z</time></trkpt><trkpt lat="37.38311286361843" lon="13.35684042726155"><ele>133.0</ele><time>2026-04-26T10:38:14Z</time></trkpt><trkpt lat="37.38301408445309" lon="13.356897048493357"><ele>133.0</ele><time>2026-04-26T10:38:16Z</time></trkpt><trkpt lat="37.38294811528013" lon="13.356924200044844"><ele>133.0</ele><time>2026-04-26T10:38:18Z</time></trkpt><trkpt lat="37.38287747443867" lon="13.35695052364003"><ele>133.0</ele><time>2026-04-26T10:38:20Z</time></trkpt><trkpt lat="37.38279904400908" lon="13.356965065698992"><ele>133.0</ele><time>2026-04-26T10:38:22Z</time></trkpt><trkpt lat="37.382707452500604" lon="13.356950581315022"><ele>133.0</ele><time>2026-04-26T10:38:24Z</time></trkpt><trkpt lat="37.38262717775277" lon="13.356973133237046"><ele>133.0</ele><time>2026-04-26T10:38:26Z</time></trkpt><trkpt lat="37.382524582027486" lon="13.356961320267965"><ele>133.0</ele><time>2026-04-26T10:38:28Z</time></trkpt><trkpt lat="37.38242554321717" lon="13.356929241367077"><ele>133.0</ele><time>2026-04-26T10:38:30Z</time></trkpt><trkpt lat="37.3823281396538" lon="13.356914697042901"><ele>133.0</ele><time>2026-04-26T10:38:32Z</time></trkpt><trkpt lat="37.38222529761826" lon="13.356899340664524"><ele>133.0</ele><time>2026-04-26T10:38:34Z</time></trkpt><trkpt lat="37.382134914827766" lon="13.356906763047276"><ele>133.0</ele><time>2026-04-26T10:38:36Z</time></trkpt><trkpt lat="37.38203687112413" lon="13.356890398148094"><ele>133.4</ele><time>2026-04-26T10:38:38Z</time></trkpt><trkpt lat="37.38194436753833" lon="13.356875461839572"><ele>133.8</ele><time>2026-04-26T10:38:40Z</time></trkpt><trkpt lat="37.38185141880966" lon="13.356867902786645"><ele>134.2</ele><time>2026-04-26T10:38:42Z</time></trkpt><trkpt lat="37.381742297336814" lon="13.356857986282538"><ele>134.6</ele><time>2026-04-26T10:38:44Z</time></trkpt><trkpt lat="37.38165050866948" lon="13.356844353235521"><ele>135.0</ele><time>2026-04-26T10:38:46Z</time></trkpt><trkpt lat="37.38154676688455" lon="13.356837605338765"><ele>135.0</ele><time>2026-04-26T10:38:48Z</time></trkpt><trkpt lat="37.38144220311924" lon="13.356827698307857"><ele>135.0</ele><time>2026-04-26T10:38:50Z</time></trkpt><trkpt lat="37.381340616858886" lon="13.356827505913955"><ele>135.0</ele><time>2026-04-26T10:38:52Z</time></trkpt><trkpt lat="37.38123492911134" lon="13.356831552663074"><ele>135.0</ele><time>2026-04-26T10:38:54Z</time></trkpt><trkpt lat="37.38113122717038" lon="13.356850689527064"><ele>135.0</ele><time>2026-04-26T10:38:56Z</time></trkpt><trkpt lat="37.381039042921536" lon="13.356881394385868"><ele>135.66666666666666</ele><time>2026-04-26T10:38:58Z</time></trkpt><trkpt lat="37.38094058527238" lon="13.356890389079789"><ele>136.33333333333334</ele><time>2026-04-26T10:39:00Z</time></trkpt><trkpt lat="37.38087908139343" lon="13.356909343800938"><ele>137.0</ele><time>2026-04-26T10:39:02Z</time></trkpt><trkpt lat="37.380797933915105" lon="13.356919711518826"><ele>137.66666666666669</ele><time>2026-04-26T10:39:04Z</time></trkpt><trkpt lat="37.38073658023556" lon="13.35689942088349"><ele>138.33333333333334</ele><time>2026-04-26T10:39:06Z</time></trkpt><trkpt lat="37.38067046950294" lon="13.356840064390674"><ele>139.0</ele><time>2026-04-26T10:39:09Z</time></trkpt><trkpt lat="37.380646858330955" lon="13.356752747330944"><ele>140.0</ele><time>2026-04-26T10:39:13Z</time></trkpt><trkpt lat="37.380515799288084" lon="13.356795867490064"><ele>141.0</ele><time>2026-04-26T10:39:16Z</time></trkpt><trkpt lat="37.380451301238175" lon="13.35684405757251"><ele>142.0</ele><time>2026-04-26T10:39:17Z</time></trkpt><trkpt lat="37.380384726436695" lon="13.356884501801355"><ele>143.0</ele><time>2026-04-26T10:39:18Z</time></trkpt><trkpt lat="37.380309834644095" lon="13.356932096329594"><ele>144.0</ele><time>2026-04-26T10:39:19Z</time></trkpt><trkpt lat="37.38021944597637" lon="13.356962729147522"><ele>144.0</ele><time>2026-04-26T10:39:20Z</time></trkpt><trkpt lat="37.38013820595844" lon="13.357033012296036"><ele>144.0</ele><time>2026-04-26T10:39:21Z</time></trkpt><trkpt lat="37.380040857919056" lon="13.35708627388827"><ele>144.0</ele><time>2026-04-26T10:39:22.001Z</time></trkpt><trkpt lat="37.37994957070329" lon="13.357138740345768"><ele>144.0</ele><time>2026-04-26T10:39:23.001Z</time></trkpt><trkpt lat="37.379854966170754" lon="13.357200823311805"><ele>144.0</ele><time>2026-04-26T10:39:24.001Z</time></trkpt><trkpt lat="37.379746633703014" lon="13.357247984417157"><ele>144.6</ele><time>2026-04-26T10:39:25.001Z</time></trkpt><trkpt lat="37.37965277261744" lon="13.357330527930868"><ele>145.2</ele><time>2026-04-26T10:39:26.001Z</time></trkpt><trkpt lat="37.37954982760208" lon="13.357392217337077"><ele>145.79999999999998</ele><time>2026-04-26T10:39:27.001Z</time></trkpt><trkpt lat="37.37945487741108" lon="13.357453854990862"><ele>146.4</ele><time>2026-04-26T10:39:28.001Z</time></trkpt><trkpt lat="37.379368455947464" lon="13.357517925801142"><ele>147.0</ele><time>2026-04-26T10:39:29.001Z</time></trkpt><trkpt lat="37.37928012892729" lon="13.357599904326586"><ele>147.0</ele><time>2026-04-26T10:39:30.001Z</time></trkpt><trkpt lat="37.37920208115382" lon="13.357677695609278"><ele>147.0</ele><time>2026-04-26T10:39:31.001Z</time></trkpt><trkpt lat="37.37913355677262" lon="13.357744069925587"><ele>147.0</ele><time>2026-04-26T10:39:32.001Z</time></trkpt><trkpt lat="37.379074628617964" lon="13.357801118663401"><ele>147.0</ele><time>2026-04-26T10:39:33.001Z</time></trkpt><trkpt lat="37.37903800293134" lon="13.357874047583351"><ele>147.0</ele><time>2026-04-26T10:39:34.001Z</time></trkpt><trkpt lat="37.378965020165275" lon="13.357945796634905"><ele>147.0</ele><time>2026-04-26T10:39:36.001Z</time></trkpt><trkpt lat="37.37880820497918" lon="13.357792570348996"><ele>146.33333333333334</ele><time>2026-04-26T10:39:37.001Z</time></trkpt><trkpt lat="37.37874484901304" lon="13.357724961413949"><ele>145.66666666666666</ele><time>2026-04-26T10:39:38.001Z</time></trkpt><trkpt lat="37.37868553569285" lon="13.357637676919364"><ele>145.0</ele><time>2026-04-26T10:39:39.001Z</time></trkpt><trkpt lat="37.37864560447578" lon="13.35755122477896"><ele>144.33333333333331</ele><time>2026-04-26T10:39:40.001Z</time></trkpt><trkpt lat="37.37860384361474" lon="13.357469648711682"><ele>143.66666666666666</ele><time>2026-04-26T10:39:41.001Z</time></trkpt><trkpt lat="37.37859320568754" lon="13.357383230562865"><ele>143.0</ele><time>2026-04-26T10:39:42.001Z</time></trkpt><trkpt lat="37.378519513523905" lon="13.357271152329623"><ele>143.0</ele><time>2026-04-26T10:39:44.001Z</time></trkpt><trkpt lat="37.37841295447941" lon="13.357313548136649"><ele>143.0</ele><time>2026-04-26T10:39:46.001Z</time></trkpt><trkpt lat="37.37835182947964" lon="13.357378114980897"><ele>143.0</ele><time>2026-04-26T10:39:47.001Z</time></trkpt><trkpt lat="37.37827573778275" lon="13.357456818598342"><ele>143.0</ele><time>2026-04-26T10:39:48.001Z</time></trkpt><trkpt lat="37.37818576029271" lon="13.357536127540259"><ele>143.0</ele><time>2026-04-26T10:39:49.001Z</time></trkpt><trkpt lat="37.37809535247994" lon="13.357611575950587"><ele>141.0</ele><time>2026-04-26T10:39:50.001Z</time></trkpt><trkpt lat="37.377997337850445" lon="13.357704630763509"><ele>139.0</ele><time>2026-04-26T10:39:51.001Z</time></trkpt><trkpt lat="37.37789532877272" lon="13.357812632138842"><ele>137.0</ele><time>2026-04-26T10:39:52.001Z</time></trkpt><trkpt lat="37.37779367288554" lon="13.357915884601717"><ele>135.0</ele><time>2026-04-26T10:39:53.001Z</time></trkpt><trkpt lat="37.37769246435081" lon="13.358012831863324"><ele>135.5</ele><time>2026-04-26T10:39:54.001Z</time></trkpt><trkpt lat="37.37758726471773" lon="13.358114092501415"><ele>136.0</ele><time>2026-04-26T10:39:55.001Z</time></trkpt><trkpt lat="37.377476143424865" lon="13.358192015026628"><ele>136.5</ele><time>2026-04-26T10:39:56.001Z</time></trkpt><trkpt lat="37.377314225047854" lon="13.358313145379118"><ele>137.0</ele><time>2026-04-26T10:39:57.001Z</time></trkpt><trkpt lat="37.377201035790385" lon="13.358434769899123"><ele>136.0</ele><time>2026-04-26T10:39:58.001Z</time></trkpt><trkpt lat="37.37708430704845" lon="13.358546706752668"><ele>135.0</ele><time>2026-04-26T10:39:59.001Z</time></trkpt><trkpt lat="37.376973206947994" lon="13.358652455376536"><ele>134.0</ele><time>2026-04-26T10:40:00.001Z</time></trkpt><trkpt lat="37.37687739574777" lon="13.358775556040824"><ele>133.0</ele><time>2026-04-26T10:40:01.001Z</time></trkpt><trkpt lat="37.376802808978866" lon="13.358873665796176"><ele>133.0</ele><time>2026-04-26T10:40:02.001Z</time></trkpt><trkpt lat="37.37673310134818" lon="13.358956058868454"><ele>133.0</ele><time>2026-04-26T10:40:03.001Z</time></trkpt><trkpt lat="37.376656056268224" lon="13.359000187629132"><ele>133.0</ele><time>2026-04-26T10:40:04.001Z</time></trkpt><trkpt lat="37.37657631155461" lon="13.359035227434928"><ele>133.0</ele><time>2026-04-26T10:40:05.001Z</time></trkpt><trkpt lat="37.37649556998787" lon="13.358996290715297"><ele>133.0</ele><time>2026-04-26T10:40:06.001Z</time></trkpt><trkpt lat="37.37642259267891" lon="13.35892019257725"><ele>133.0</ele><time>2026-04-26T10:40:07.001Z</time></trkpt><trkpt lat="37.376332929549164" lon="13.358832460943901"><ele>131.5</ele><time>2026-04-26T10:40:08.001Z</time></trkpt><trkpt lat="37.37622764173564" lon="13.358757102615018"><ele>130.0</ele><time>2026-04-26T10:40:09Z</time></trkpt><trkpt lat="37.37613205141969" lon="13.35865827868482"><ele>128.5</ele><time>2026-04-26T10:40:10Z</time></trkpt><trkpt lat="37.37602317152613" lon="13.358578165954082"><ele>127.0</ele><time>2026-04-26T10:40:11Z</time></trkpt><trkpt lat="37.37590407779399" lon="13.35852479498806"><ele>127.0</ele><time>2026-04-26T10:40:12Z</time></trkpt><trkpt lat="37.375774497410326" lon="13.35848971125301"><ele>127.0</ele><time>2026-04-26T10:40:13Z</time></trkpt><trkpt lat="37.375632274599546" lon="13.35847951824541"><ele>127.0</ele><time>2026-04-26T10:40:14Z</time></trkpt><trkpt lat="37.37548510239263" lon="13.358482660398641"><ele>127.0</ele><time>2026-04-26T10:40:15Z</time></trkpt><trkpt lat="37.37533441189754" lon="13.358489116341804"><ele>126.25</ele><time>2026-04-26T10:40:16Z</time></trkpt><trkpt lat="37.37519056481931" lon="13.35849280543397"><ele>125.5</ele><time>2026-04-26T10:40:17Z</time></trkpt><trkpt lat="37.37505845996475" lon="13.358500061105646"><ele>124.75</ele><time>2026-04-26T10:40:18Z</time></trkpt><trkpt lat="37.374939869941066" lon="13.35853266528407"><ele>124.0</ele><time>2026-04-26T10:40:19Z</time></trkpt><trkpt lat="37.37483812877947" lon="13.358617236078073"><ele>124.0</ele><time>2026-04-26T10:40:20Z</time></trkpt><trkpt lat="37.37477477292187" lon="13.358756765531624"><ele>124.0</ele><time>2026-04-26T10:40:21Z</time></trkpt><trkpt lat="37.374713130489205" lon="13.358913004849269"><ele>124.0</ele><time>2026-04-26T10:40:22Z</time></trkpt><trkpt lat="37.37466043402349" lon="13.359071482720175"><ele>124.0</ele><time>2026-04-26T10:40:23Z</time></trkpt><trkpt lat="37.37463598237662" lon="13.359218060462823"><ele>123.83333333333334</ele><time>2026-04-26T10:40:24Z</time></trkpt><trkpt lat="37.37458744227858" lon="13.359302589154343"><ele>123.66666666666667</ele><time>2026-04-26T10:40:25Z</time></trkpt><trkpt lat="37.37450527444682" lon="13.359327592575927"><ele>123.5</ele><time>2026-04-26T10:40:26Z</time></trkpt><trkpt lat="37.374425848268146" lon="13.35931771085498"><ele>123.33333333333334</ele><time>2026-04-26T10:40:27Z</time></trkpt><trkpt lat="37.37436009154399" lon="13.359273109764544"><ele>123.16666666666667</ele><time>2026-04-26T10:40:28Z</time></trkpt><trkpt lat="37.37428306534274" lon="13.359174054434469"><ele>123.0</ele><time>2026-04-26T10:40:29Z</time></trkpt><trkpt lat="37.374190898701855" lon="13.35908788223647"><ele>123.0</ele><time>2026-04-26T10:40:30Z</time></trkpt><trkpt lat="37.37409320157078" lon="13.358988876450832"><ele>123.0</ele><time>2026-04-26T10:40:31Z</time></trkpt><trkpt lat="37.373988445700746" lon="13.358920054136632"><ele>123.0</ele><time>2026-04-26T10:40:32Z</time></trkpt><trkpt lat="37.37389175371992" lon="13.358869426738941"><ele>123.0</ele><time>2026-04-26T10:40:33Z</time></trkpt><trkpt lat="37.37377921788996" lon="13.35886294414576"><ele>122.2</ele><time>2026-04-26T10:40:34Z</time></trkpt><trkpt lat="37.37367281908506" lon="13.358888441676166"><ele>121.4</ele><time>2026-04-26T10:40:35Z</time></trkpt><trkpt lat="37.37357492076378" lon="13.358960016514503"><ele>120.60000000000001</ele><time>2026-04-26T10:40:36Z</time></trkpt><trkpt lat="37.373498736231845" lon="13.359048462308285"><ele>119.80000000000001</ele><time>2026-04-26T10:40:37Z</time></trkpt><trkpt lat="37.373449660383585" lon="13.359176076107063"><ele>119.0</ele><time>2026-04-26T10:40:38Z</time></trkpt><trkpt lat="37.37341288247617" lon="13.359313107497474"><ele>119.0</ele><time>2026-04-26T10:40:39Z</time></trkpt><trkpt lat="37.37338940618498" lon="13.359458327447648"><ele>119.0</ele><time>2026-04-26T10:40:40Z</time></trkpt><trkpt lat="37.37335213707691" lon="13.359582051348626"><ele>119.0</ele><time>2026-04-26T10:40:41Z</time></trkpt><trkpt lat="37.37328880518364" lon="13.359685800316672"><ele>119.0</ele><time>2026-04-26T10:40:42Z</time></trkpt><trkpt lat="37.37320226385963" lon="13.359759161293196"><ele>119.0</ele><time>2026-04-26T10:40:43Z</time></trkpt><trkpt lat="37.37309884692179" lon="13.359810802411731"><ele>118.5</ele><time>2026-04-26T10:40:44Z</time></trkpt><trkpt lat="37.37299155114425" lon="13.359849513309504"><ele>118.0</ele><time>2026-04-26T10:40:45Z</time></trkpt><trkpt lat="37.37287859027253" lon="13.359889971543597"><ele>117.5</ele><time>2026-04-26T10:40:46Z</time></trkpt><trkpt lat="37.37275947018425" lon="13.359937002961445"><ele>117.0</ele><time>2026-04-26T10:40:47Z</time></trkpt><trkpt lat="37.372634600202005" lon="13.359964722362413"><ele>117.0</ele><time>2026-04-26T10:40:48Z</time></trkpt><trkpt lat="37.37251582459668" lon="13.360012475771347"><ele>117.0</ele><time>2026-04-26T10:40:49Z</time></trkpt><trkpt lat="37.372407866378644" lon="13.360069306283636"><ele>117.0</ele><time>2026-04-26T10:40:50Z</time></trkpt><trkpt lat="37.372302158704954" lon="13.360118784833574"><ele>117.0</ele><time>2026-04-26T10:40:51Z</time></trkpt><trkpt lat="37.37219474324737" lon="13.360152908723123"><ele>116.25</ele><time>2026-04-26T10:40:52Z</time></trkpt><trkpt lat="37.37209186704869" lon="13.360207113916434"><ele>115.5</ele><time>2026-04-26T10:40:53Z</time></trkpt><trkpt lat="37.371985635753475" lon="13.36025221655362"><ele>114.75</ele><time>2026-04-26T10:40:54Z</time></trkpt><trkpt lat="37.371870253286076" lon="13.360277553482966"><ele>114.0</ele><time>2026-04-26T10:40:55Z</time></trkpt><trkpt lat="37.371749744495425" lon="13.360321201404211"><ele>114.0</ele><time>2026-04-26T10:40:56Z</time></trkpt><trkpt lat="37.371622229374616" lon="13.360363066985032"><ele>114.0</ele><time>2026-04-26T10:40:57Z</time></trkpt><trkpt lat="37.371495232538294" lon="13.360391535108716"><ele>114.0</ele><time>2026-04-26T10:40:58Z</time></trkpt><trkpt lat="37.37136958874778" lon="13.360407571216422"><ele>114.0</ele><time>2026-04-26T10:40:59Z</time></trkpt><trkpt lat="37.371233745050105" lon="13.36042183062624"><ele>113.25</ele><time>2026-04-26T10:41:00Z</time></trkpt><trkpt lat="37.37110380138063" lon="13.36043410333402"><ele>112.5</ele><time>2026-04-26T10:41:01Z</time></trkpt><trkpt lat="37.37097189078969" lon="13.360467004646274"><ele>111.75</ele><time>2026-04-26T10:41:02Z</time></trkpt><trkpt lat="37.37083616497826" lon="13.360477133819415"><ele>111.0</ele><time>2026-04-26T10:41:03Z</time></trkpt><trkpt lat="37.37070037069856" lon="13.360490132445362"><ele>111.0</ele><time>2026-04-26T10:41:04Z</time></trkpt><trkpt lat="37.37057509580773" lon="13.360503572878514"><ele>111.0</ele><time>2026-04-26T10:41:05Z</time></trkpt><trkpt lat="37.370451077032605" lon="13.360492511540889"><ele>111.0</ele><time>2026-04-26T10:41:06Z</time></trkpt><trkpt lat="37.37032123549804" lon="13.360500034876374"><ele>111.0</ele><time>2026-04-26T10:41:07Z</time></trkpt><trkpt lat="37.37019001671017" lon="13.360524627098327"><ele>111.25</ele><time>2026-04-26T10:41:08Z</time></trkpt><trkpt lat="37.3700545379177" lon="13.360529716943791"><ele>111.5</ele><time>2026-04-26T10:41:09Z</time></trkpt><trkpt lat="37.36992825317183" lon="13.360555359743495"><ele>111.75</ele><time>2026-04-26T10:41:10Z</time></trkpt><trkpt lat="37.36980771592776" lon="13.360587372447009"><ele>112.0</ele><time>2026-04-26T10:41:11Z</time></trkpt><trkpt lat="37.36968510012041" lon="13.36064543058843"><ele>113.75</ele><time>2026-04-26T10:41:12Z</time></trkpt><trkpt lat="37.36956464357669" lon="13.360711279332165"><ele>115.5</ele><time>2026-04-26T10:41:13Z</time></trkpt><trkpt lat="37.36945051707443" lon="13.360782829460446"><ele>117.25</ele><time>2026-04-26T10:41:14.001Z</time></trkpt><trkpt lat="37.369352682083175" lon="13.360857516677997"><ele>119.0</ele><time>2026-04-26T10:41:15.001Z</time></trkpt><trkpt lat="37.369270523039745" lon="13.360933066778125"><ele>119.0</ele><time>2026-04-26T10:41:16.001Z</time></trkpt><trkpt lat="37.369199390656306" lon="13.361015367102148"><ele>119.0</ele><time>2026-04-26T10:41:17.001Z</time></trkpt><trkpt lat="37.36911101925608" lon="13.36109611404791"><ele>119.0</ele><time>2026-04-26T10:41:18.001Z</time></trkpt><trkpt lat="37.369053261626405" lon="13.361230918711453"><ele>119.0</ele><time>2026-04-26T10:41:19.001Z</time></trkpt><trkpt lat="37.36897970442667" lon="13.361355531926447"><ele>119.75</ele><time>2026-04-26T10:41:20.001Z</time></trkpt><trkpt lat="37.36890112457762" lon="13.361485512355815"><ele>120.5</ele><time>2026-04-26T10:41:21.001Z</time></trkpt><trkpt lat="37.3688228959777" lon="13.361616891995366"><ele>121.25</ele><time>2026-04-26T10:41:22.001Z</time></trkpt><trkpt lat="37.36874683074351" lon="13.361750847236973"><ele>122.0</ele><time>2026-04-26T10:41:23.001Z</time></trkpt><trkpt lat="37.36868229084908" lon="13.361873980026928"><ele>122.39999999999999</ele><time>2026-04-26T10:41:24.001Z</time></trkpt><trkpt lat="37.3686244819278" lon="13.36198617880598"><ele>122.79999999999998</ele><time>2026-04-26T10:41:25.001Z</time></trkpt><trkpt lat="37.36857657376246" lon="13.362076389175588"><ele>123.2</ele><time>2026-04-26T10:41:26.001Z</time></trkpt><trkpt lat="37.368548765788" lon="13.36217000382159"><ele>123.6</ele><time>2026-04-26T10:41:27.001Z</time></trkpt><trkpt lat="37.36846089983857" lon="13.362244487201897"><ele>124.0</ele><time>2026-04-26T10:41:28.001Z</time></trkpt><trkpt lat="37.36837995860233" lon="13.362381698491987"><ele>124.0</ele><time>2026-04-26T10:41:30.001Z</time></trkpt><trkpt lat="37.368331946174486" lon="13.362471513938083"><ele>124.0</ele><time>2026-04-26T10:41:31.001Z</time></trkpt><trkpt lat="37.36828969383219" lon="13.362571331867988"><ele>124.0</ele><time>2026-04-26T10:41:32.001Z</time></trkpt><trkpt lat="37.36822832845472" lon="13.362678288738048"><ele>124.0</ele><time>2026-04-26T10:41:33.001Z</time></trkpt><trkpt lat="37.36816815218626" lon="13.362780687957569"><ele>124.0</ele><time>2026-04-26T10:41:34.001Z</time></trkpt><trkpt lat="37.368115487110515" lon="13.362887621277752"><ele>124.00000000000001</ele><time>2026-04-26T10:41:35.001Z</time></trkpt><trkpt lat="37.36807421896167" lon="13.362994401207466"><ele>124.0</ele><time>2026-04-26T10:41:36.001Z</time></trkpt><trkpt lat="37.36803952094004" lon="13.363106780637722"><ele>124.0</ele><time>2026-04-26T10:41:37.001Z</time></trkpt><trkpt lat="37.36801578745294" lon="13.363224242365854"><ele>124.0</ele><time>2026-04-26T10:41:38.001Z</time></trkpt><trkpt lat="37.367977740066294" lon="13.36331845253514"><ele>124.00000000000001</ele><time>2026-04-26T10:41:39.001Z</time></trkpt><trkpt lat="37.36797563716462" lon="13.363398243601837"><ele>124.0</ele><time>2026-04-26T10:41:40.001Z</time></trkpt><trkpt lat="37.36793102014885" lon="13.363474431016229"><ele>123.6</ele><time>2026-04-26T10:41:43.001Z</time></trkpt><trkpt lat="37.36787522850842" lon="13.363345687796778"><ele>123.2</ele><time>2026-04-26T10:41:45.001Z</time></trkpt><trkpt lat="37.36788094318318" lon="13.36324352263224"><ele>122.79999999999998</ele><time>2026-04-26T10:41:47.001Z</time></trkpt><trkpt lat="37.367875538456666" lon="13.363110273792248"><ele>122.39999999999999</ele><time>2026-04-26T10:41:49.001Z</time></trkpt><trkpt lat="37.367852455759575" lon="13.36296189849394"><ele>122.0</ele><time>2026-04-26T10:41:51.001Z</time></trkpt><trkpt lat="37.36780946570993" lon="13.362849414047067"><ele>122.0</ele><time>2026-04-26T10:41:53.001Z</time></trkpt><trkpt lat="37.3677357153045" lon="13.36275402198498"><ele>121.99999999999999</ele><time>2026-04-26T10:41:55.001Z</time></trkpt><trkpt lat="37.36766746525233" lon="13.362678744427033"><ele>121.99999999999999</ele><time>2026-04-26T10:41:57.001Z</time></trkpt><trkpt lat="37.36759328983723" lon="13.362596521635226"><ele>122.0</ele><time>2026-04-26T10:41:59.001Z</time></trkpt><trkpt lat="37.36751356045633" lon="13.362533812643036"><ele>122.0</ele><time>2026-04-26T10:42:01.001Z</time></trkpt><trkpt lat="37.367472208220775" lon="13.362446023932268"><ele>121.99999999999999</ele><time>2026-04-26T10:42:03.001Z</time></trkpt><trkpt lat="37.367429467110966" lon="13.362369254539304"><ele>122.0</ele><time>2026-04-26T10:42:05.001Z</time></trkpt><trkpt lat="37.36737833296687" lon="13.362292713823503"><ele>121.99999999999999</ele><time>2026-04-26T10:42:08.001Z</time></trkpt><trkpt lat="37.36731895279373" lon="13.362262279167131"><ele>121.99999999999999</ele><time>2026-04-26T10:42:12.001Z</time></trkpt><trkpt lat="37.367247754869865" lon="13.362272308404078"><ele>122.0</ele><time>2026-04-26T10:42:16Z</time></trkpt><trkpt lat="37.36716314140178" lon="13.362240477241084"><ele>121.99999999999999</ele><time>2026-04-26T10:42:18Z</time></trkpt><trkpt lat="37.36710097979961" lon="13.362202814062407"><ele>121.99999999999999</ele><time>2026-04-26T10:42:20Z</time></trkpt><trkpt lat="37.36701737375858" lon="13.36219462299006"><ele>121.16666666666666</ele><time>2026-04-26T10:42:25Z</time></trkpt><trkpt lat="37.366953823426066" lon="13.362161328661312"><ele>120.33333333333333</ele><time>2026-04-26T10:42:27Z</time></trkpt><trkpt lat="37.36688400790738" lon="13.362100251174736"><ele>119.5</ele><time>2026-04-26T10:42:29Z</time></trkpt><trkpt lat="37.36681905776608" lon="13.362034047288242"><ele>118.66666666666666</ele><time>2026-04-26T10:42:32Z</time></trkpt><trkpt lat="37.36675389434836" lon="13.361948427421122"><ele>117.83333333333333</ele><time>2026-04-26T10:42:35Z</time></trkpt><trkpt lat="37.366688836927246" lon="13.361857160876832"><ele>117.0</ele><time>2026-04-26T10:42:38Z</time></trkpt><trkpt lat="37.36663897803084" lon="13.361789832748496"><ele>117.0</ele><time>2026-04-26T10:42:40Z</time></trkpt><trkpt lat="37.36658536707424" lon="13.361720129609422"><ele>117.0</ele><time>2026-04-26T10:42:42Z</time></trkpt><trkpt lat="37.36653101273005" lon="13.361648298789317"><ele>117.0</ele><time>2026-04-26T10:42:44Z</time></trkpt><trkpt lat="37.36647355935837" lon="13.361572362957686"><ele>117.0</ele><time>2026-04-26T10:42:46Z</time></trkpt><trkpt lat="37.366425640180104" lon="13.361498468625257"><ele>117.0</ele><time>2026-04-26T10:42:48.001Z</time></trkpt><trkpt lat="37.36638019459285" lon="13.36140919598049"><ele>117.0</ele><time>2026-04-26T10:42:51.001Z</time></trkpt><trkpt lat="37.36634163869263" lon="13.36134584417615"><ele>117.16666666666667</ele><time>2026-04-26T10:42:53.001Z</time></trkpt><trkpt lat="37.3662868994528" lon="13.361290988834815"><ele>117.33333333333334</ele><time>2026-04-26T10:42:55.001Z</time></trkpt><trkpt lat="37.36622290841136" lon="13.36123115991258"><ele>117.5</ele><time>2026-04-26T10:42:57.001Z</time></trkpt><trkpt lat="37.36618601056973" lon="13.361160403193985"><ele>117.66666666666667</ele><time>2026-04-26T10:42:59.001Z</time></trkpt><trkpt lat="37.36613505678227" lon="13.361100011430922"><ele>117.83333333333334</ele><time>2026-04-26T10:43:01.001Z</time></trkpt><trkpt lat="37.366056762079864" lon="13.361100180486336"><ele>118.0</ele><time>2026-04-26T10:43:03.001Z</time></trkpt><trkpt lat="37.365975622653835" lon="13.361144712193987"><ele>118.0</ele><time>2026-04-26T10:43:06.001Z</time></trkpt><trkpt lat="37.36591046252903" lon="13.361145056565277"><ele>118.0</ele><time>2026-04-26T10:43:08.001Z</time></trkpt><trkpt lat="37.365841602546844" lon="13.36110789243523"><ele>118.0</ele><time>2026-04-26T10:43:10.001Z</time></trkpt><trkpt lat="37.36577379276862" lon="13.36108002622716"><ele>118.0</ele><time>2026-04-26T10:43:12.001Z</time></trkpt><trkpt lat="37.365706241512356" lon="13.361043331264094"><ele>118.0</ele><time>2026-04-26T10:43:14.001Z</time></trkpt><trkpt lat="37.3656403461284" lon="13.361001464247153"><ele>118.0</ele><time>2026-04-26T10:43:16.001Z</time></trkpt><trkpt lat="37.365563064645954" lon="13.36096659631643"><ele>118.0</ele><time>2026-04-26T10:43:18.001Z</time></trkpt><trkpt lat="37.36545586673046" lon="13.36093547549674"><ele>116.50000000000001</ele><time>2026-04-26T10:43:20.001Z</time></trkpt><trkpt lat="37.36534870049816" lon="13.360915531148997"><ele>115.0</ele><time>2026-04-26T10:43:22.001Z</time></trkpt><trkpt lat="37.36526028003165" lon="13.360900070392878"><ele>113.5</ele><time>2026-04-26T10:43:24.001Z</time></trkpt><trkpt lat="37.36517686632646" lon="13.360883234768632"><ele>112.0</ele><time>2026-04-26T10:43:26.001Z</time></trkpt><trkpt lat="37.365102288940626" lon="13.360876148555201"><ele>110.50000000000001</ele><time>2026-04-26T10:43:28.001Z</time></trkpt><trkpt lat="37.36502025779085" lon="13.360847699197224"><ele>109.0</ele><time>2026-04-26T10:43:30.001Z</time></trkpt><trkpt lat="37.364938650132565" lon="13.3607984430342"><ele>109.0</ele><time>2026-04-26T10:43:32.001Z</time></trkpt><trkpt lat="37.36487627260172" lon="13.36070399082886"><ele>109.0</ele><time>2026-04-26T10:43:34.001Z</time></trkpt><trkpt lat="37.364814152137576" lon="13.360585999975251"><ele>109.0</ele><time>2026-04-26T10:43:36.001Z</time></trkpt><trkpt lat="37.36476534506839" lon="13.360457878840466"><ele>109.0</ele><time>2026-04-26T10:43:38.001Z</time></trkpt><trkpt lat="37.36471432092413" lon="13.360365116549238"><ele>109.0</ele><time>2026-04-26T10:43:40.001Z</time></trkpt><trkpt lat="37.36466011834255" lon="13.360278433170524"><ele>104.4</ele><time>2026-04-26T10:43:42.001Z</time></trkpt><trkpt lat="37.364557751946265" lon="13.360249603504222"><ele>99.80000000000001</ele><time>2026-04-26T10:43:44.001Z</time></trkpt><trkpt lat="37.36444461632512" lon="13.360205130016547"><ele>95.19999999999999</ele><time>2026-04-26T10:43:46.001Z</time></trkpt><trkpt lat="37.364334192640314" lon="13.360164923373729"><ele>90.6</ele><time>2026-04-26T10:43:48.001Z</time></trkpt><trkpt lat="37.36424865901301" lon="13.360127873340925"><ele>86.0</ele><time>2026-04-26T10:43:50.001Z</time></trkpt><trkpt lat="37.36416417921443" lon="13.360106813603949"><ele>86.0</ele><time>2026-04-26T10:43:52.001Z</time></trkpt><trkpt lat="37.36407658700347" lon="13.3600570339917"><ele>86.0</ele><time>2026-04-26T10:43:54.001Z</time></trkpt><trkpt lat="37.3639965890123" lon="13.359968170114792"><ele>86.0</ele><time>2026-04-26T10:43:56.001Z</time></trkpt><trkpt lat="37.36387678353759" lon="13.359916000977037"><ele>86.0</ele><time>2026-04-26T10:43:58.001Z</time></trkpt><trkpt lat="37.36380123198846" lon="13.359900671211314"><ele>86.0</ele><time>2026-04-26T10:43:59.002Z</time></trkpt><trkpt lat="37.36373632301672" lon="13.359888945041025"><ele>85.16666666666667</ele><time>2026-04-26T10:44:00.002Z</time></trkpt><trkpt lat="37.36366772903839" lon="13.359888731731155"><ele>84.33333333333334</ele><time>2026-04-26T10:44:01.002Z</time></trkpt><trkpt lat="37.363550235377595" lon="13.359855327338348"><ele>83.5</ele><time>2026-04-26T10:44:03.002Z</time></trkpt><trkpt lat="37.36348303957539" lon="13.359843188054098"><ele>82.66666666666667</ele><time>2026-04-26T10:44:04.002Z</time></trkpt><trkpt lat="37.363419988520704" lon="13.359831797548164"><ele>81.83333333333333</ele><time>2026-04-26T10:44:05.002Z</time></trkpt><trkpt lat="37.363304248532025" lon="13.359815369983263"><ele>81.0</ele><time>2026-04-26T10:44:07.002Z</time></trkpt><trkpt lat="37.363227837572026" lon="13.359826218688724"><ele>81.0</ele><time>2026-04-26T10:44:08.002Z</time></trkpt><trkpt lat="37.36314731572164" lon="13.359796997385738"><ele>81.0</ele><time>2026-04-26T10:44:09.002Z</time></trkpt><trkpt lat="37.36306789246306" lon="13.35977644039152"><ele>81.0</ele><time>2026-04-26T10:44:10.002Z</time></trkpt><trkpt lat="37.36299519418165" lon="13.359743959872556"><ele>81.0</ele><time>2026-04-26T10:44:11.002Z</time></trkpt><trkpt lat="37.36290693078544" lon="13.359735662896822"><ele>81.0</ele><time>2026-04-26T10:44:12.002Z</time></trkpt><trkpt lat="37.36284188298442" lon="13.359695421933216"><ele>81.0</ele><time>2026-04-26T10:44:13.002Z</time></trkpt><trkpt lat="37.362715063212065" lon="13.359687334069362"><ele>80.66666666666667</ele><time>2026-04-26T10:44:15.002Z</time></trkpt><trkpt lat="37.36264047121642" lon="13.359719528801826"><ele>80.33333333333333</ele><time>2026-04-26T10:44:16.002Z</time></trkpt><trkpt lat="37.36256491989162" lon="13.359787382646878"><ele>80.0</ele><time>2026-04-26T10:44:17.002Z</time></trkpt><trkpt lat="37.36250453906222" lon="13.359832175577612"><ele>79.66666666666666</ele><time>2026-04-26T10:44:18.002Z</time></trkpt><trkpt lat="37.36242454978591" lon="13.359930640503546"><ele>79.33333333333333</ele><time>2026-04-26T10:44:20.002Z</time></trkpt><trkpt lat="37.36237524625634" lon="13.35999823340508"><ele>79.0</ele><time>2026-04-26T10:44:21.001Z</time></trkpt><trkpt lat="37.36232369798529" lon="13.36007177419865"><ele>79.0</ele><time>2026-04-26T10:44:22.001Z</time></trkpt><trkpt lat="37.36228239410997" lon="13.360149909230925"><ele>79.0</ele><time>2026-04-26T10:44:23.001Z</time></trkpt><trkpt lat="37.36225121789921" lon="13.360223363162948"><ele>79.0</ele><time>2026-04-26T10:44:24.001Z</time></trkpt><trkpt lat="37.36220148808428" lon="13.360307615268711"><ele>79.0</ele><time>2026-04-26T10:44:26.001Z</time></trkpt><trkpt lat="37.362099807686306" lon="13.36033070050377"><ele>79.0</ele><time>2026-04-26T10:44:28.001Z</time></trkpt><trkpt lat="37.36203417783682" lon="13.36033330937843"><ele>79.0</ele><time>2026-04-26T10:44:29.001Z</time></trkpt><trkpt lat="37.36195634098315" lon="13.36034369393171"><ele>79.33333333333333</ele><time>2026-04-26T10:44:30.001Z</time></trkpt><trkpt lat="37.36188827272206" lon="13.360347523496849"><ele>79.66666666666666</ele><time>2026-04-26T10:44:31.001Z</time></trkpt><trkpt lat="37.36181399526387" lon="13.360365430282032"><ele>80.0</ele><time>2026-04-26T10:44:32.001Z</time></trkpt><trkpt lat="37.36173378896958" lon="13.360377953689033"><ele>80.33333333333333</ele><time>2026-04-26T10:44:33.001Z</time></trkpt><trkpt lat="37.36166026981794" lon="13.360382653375154"><ele>80.66666666666667</ele><time>2026-04-26T10:44:34.001Z</time></trkpt><trkpt lat="37.36157632111728" lon="13.360395830571631"><ele>81.0</ele><time>2026-04-26T10:44:35.001Z</time></trkpt><trkpt lat="37.36150910435328" lon="13.360406524239684"><ele>81.0</ele><time>2026-04-26T10:44:36.001Z</time></trkpt><trkpt lat="37.361428153293524" lon="13.36042007040494"><ele>81.0</ele><time>2026-04-26T10:44:37.001Z</time></trkpt><trkpt lat="37.3613474830421" lon="13.360422706401362"><ele>81.0</ele><time>2026-04-26T10:44:38.001Z</time></trkpt><trkpt lat="37.36126813723467" lon="13.360425121019313"><ele>81.0</ele><time>2026-04-26T10:44:39.001Z</time></trkpt><trkpt lat="37.36119587376875" lon="13.360430769392812"><ele>81.0</ele><time>2026-04-26T10:44:40.001Z</time></trkpt><trkpt lat="37.36110803751729" lon="13.360431265872213"><ele>81.0</ele><time>2026-04-26T10:44:42.001Z</time></trkpt><trkpt lat="37.36102419904877" lon="13.360397369040552"><ele>80.16666666666667</ele><time>2026-04-26T10:44:44.001Z</time></trkpt><trkpt lat="37.36096512724879" lon="13.360367170410187"><ele>79.33333333333333</ele><time>2026-04-26T10:44:45.001Z</time></trkpt><trkpt lat="37.36085876255893" lon="13.360304821923265"><ele>78.5</ele><time>2026-04-26T10:44:47.001Z</time></trkpt><trkpt lat="37.36077958984915" lon="13.360232055892908"><ele>77.66666666666666</ele><time>2026-04-26T10:44:49.001Z</time></trkpt><trkpt lat="37.36071169789698" lon="13.360219803000307"><ele>76.83333333333333</ele><time>2026-04-26T10:44:52.001Z</time></trkpt><trkpt lat="37.3606564705759" lon="13.360268095580885"><ele>76.0</ele><time>2026-04-26T10:44:54.001Z</time></trkpt><trkpt lat="37.3606076706568" lon="13.360357883057283"><ele>76.0</ele><time>2026-04-26T10:44:56.001Z</time></trkpt><trkpt lat="37.36056039050375" lon="13.360433891048407"><ele>76.0</ele><time>2026-04-26T10:44:58.001Z</time></trkpt><trkpt lat="37.360510903843085" lon="13.360509275410989"><ele>76.0</ele><time>2026-04-26T10:45:00.001Z</time></trkpt><trkpt lat="37.36047254800955" lon="13.360596287475282"><ele>76.0</ele><time>2026-04-26T10:45:02.001Z</time></trkpt><trkpt lat="37.360445253087754" lon="13.360718939557268"><ele>76.0</ele><time>2026-04-26T10:45:04.001Z</time></trkpt><trkpt lat="37.36042887762105" lon="13.360819637025235"><ele>76.0</ele><time>2026-04-26T10:45:06.001Z</time></trkpt><trkpt lat="37.3604069460784" lon="13.360912092933921"><ele>74.85714285714285</ele><time>2026-04-26T10:45:08.001Z</time></trkpt><trkpt lat="37.36037564317385" lon="13.360998569832681"><ele>73.71428571428572</ele><time>2026-04-26T10:45:10.001Z</time></trkpt><trkpt lat="37.36035711915459" lon="13.361084596129384"><ele>72.57142857142857</ele><time>2026-04-26T10:45:12.001Z</time></trkpt><trkpt lat="37.36034024662429" lon="13.36118032340834"><ele>71.42857142857142</ele><time>2026-04-26T10:45:14.001Z</time></trkpt><trkpt lat="37.36032810542645" lon="13.361263412123748"><ele>70.28571428571428</ele><time>2026-04-26T10:45:16.001Z</time></trkpt><trkpt lat="37.36027740449005" lon="13.361344124105992"><ele>69.14285714285714</ele><time>2026-04-26T10:45:19.001Z</time></trkpt><trkpt lat="37.36021320172971" lon="13.361384855812302"><ele>68.0</ele><time>2026-04-26T10:45:22.001Z</time></trkpt><trkpt lat="37.36013018074233" lon="13.361307110533767"><ele>67.57142857142857</ele><time>2026-04-26T10:45:25.001Z</time></trkpt><trkpt lat="37.36009238962789" lon="13.361241602644185"><ele>67.14285714285714</ele><time>2026-04-26T10:45:26.001Z</time></trkpt><trkpt lat="37.36004744964031" lon="13.361185604133935"><ele>66.71428571428572</ele><time>2026-04-26T10:45:27.001Z</time></trkpt><trkpt lat="37.36000339806835" lon="13.361123912509496"><ele>66.28571428571428</ele><time>2026-04-26T10:45:28.001Z</time></trkpt><trkpt lat="37.359963581388115" lon="13.361057161064188"><ele>65.85714285714286</ele><time>2026-04-26T10:45:29.001Z</time></trkpt><trkpt lat="37.35992614123571" lon="13.36099136177059"><ele>65.42857142857143</ele><time>2026-04-26T10:45:30.001Z</time></trkpt><trkpt lat="37.35989423187868" lon="13.360922632358749"><ele>65.0</ele><time>2026-04-26T10:45:31.001Z</time></trkpt><trkpt lat="37.35986564540139" lon="13.360849869308733"><ele>65.0</ele><time>2026-04-26T10:45:32.001Z</time></trkpt><trkpt lat="37.35981757680257" lon="13.36070215371031"><ele>65.0</ele><time>2026-04-26T10:45:34.001Z</time></trkpt><trkpt lat="37.359790674217834" lon="13.360629019707043"><ele>65.0</ele><time>2026-04-26T10:45:35.001Z</time></trkpt><trkpt lat="37.35971991496138" lon="13.360493252573217"><ele>65.0</ele><time>2026-04-26T10:45:37.001Z</time></trkpt><trkpt lat="37.35965839460096" lon="13.36039022303879"><ele>65.0</ele><time>2026-04-26T10:45:39.001Z</time></trkpt><trkpt lat="37.35961061727416" lon="13.360284048775373"><ele>64.0</ele><time>2026-04-26T10:45:42.001Z</time></trkpt><trkpt lat="37.35955129707614" lon="13.360182930339672"><ele>63.0</ele><time>2026-04-26T10:45:44.001Z</time></trkpt><trkpt lat="37.35948348595541" lon="13.360078202688484"><ele>62.0</ele><time>2026-04-26T10:45:46.001Z</time></trkpt><trkpt lat="37.35939968049541" lon="13.359968491071577"><ele>61.0</ele><time>2026-04-26T10:45:48.001Z</time></trkpt><trkpt lat="37.359352266230275" lon="13.359911243074809"><ele>60.0</ele><time>2026-04-26T10:45:49.001Z</time></trkpt><trkpt lat="37.35927118647577" lon="13.359832595705777"><ele>60.0</ele><time>2026-04-26T10:45:51.001Z</time></trkpt><trkpt lat="37.359192610981644" lon="13.359760403758326"><ele>60.0</ele><time>2026-04-26T10:45:53.001Z</time></trkpt><trkpt lat="37.35908754859538" lon="13.359723415348054"><ele>60.0</ele><time>2026-04-26T10:45:55.001Z</time></trkpt><trkpt lat="37.35899978906853" lon="13.359762009667767"><ele>60.0</ele><time>2026-04-26T10:45:57.001Z</time></trkpt><trkpt lat="37.358915564664365" lon="13.359846174167428"><ele>60.0</ele><time>2026-04-26T10:45:59.001Z</time></trkpt><trkpt lat="37.358858040142714" lon="13.359895954289964"><ele>59.4</ele><time>2026-04-26T10:46:01.002Z</time></trkpt><trkpt lat="37.35877946882967" lon="13.359985205261422"><ele>58.8</ele><time>2026-04-26T10:46:03.002Z</time></trkpt><trkpt lat="37.358705399433255" lon="13.360078098429465"><ele>58.2</ele><time>2026-04-26T10:46:05.002Z</time></trkpt><trkpt lat="37.35861805293125" lon="13.360147925266638"><ele>57.6</ele><time>2026-04-26T10:46:07.002Z</time></trkpt><trkpt lat="37.35852216584702" lon="13.360215823476603"><ele>57.0</ele><time>2026-04-26T10:46:09.002Z</time></trkpt><trkpt lat="37.35841846206813" lon="13.36027793441079"><ele>57.0</ele><time>2026-04-26T10:46:11.002Z</time></trkpt><trkpt lat="37.35832682406366" lon="13.360332631519944"><ele>57.0</ele><time>2026-04-26T10:46:13.002Z</time></trkpt><trkpt lat="37.35825127384963" lon="13.360381051028059"><ele>57.0</ele><time>2026-04-26T10:46:15.002Z</time></trkpt><trkpt lat="37.358162377969" lon="13.36043566080993"><ele>57.0</ele><time>2026-04-26T10:46:17.002Z</time></trkpt><trkpt lat="37.35807830321391" lon="13.36049560592209"><ele>57.0</ele><time>2026-04-26T10:46:19.002Z</time></trkpt><trkpt lat="37.35798165132395" lon="13.360562448558431"><ele>56.8</ele><time>2026-04-26T10:46:21.002Z</time></trkpt><trkpt lat="37.357886875992975" lon="13.360628951877873"><ele>56.6</ele><time>2026-04-26T10:46:23.002Z</time></trkpt><trkpt lat="37.35779862380828" lon="13.360683511521747"><ele>56.39999999999999</ele><time>2026-04-26T10:46:25.002Z</time></trkpt><trkpt lat="37.3577113477304" lon="13.36073408972816"><ele>56.199999999999996</ele><time>2026-04-26T10:46:27Z</time></trkpt><trkpt lat="37.35761114633924" lon="13.360801762079488"><ele>56.0</ele><time>2026-04-26T10:46:29Z</time></trkpt><trkpt lat="37.35749992045821" lon="13.36086268342141"><ele>56.0</ele><time>2026-04-26T10:46:31Z</time></trkpt><trkpt lat="37.35738827429638" lon="13.360917022184779"><ele>55.99999999999999</ele><time>2026-04-26T10:46:33Z</time></trkpt><trkpt lat="37.35729498136995" lon="13.360955221639378"><ele>55.99999999999999</ele><time>2026-04-26T10:46:35Z</time></trkpt><trkpt lat="37.35720362444262" lon="13.360995467606925"><ele>56.0</ele><time>2026-04-26T10:46:37Z</time></trkpt><trkpt lat="37.357112939634355" lon="13.361035594850863"><ele>56.0</ele><time>2026-04-26T10:46:39Z</time></trkpt><trkpt lat="37.35701756814229" lon="13.361069792503223"><ele>55.75</ele><time>2026-04-26T10:46:41Z</time></trkpt><trkpt lat="37.3569057337831" lon="13.36113895250803"><ele>55.5</ele><time>2026-04-26T10:46:43Z</time></trkpt><trkpt lat="37.356805681556104" lon="13.361206074469115"><ele>55.25</ele><time>2026-04-26T10:46:44.999Z</time></trkpt><trkpt lat="37.35670947936484" lon="13.361279939400259"><ele>55.0</ele><time>2026-04-26T10:46:47Z</time></trkpt><trkpt lat="37.35661250412293" lon="13.36136845167622"><ele>56.0</ele><time>2026-04-26T10:46:49Z</time></trkpt><trkpt lat="37.35651324375217" lon="13.361452959793938"><ele>57.0</ele><time>2026-04-26T10:46:51Z</time></trkpt><trkpt lat="37.35641413826571" lon="13.361531196628448"><ele>58.0</ele><time>2026-04-26T10:46:53Z</time></trkpt><trkpt lat="37.356330425598735" lon="13.361639380441506"><ele>59.0</ele><time>2026-04-26T10:46:55Z</time></trkpt><trkpt lat="37.35626013263793" lon="13.361749746135796"><ele>59.2</ele><time>2026-04-26T10:46:57Z</time></trkpt><trkpt lat="37.356225449617895" lon="13.36182264975722"><ele>59.400000000000006</ele><time>2026-04-26T10:46:58Z</time></trkpt><trkpt lat="37.35614901014628" lon="13.3619345859709"><ele>59.6</ele><time>2026-04-26T10:47:00Z</time></trkpt><trkpt lat="37.35606690992883" lon="13.362051186098721"><ele>59.8</ele><time>2026-04-26T10:47:02Z</time></trkpt><trkpt lat="37.356019393412254" lon="13.362103891421787"><ele>60.0</ele><time>2026-04-26T10:47:03Z</time></trkpt><trkpt lat="37.35592276414058" lon="13.362198664038695"><ele>61.0</ele><time>2026-04-26T10:47:05Z</time></trkpt><trkpt lat="37.355819950473" lon="13.362305442614794"><ele>62.0</ele><time>2026-04-26T10:47:07Z</time></trkpt><trkpt lat="37.355770162063465" lon="13.362362458911445"><ele>63.0</ele><time>2026-04-26T10:47:08Z</time></trkpt><trkpt lat="37.35569716262342" lon="13.362458437504438"><ele>64.0</ele><time>2026-04-26T10:47:10Z</time></trkpt><trkpt lat="37.35563889165167" lon="13.362569023043246"><ele>65.0</ele><time>2026-04-26T10:47:12Z</time></trkpt><trkpt lat="37.35559124602258" lon="13.362688839618267"><ele>65.0</ele><time>2026-04-26T10:47:14Z</time></trkpt><trkpt lat="37.35554568756539" lon="13.362821329800575"><ele>65.0</ele><time>2026-04-26T10:47:16Z</time></trkpt><trkpt lat="37.35552164037299" lon="13.362901058910365"><ele>65.0</ele><time>2026-04-26T10:47:17Z</time></trkpt><trkpt lat="37.355502432171285" lon="13.362978446205938"><ele>65.0</ele><time>2026-04-26T10:47:18Z</time></trkpt><trkpt lat="37.355462539277994" lon="13.363125290115004"><ele>65.0</ele><time>2026-04-26T10:47:20Z</time></trkpt><trkpt lat="37.35541517855752" lon="13.363249528925067"><ele>66.4</ele><time>2026-04-26T10:47:22Z</time></trkpt><trkpt lat="37.355353316237746" lon="13.363337788808442"><ele>67.8</ele><time>2026-04-26T10:47:24Z</time></trkpt><trkpt lat="37.35527716273577" lon="13.363420324459774"><ele>69.2</ele><time>2026-04-26T10:47:26Z</time></trkpt><trkpt lat="37.3551757321885" lon="13.36351057759308"><ele>70.6</ele><time>2026-04-26T10:47:28Z</time></trkpt><trkpt lat="37.355076043622525" lon="13.363583742784648"><ele>72.0</ele><time>2026-04-26T10:47:30Z</time></trkpt><trkpt lat="37.3549992412174" lon="13.36365783550701"><ele>72.0</ele><time>2026-04-26T10:47:32Z</time></trkpt><trkpt lat="37.354915806496535" lon="13.36374810444859"><ele>72.0</ele><time>2026-04-26T10:47:34Z</time></trkpt><trkpt lat="37.35484015491952" lon="13.363836231142873"><ele>72.0</ele><time>2026-04-26T10:47:36Z</time></trkpt><trkpt lat="37.35476538208671" lon="13.363928124859315"><ele>72.0</ele><time>2026-04-26T10:47:38Z</time></trkpt><trkpt lat="37.3546808034242" lon="13.364029184349304"><ele>72.0</ele><time>2026-04-26T10:47:40Z</time></trkpt><trkpt lat="37.35460280223028" lon="13.36412188930645"><ele>73.0</ele><time>2026-04-26T10:47:42Z</time></trkpt><trkpt lat="37.354554686907285" lon="13.364178576835473"><ele>74.0</ele><time>2026-04-26T10:47:43Z</time></trkpt><trkpt lat="37.354466736758894" lon="13.364284084138173"><ele>75.0</ele><time>2026-04-26T10:47:45Z</time></trkpt><trkpt lat="37.35436783580242" lon="13.364382129202141"><ele>76.0</ele><time>2026-04-26T10:47:47Z</time></trkpt><trkpt lat="37.35427298963808" lon="13.364462940482973"><ele>77.0</ele><time>2026-04-26T10:47:49Z</time></trkpt><trkpt lat="37.35422324899558" lon="13.364518235829514"><ele>77.0</ele><time>2026-04-26T10:47:50Z</time></trkpt><trkpt lat="37.35417028034589" lon="13.364571471881106"><ele>77.0</ele><time>2026-04-26T10:47:51Z</time></trkpt><trkpt lat="37.354103837717446" lon="13.364629867036498"><ele>77.0</ele><time>2026-04-26T10:47:52Z</time></trkpt><trkpt lat="37.35404124450127" lon="13.36469184159046"><ele>77.0</ele><time>2026-04-26T10:47:53Z</time></trkpt><trkpt lat="37.353984784728624" lon="13.36474890163189"><ele>77.0</ele><time>2026-04-26T10:47:54Z</time></trkpt><trkpt lat="37.35392520489055" lon="13.36480321348421"><ele>77.0</ele><time>2026-04-26T10:47:55Z</time></trkpt><trkpt lat="37.35386907474139" lon="13.364860607372485"><ele>77.0</ele><time>2026-04-26T10:47:56Z</time></trkpt><trkpt lat="37.35381278878998" lon="13.36491863253967"><ele>77.0</ele><time>2026-04-26T10:47:57Z</time></trkpt><trkpt lat="37.35372909267158" lon="13.365002822423753"><ele>77.0</ele><time>2026-04-26T10:47:59.001Z</time></trkpt><trkpt lat="37.35368078109806" lon="13.365056157970336"><ele>77.0</ele><time>2026-04-26T10:48:15.001Z</time></trkpt><trkpt lat="37.3536222679011" lon="13.365132856452696"><ele>77.0</ele><time>2026-04-26T10:48:17.001Z</time></trkpt><trkpt lat="37.35354682893834" lon="13.365239422496385"><ele>77.0</ele><time>2026-04-26T10:48:19.001Z</time></trkpt><trkpt lat="37.353463699167854" lon="13.365359112312719"><ele>77.0</ele><time>2026-04-26T10:48:21.001Z</time></trkpt><trkpt lat="37.35341365506093" lon="13.365437453443516"><ele>77.0</ele><time>2026-04-26T10:48:22.001Z</time></trkpt><trkpt lat="37.353356222138274" lon="13.365520118361367"><ele>77.0</ele><time>2026-04-26T10:48:23.001Z</time></trkpt><trkpt lat="37.35327984089121" lon="13.365580759005567"><ele>77.0</ele><time>2026-04-26T10:48:24.001Z</time></trkpt><trkpt lat="37.353215718587975" lon="13.365634996681196"><ele>77.0</ele><time>2026-04-26T10:48:25.001Z</time></trkpt><trkpt lat="37.353129913435126" lon="13.365696230801367"><ele>77.0</ele><time>2026-04-26T10:48:26.001Z</time></trkpt><trkpt lat="37.353047644706386" lon="13.365771139501982"><ele>76.16666666666667</ele><time>2026-04-26T10:48:27.001Z</time></trkpt><trkpt lat="37.35296474245488" lon="13.365856917645722"><ele>75.33333333333334</ele><time>2026-04-26T10:48:28.001Z</time></trkpt><trkpt lat="37.35290578084786" lon="13.365935457468545"><ele>74.5</ele><time>2026-04-26T10:48:29.001Z</time></trkpt><trkpt lat="37.35285152491385" lon="13.366001041145578"><ele>73.66666666666667</ele><time>2026-04-26T10:48:30.001Z</time></trkpt><trkpt lat="37.35279356543555" lon="13.366053820148295"><ele>72.83333333333333</ele><time>2026-04-26T10:48:31.001Z</time></trkpt><trkpt lat="37.35272427480305" lon="13.36612135244623"><ele>72.0</ele><time>2026-04-26T10:48:32.001Z</time></trkpt><trkpt lat="37.352641976588" lon="13.366197783341741"><ele>72.00000000000001</ele><time>2026-04-26T10:48:33Z</time></trkpt><trkpt lat="37.352575292315535" lon="13.366254673932572"><ele>72.0</ele><time>2026-04-26T10:48:34Z</time></trkpt><trkpt lat="37.352520139532196" lon="13.366305382927647"><ele>72.0</ele><time>2026-04-26T10:48:35Z</time></trkpt><trkpt lat="37.352464192274" lon="13.366353462044374"><ele>72.0</ele><time>2026-04-26T10:48:36Z</time></trkpt><trkpt lat="37.352412919083186" lon="13.36640883698779"><ele>72.0</ele><time>2026-04-26T10:48:37Z</time></trkpt><trkpt lat="37.352353527594786" lon="13.366467392051852"><ele>72.00000000000001</ele><time>2026-04-26T10:48:38Z</time></trkpt><trkpt lat="37.35229762365943" lon="13.36652057226799"><ele>72.0</ele><time>2026-04-26T10:48:39Z</time></trkpt><trkpt lat="37.35223962068069" lon="13.36659422260487"><ele>71.66666666666667</ele><time>2026-04-26T10:48:40Z</time></trkpt><trkpt lat="37.35219440513623" lon="13.36665337812793"><ele>71.33333333333333</ele><time>2026-04-26T10:48:41Z</time></trkpt><trkpt lat="37.35214065285308" lon="13.366706007788379"><ele>71.0</ele><time>2026-04-26T10:48:42Z</time></trkpt><trkpt lat="37.35208884096127" lon="13.366766244280807"><ele>70.66666666666666</ele><time>2026-04-26T10:48:43Z</time></trkpt><trkpt lat="37.352008996625926" lon="13.366867846467729"><ele>70.33333333333333</ele><time>2026-04-26T10:48:45Z</time></trkpt><trkpt lat="37.351953164589354" lon="13.366953949294299"><ele>70.0</ele><time>2026-04-26T10:48:47Z</time></trkpt><trkpt lat="37.35189768249824" lon="13.367015300669207"><ele>70.0</ele><time>2026-04-26T10:48:50Z</time></trkpt></trkseg></trk></gpx>